     2.11           OBSERVATION DATA    G (GPS)             RINEX VERSION / TYPE
teqc 2010Oct21 OPUS Account 20111027 14:11:12UTC            PGM / RUN BY / DATE
W 1523                                                      MARKER NAME
1201                                                        MARKER NUMBER
CSMIDDLETON NGS                                             OBSERVER / AGENCY
4624K01631 TRIMBLE NETR5 4.41                               REC # / TYPE / VERS
12481390 TRM41249.00 NONE                                   ANT # / TYPE
  -750849.3241 -5520867.3888  3094062.2228                  APPROX POSITION XYZ
        2.0000        0.0000        0.0000                  ANTENNA: DELTA H/E/N
     1     1                                                WAVELENGTH FACT L1/2
     5    L1    L2    C1    P1    P2                        # / TYPES OF OBSERV
    15                                                      LEAP SECONDS
  2011     8    13     0     0    0.0000000     GPS         TIME OF FIRST OBS
                                                            END OF HEADER
 11  8 13  0  0  0.0000000  0  9G10G09G17G28G02G27G04G12G05
 112889060.931 7  87965622.21445  21482061.500                    21482071.016
 118048852.201 7  91986244.62645  22463964.875                    22463974.938
 117054815.372 7  91211559.025 7  22274770.859                    22274780.586
 123716275.504 6  96402369.07943  23542432.586                    23542443.727
 109911347.549 8  85645325.22546  20915415.273                    20915421.906
 120122374.191 7  93601952.21045  22858537.109                    22858548.461
 107367026.645 8  83662750.09546  20431244.133                    20431253.230
 119978505.626 7  93489887.171 7  22831174.820                    22831184.082
 125695455.346 7  97944626.907 6  23919062.539                    23919074.660
 11  8 13  0  0 30.0000000  0  9G10G09G17G28G02G27G04G12G05
 112830938.899 7  87920332.36345  21471001.266                    21471010.719
 118096377.783 7  92023277.50744  22473008.516                    22473018.910
 117095783.629 7  91243482.343 7  22282567.078                    22282576.098
 123808989.255 6  96474613.49843  23560075.211                    23560086.879
 109877234.235 8  85618743.44646  20908923.586                    20908930.207
 120166667.237 7  93636466.20744  22866965.984                    22866976.660
 107418487.098 8  83702849.14846  20441036.477                    20441045.359
 119889157.921 7  93420265.636 7  22814172.492                    22814181.512
 125589648.880 7  97862180.497 6  23898927.688                    23898940.379
 11  8 13  0  1  0.0000000  0  9G10G09G17G28G02G27G04G12G05
 112773286.788 7  87875408.68745  21460030.344                    21460040.223
 118144382.328 7  92060683.61445  22482143.539                    22482153.980
 117136854.450 7  91275485.572 7  22290382.688                    22290391.859
 123901970.124 6  96547066.05443  23577769.938                    23577780.289
 109843487.737 8  85592447.49646  20902501.242                    20902508.324
 120211285.081 7  93671233.29245  22875456.914                    22875467.402
 107470315.238 8  83743234.70146  20450899.328                    20450908.242
 119799999.038 7  93350791.229 7  22797205.969                    22797214.930
 125483853.641 7  97779742.840 6  23878795.367                    23878807.762
 11  8 13  0  1 30.0000000  0  9G10G09G17G28G02G27G04G12G05
 112716106.815 7  87830852.91045  21449149.336                    21449158.742
 118192862.820 7  92098460.59145  22491369.070                    22491379.301
 117178027.501 7  91307568.463 7  22298218.156                    22298226.594
 123995215.888 6  96619724.95543  23595513.609                    23595524.730
 109810106.929 8  85566436.49946  20896149.234                    20896156.148
 120256225.263 7  93706251.54544  22884009.211                    22884019.160
 107522508.404 8  83783904.69246  20460831.180                    20460840.488
 119711031.151 7  93281465.625 7  22780275.703                    22780284.742
 125378072.102 7  97697315.842 6  23858665.555                    23858677.723
 11  8 13  0  2  0.0000000  0  9G10G09G17G28G02G27G04G12G05
 112659401.778 8  87786667.21545  21438358.734                    21438367.738
 118241816.087 7  92136605.96245  22500684.422                    22500694.848
 117219303.398 7  91339731.488 7  22306072.250                    22306081.184
 124088724.850 6  96692589.03243  23613307.930                    23613318.801
 109777091.461 8  85540710.19146  20889866.586                    20889873.527
 120301485.028 7  93741518.85244  22892621.180                    22892632.133
 107575063.989 8  83824857.09146  20470832.453                    20470841.313
 119622256.668 7  93212290.720 7  22763382.477                    22763391.777
 125272306.664 7  97614901.379 6  23838539.227                    23838551.320
 11  8 13  0  2 30.0000000  0  9G10G09G17G28G02G27G04G12G05
 112603174.736 8  87742853.98145  21427659.195                    21427668.695
 118291240.108 7  92175118.15745  22510089.070                    22510099.793
 117260682.913 7  91371975.260 7  22313946.383                    22313954.816
 124182495.491 6  96765657.02243  23631151.586                    23631162.867
 109744441.436 8  85515268.63546  20883653.445                    20883660.543
 120347062.468 7  93777033.67944  22901294.469                    22901304.930
 107627980.039 8  83866090.36846  20480902.141                    20480911.008
 119533677.974 7  93143268.379 7  22746526.484                    22746535.340
 125166560.477 7  97532501.942 6  23818416.328                    23818428.430
 11  8 13  0  3  0.0000000  0  9G10G09G17G28G02G27G04G12G05
 112547428.499 7  87699415.39645  21417050.352                    21417060.129
 118341131.837 7  92213994.78745  22519583.742                    22519593.930
 117302166.707 7  91404300.286 7  22321840.727                    22321849.430
 124276526.134 6  96838927.54643  23649043.922                    23649056.457
 109712156.742 8  85490111.75046  20877510.078                    20877516.832
 120392955.216 7  93812794.20144  22910027.258                    22910038.367
 107681254.363 8  83907602.81746  20491039.617                    20491048.910
 119445297.931 7  93074400.815 7  22729708.688                    22729717.770
 125060836.335 7  97450119.666 6  23798297.648                    23798309.867
 11  8 13  0  3 30.0000000  0  9G10G09G17G28G02G27G04G12G05
 112492165.492 8  87656353.36145  21406534.586                    21406543.879
 118391488.454 7  92253233.67045  22529166.117                    22529176.535
 117343754.905 7  91436706.655 7  22329754.609                    22329763.340
 124370814.682 6  96912399.05643  23666987.867                    23666998.281
 109680236.962 8  85465239.21946  20871435.781                    20871442.824
 120439160.715 7  93848798.42844  22918820.508                    22918831.277
 107734884.362 8  83949392.41446  20501245.367                    20501254.340
 119357119.055 7  93005690.021 7  22712929.133                    22712937.746
 124955137.093 7  97367756.798 6  23778183.094                    23778195.223
 11  8 13  0  4  0.0000000  0  9G10G09G17G28G02G27G04G12G05
 112437388.236 8  87613669.83545  21396110.984                    21396120.547
 118442307.193 7  92292832.62944  22538836.688                    22538847.168
 117385448.462 7  91469195.130 7  22337688.938                    22337697.688
 124465359.867 6  96986070.54843  23684979.336                    23684989.285
 109648681.660 8  85440650.69546  20865430.836                    20865437.848
 120485676.660 7  93885044.56144  22927671.609                    22927682.129
 107788868.072 8  83991457.63646  20511517.719                    20511527.195
 119269143.754 7  92937137.849 7  22696188.156                    22696196.730
 124849465.615 7  97285415.572 6  23758074.711                    23758087.145
 11  8 13  0  4 30.0000000  0  9G10G09G17G28G02G27G04G12G05
 112383098.886 8  87571366.49245  21385779.867                    21385789.766
 118493584.394 7  92332788.84445  22548594.563                    22548604.461
 117427247.052 7  91501765.442 7  22345642.742                    22345651.879
 124560158.887 6  97059939.83443  23703018.992                    23703029.453
 109617489.683 8  85416345.28846  20859495.383                    20859502.090
 120532499.910 7  93921530.14145  22936582.023                    22936593.121
 107843201.949 8  84033795.70846  20521857.258                    20521866.426
 119181374.654 7  92868746.354 7  22679485.563                    22679494.840
 124743823.910 7  97203097.569 6  23737971.914                    23737983.602
 11  8 13  0  5  0.0000000  0  9G10G09G17G28G02G27G04G12G05
 112329300.661 8  87529445.84545  21375542.578                    21375551.660
 118545318.143 7  92373100.79245  22558439.250                    22558449.945
 117469151.949 7  91534418.577 7  22353617.102                    22353625.859
 124655210.970 6  97134006.33543  23721107.609                    23721117.172
 109586661.727 8  85392323.53246  20853629.219                    20853635.832
 120579629.148 7  93958254.17544  22945550.609                    22945561.180
 107897884.735 8  84076405.65846  20532263.461                    20532272.227
 119093813.487 7  92800516.894 7  22662823.727                    22662832.473
 124638215.868 7  97120805.773 6  23717875.141                    23717887.266
 11  8 13  0  5 30.0000000  0  9G10G09G17G28G02G27G04G12G05
 112275996.155 8  87487909.91845  21365398.773                    21365408.594
 118597505.221 7  92413765.99745  22568369.852                    22568380.941
 117511163.799 7  91567155.063 7  22361611.305                    22361620.273
 124750514.232 6  97208268.53443  23739242.992                    23739253.039
 109556197.206 8  85368584.97246  20847831.719                    20847838.633
 120627061.558 7  93995214.41344  22954575.867                    22954587.703
 107952913.762 8  84119285.40646  20542735.211                    20542744.164
 119006463.371 7  92732451.877 7  22646201.164                    22646209.879
 124532644.213 7  97038542.327 6  23697785.000                    23697797.867
 11  8 13  0  6  0.0000000  0  9G10G09G17G28G02G27G04G12G05
 112223188.237 8  87446760.94446  21355349.969                    21355359.418
 118650142.787 7  92454782.22445  22578386.359                    22578397.301
 117553282.893 7  91599975.110 7  22369626.547                    22369635.945
 124846066.870 6  97282725.06743  23757426.008                    23757436.422
 109526096.116 8  85345129.60746  20842103.727                    20842110.773
 120674794.911 7  94032409.17244  22963660.109                    22963670.684
 108008287.143 8  84162433.47946  20553271.969                    20553281.316
 118919327.084 7  92664553.492 7  22629619.453                    22629628.246
 124427111.923 7  96956309.579 6  23677702.633                    23677715.270
 11  8 13  0  6 30.0000000  0  9G10G09G17G28G02G27G04G12G05
 112170878.939 8  87406000.50045  21345395.695                    21345404.914
 118703227.596 7  92496146.95045  22588488.406                    22588498.754
 117595509.950 7  91632879.276 7  22377661.711                    22377671.078
 124941866.801 6  97357374.26443  23775655.773                    23775666.020
 109496357.546 8  85321956.72546  20836444.477                    20836451.422
 120722826.439 7  94069836.26944  22972800.359                    22972811.250
 108064001.937 8  84205847.59946  20563874.664                    20563883.297
 118832407.129 7  92596823.676 7  22613079.508                    22613087.977
 124321621.416 7  96874109.376 6  23657628.234                    23657640.695
 11  8 13  0  7  0.0000000  0  9G10G09G17G28G02G27G04G12G05
 112119071.339 8  87365630.98545  21335536.758                    21335546.160
 118756757.257 7  92537858.32444  22598675.203                    22598685.602
 117637845.245 7  91665867.796 7  22385718.516                    22385727.469
 125037912.695 6  97432215.13643  23793933.078                    23793943.418
 109466981.577 8  85299066.38546  20830854.586                    20830860.945
 120771154.177 7  94107494.18244  22981996.625                    22982007.766
 108120056.273 8  84249526.29546  20574541.047                    20574550.270
 118745706.050 7  92529264.431 7  22596580.547                    22596589.676
 124216175.882 7  96791944.217 6  23637562.688                    23637574.563
 11  8 13  0  7 30.0000000  0  9G10G09G17G28G02G27G04G12G05
 112067767.423 8  87325653.95746  21325774.023                    21325783.531
 118810728.351 7  92579913.64845  22608945.688                    22608955.879
 117680289.032 7  91698940.848 7  22393794.875                    22393804.102
 125134202.600 6  97507246.12743  23812256.758                    23812267.453
 109437967.556 8  85276458.06946  20825333.367                    20825340.426
 120819775.344 7  94145380.73944  22991248.930                    22991259.699
 108176447.216 8  84293467.27146  20585271.953                    20585281.203
 118659226.024 7  92461877.447 7  22580124.023                    22580132.828
 124110777.738 7  96709815.962 6  23617505.813                    23617518.023
 11  8 13  0  8  0.0000000  0  9G10G09G17G28G02G27G04G12G05
 112016969.617 8  87286071.29945  21316107.602                    21316117.215
 118865138.003 7  92622310.72844  22619299.406                    22619310.031
 117722841.955 7  91732098.947 7  22401892.516                    22401901.531
 125230733.981 6  97582465.27343  23830626.016                    23830636.504
 109409314.698 8  85254131.18046  20819880.883                    20819887.633
 120868687.300 7  94183493.88244  23000556.828                    23000567.676
 108233172.551 8  84337668.81946  20596066.305                    20596075.449
 118572969.690 7  92394664.762 7  22563709.945                    22563718.938
 124005429.999 7  96627726.994 6  23597459.148                    23597470.766
 11  8 13  0  8 30.0000000  0  9G10G09G17G28G02G27G04G12G05
 111966680.520 8  87246885.02845  21306537.852                    21306547.230
 118919983.411 7  92665047.35344  22629735.359                    22629746.156
 117765504.758 7  91765342.647 7  22410010.875                    22410020.117
 125327505.489 6  97657871.53343  23849040.961                    23849051.969
 109381022.887 8  85232085.62946  20814497.273                    20814504.145
 120917887.738 7  94221831.81244  23009919.742                    23009930.395
 108290229.852 8  84382129.04146  20606924.180                    20606933.355
 118486939.498 7  92327628.299 7  22547338.734                    22547347.621
 123900135.573 7  96545679.560 6  23577421.625                    23577433.594
 11  8 13  0  9  0.0000000  0  9G10G09G17G28G02G27G04G12G05
 111916902.282 8  87208096.83645  21297065.273                    21297074.367
 118975261.206 7  92708120.89244  22640254.516                    22640265.816
 117808277.630 7  91798672.126 7  22418150.898                    22418160.215
 125424515.098 6  97733463.31243  23867500.953                    23867512.570
 109353091.493 8  85210320.91146  20809181.906                    20809189.078
 120967373.864 7  94260392.36244  23019336.391                    23019347.043
 108347616.702 8  84426846.06046  20617844.461                    20617853.676
 118401137.912 7  92260769.979 7  22531011.086                    22531020.074
 123794897.209 7  96463675.806 6  23557395.906                    23557406.699
 11  8 13  0  9 30.0000000  0  9G10G09G17G28G02G27G04G12G05
 111867637.501 8  87169708.73245  21287690.414                    21287699.918
 119030968.347 7  92751529.00344  22650855.375                    22650866.313
 117851161.423 7  91832088.057 7  22426311.469                    22426320.184
 125521761.005 6  97809239.20343  23886006.547                    23886017.961
 109325519.966 8  85188836.61546  20803935.609                    20803942.023
 121017143.219 7  94299173.58244  23028806.891                    23028818.223
 108405330.734 8  84471818.02546  20628826.969                    20628836.211
 118315567.606 7  92194091.858 7  22514727.227                    22514736.840
 123689717.832 7  96381718.030 6  23537380.648                    23537392.508
 11  8 13  0 10  0.0000000  0  9G10G09G17G28G02G27G04G12G05
 111818889.572 8  87131723.38145  21278414.141                    21278423.445
 119087102.446 7  92795269.79644  22661537.711                    22661548.496
 117894156.756 7  91865590.895 7  22434492.844                    22434502.461
 125619241.654 6  97885198.05343  23904556.617                    23904567.641
 109298308.458 8  85167632.85346  20798756.961                    20798764.160
 121067194.083 7  94338174.19044  23038331.602                    23038342.125
 108463370.302 8  84517043.65946  20639871.492                    20639880.699
 118230231.735 7  92127596.444 7  22498488.750                    22498497.746
 123584600.693 7  96299808.738 6  23517377.508                    23517389.191
 11  8 13  0 10 30.0000000  0  9G10G09G17G28G02G27G04G12G05
 111770659.875 8  87094141.83546  21269236.297                    21269245.020
 119143660.000 7  92839340.56744  22672300.531                    22672311.074
 117937264.174 7  91899181.061 7  22442696.094                    22442705.102
 125716954.948 6  97961338.14343  23923150.875                    23923161.594
 109271456.091 8  85146708.94046  20793647.375                    20793653.930
 121117523.231 7  94377391.62844  23047908.906                    23047919.840
 108521732.299 8  84562520.54346  20650977.320                    20650986.715
 118145132.078 7  92061285.070 7  22482294.969                    22482303.648
 123479548.201 7  96217949.821 6  23497386.086                    23497398.176
 11  8 13  0 11  0.0000000  0  9G10G09G17G28G02G27G04G12G05
 111722950.745 8  87056965.92446  21260157.250                    21260166.547
 119200637.913 7  92883738.88344  22683142.688                    22683153.254
 117980484.631 7  91932859.327 7  22450920.711                    22450929.289
 125814899.311 6  98037658.30243  23941789.406                    23941800.211
 109244962.544 8  85126064.62846  20788605.898                    20788612.121
 121168128.266 7  94416824.02544  23057538.695                    23057549.363
 108580414.510 8  84608246.94546  20662144.281                    20662153.648
 118060271.468 7  91995159.980 7  22466146.453                    22466155.402
 123374563.594 7  96136143.787 6  23477408.078                    23477419.617
 11  8 13  0 11 30.0000000  0  9G10G09G17G28G02G27G04G12G05
 111675765.214 8  87020198.01945  21251178.031                    21251187.660
 119258033.662 7  92928462.77044  22694064.945                    22694075.477
 118023818.009 7  91966625.572 7  22459166.680                    22459175.914
 125913073.052 6  98114157.20543  23960470.945                    23960482.031
 109218827.768 8  85105699.88246  20783632.422                    20783638.875
 121219007.039 7  94456469.76744  23067220.422                    23067231.734
 108639414.809 8  84654221.20246  20673371.930                    20673380.734
 117975652.793 7  91929223.388 7  22450043.820                    22450053.148
 123269650.034 7  96054393.119 6  23457443.914                    23457455.457
 11  8 13  0 12  0.0000000  0  9G10G09G17G28G02G27G04G12G05
 111629105.186 8  86983839.57846  21242299.141                    21242308.391
 119315843.703 7  92973509.48744  22705066.313                    22705076.508
 118067265.023 7  92000480.371 7  22467434.680                    22467443.531
 126011473.581 6  98190832.84243  23979196.602                    23979207.215
 109193050.692 8  85085613.86446  20778727.352                    20778733.625
 121270156.622 7  94496326.50344  23076953.906                    23076965.125
 108698730.653 8  84700441.34346  20684659.313                    20684668.176
 117891278.705 7  91863477.396 7  22433988.125                    22433997.199
 123164809.737 7  95972699.527 6  23437493.180                    23437504.711
 11  8 13  0 12 30.0000000  0  9G10G09G17G28G02G27G04G12G05
 111582973.430 8  86947892.78545  21233520.305                    21233529.746
 119374065.325 7  93018876.93044  22716145.320                    22716155.813
 118110826.544 7  92034424.419 7  22475723.336                    22475732.758
 126110099.305 6  98267683.90543  23997963.969                    23997975.344
 109167631.024 8  85065806.34446  20773889.969                    20773896.887
 121321574.907 7  94536392.61144  23086738.703                    23086750.004
 108758359.767 8  84746905.57746  20696006.125                    20696015.609
 117807151.085 7  91797923.446 7  22417978.953                    22417987.863
 123060046.275 7  95891065.820 6  23417557.000                    23417568.914
 11  8 13  0 13  0.0000000  0  9G10G09G17G28G02G27G04G12G05
 111537371.561 8  86912358.90046  21224842.664                    21224851.859
 119432695.022 7  93064562.34145  22727301.938                    22727312.555
 118154502.985 7  92068458.007 7  22484035.094                    22484043.832
 126208948.160 6  98344708.88443  24016774.758                    24016786.039
 109142567.860 8  85046276.61746  20769120.422                    20769127.637
 121373258.975 7  94576665.83644  23096574.625                    23096585.438
 108818299.667 8  84793611.98846  20707412.523                    20707421.887
 117723272.666 7  91732563.674 7  22402017.609                    22402026.285
 122955362.080 7  95809493.857 6  23397636.320                    23397647.820
 11  8 13  0 13 30.0000000  0  9G10G09G17G28G02G27G04G12G05
 111492302.098 8  86877239.86846  21216266.328                    21216275.563
 119491730.058 7  93110563.58944  22738536.141                    22738546.352
 118198294.460 7  92102581.224 7  22492368.422                    22492377.414
 126308018.313 6  98421906.29343  24035627.094                    24035638.285
 109117861.119 8  85027024.62946  20764419.094                    20764425.789
 121425206.386 7  94617144.29444  23106459.672                    23106471.066
 108878548.113 8  84840558.81146  20718877.352                    20718886.402
 117639646.331 7  91667400.335 7  22386103.711                    22386112.680
 122850760.403 7  95727986.214 6  23377731.078                    23377743.098
 11  8 13  0 14  0.0000000  0  9G10G09G17G28G02G27G04G12G05
 111447767.412 8  86842537.54545  21207791.492                    21207801.105
 119551167.171 7  93156878.16744  22749847.047                    22749857.133
 118242202.105 7  92136794.987 7  22500723.766                    22500732.809
 126407307.748 6  98499274.58343  24054521.250                    24054532.340
 109093509.746 8  85008049.54746  20759785.227                    20759791.934
 121477414.359 7  94657825.77044  23116394.188                    23116405.098
 108939102.410 8  84887743.96146  20730400.383                    20730409.676
 117556274.204 7  91602435.075 7  22370238.703                    22370247.727
 122746244.006 7  95646545.015 6  23357842.305                    23357854.012
 11  8 13  0 14 30.0000000  0  9G10G09G17G28G02G27G04G12G05
 111403770.257 8  86808254.08145  21199419.234                    21199428.621
 119611003.519 7  93203503.81844  22761233.352                    22761243.832
 118286226.362 7  92171099.588 7  22509101.516                    22509110.152
 126506815.107 6  98576812.71642  24073457.016                    24073467.867
 109069514.032 8  84989351.59846  20755218.688                    20755225.688
 121529880.704 7  94698708.53344  23126378.250                    23126390.047
 108999960.881 8  84935166.14346  20741981.656                    20741990.582
 117473159.454 7  91537670.359 7  22354422.477                    22354431.262
 122641815.924 7  95565172.648 6  23337969.883                    23337981.488
 11  8 13  0 15  0.0000000  0  9G10G09G17G28G02G27G04G12G05
 111360312.187 8  86774390.68546  21191149.313                    21191158.484
 119671235.224 7  93250437.55144  22772694.992                    22772705.387
 118330367.907 7  92205495.590 7  22517501.164                    22517510.547
 126606537.846 6  98654518.66443  24092433.953                    24092444.547
 109045872.684 8  84970929.78046  20750720.148                    20750727.039
 121582602.456 7  94739790.33344  23136411.102                    23136422.430
 109061120.431 8  84982822.92746  20753619.813                    20753629.500
 117390304.466 7  91473108.055 7  22338655.664                    22338664.563
 122537478.692 7  95483871.049 6  23318115.016                    23318126.965
 11  8 13  0 15 30.0000000  0  9G10G09G17G28G02G27G04G12G05
 111317395.581 8  86740949.21346  21182982.906                    21182991.410
 119731859.691 7  93297677.32144  22784231.570                    22784242.285
 118374626.932 7  92239983.147 7  22525923.273                    22525932.188
 126706474.268 6  98732391.10243  24111451.211                    24111462.152
 109022585.558 8  84952783.98246  20746288.578                    20746295.453
 121635577.553 7  94781069.57744  23146492.086                    23146503.574
 109122579.159 8  85030712.83846  20765314.641                    20765324.207
 117307711.839 7  91408750.185 7  22322938.891                    22322947.559
 122433235.731 7  95402642.910 7  23298278.320                    23298290.012
 11  8 13  0 16  0.0000000  0  9G10G09G17G28G02G27G04G12G05
 111275022.969 8  86707931.63346  21174919.180                    21174928.340
 119792873.794 7  93345220.71144  22795842.063                    22795852.656
 118419004.551 7  92274563.093 7  22534368.266                    22534377.313
 126806622.468 6  98810428.57043  24130509.055                    24130519.977
 108999652.167 8  84934913.80946  20741924.539                    20741931.273
 121688803.362 7  94822544.15644  23156620.469                    23156631.938
 109184334.742 8  85078834.06346  20777066.586                    20777075.730
 117225384.086 7  91344598.702 7  22307272.336                    22307280.934
 122329090.027 7  95321490.547 6  23278460.156                    23278471.516
 11  8 13  0 16 30.0000000  0  9G10G09G17G28G02G27G04G12G05
 111233195.884 8  86675339.13046  21166960.031                    21166968.902
 119854274.133 7  93393065.06644  22807526.141                    22807536.641
 118463500.927 7  92309235.581 7  22542835.563                    22542844.520
 126906980.364 6  98888629.43343  24149606.477                    24149617.719
 108977071.573 8  84917318.55146  20737627.648                    20737634.734
 121742276.842 7  94864211.71444  23166796.367                    23166807.156
 109246384.537 8  85127184.53346  20788874.000                    20788883.117
 117143323.711 7  91280655.566 7  22291656.977                    22291665.691
 122225044.151 7  95240415.976 6  23258660.750                    23258672.008
 11  8 13  0 17  0.0000000  0  9G10G09G17G28G02G27G04G12G05
 111191916.548 8  86643173.44346  21159104.688                    21159113.973
 119916057.560 7  93441207.92644  22819283.406                    22819294.266
 118508116.553 7  92344000.992 7  22551325.477                    22551333.887
 127007545.591 6  98966991.85043  24168743.414                    24168754.969
 108954842.926 8  84899997.54046  20733398.172                    20733404.555
 121795995.314 7  94906070.17344  23177017.906                    23177029.930
 109308725.909 8  85175762.21346  20800737.531                    20800746.496
 117061533.185 7  91216922.691 7  22276092.203                    22276101.395
 122121101.021 7  95159421.447 6  23238880.813                    23238892.176
 11  8 13  0 17 30.0000000  0 10G10G30G09G17G28G02G27G04G12G05
 111151187.357 8  86611436.44846  21151354.297                    21151363.477
 127969369.36516  99716394.06553  24351752.578                    24351762.793
 119978221.062 7  93489646.97444  22831112.313                    22831123.133
 118552852.007 7  92378859.765 7  22559838.586                    22559847.652
 127108316.745 6  99045514.75643  24187919.211                    24187931.242
 108932965.977 8  84882950.56746  20729234.484                    20729241.223
 121849956.595 7  94948117.88244  23187286.797                    23187298.117
 109371357.100 8  85224565.72646  20812655.719                    20812665.176
 116980015.259 7  91153402.255 7  22260580.297                    22260589.004
 122017263.763 7  95078509.403 7  23219121.164                    23219132.457
 11  8 13  0 18  0.0000000  0 10G10G30G09G17G28G02G27G04G12G05
 111111010.247 8  86580129.63846  21143708.813                    21143717.895
 127862817.514 6  99633366.71043  24331476.109                    24331487.152
 120040761.327 7  93538379.60544  22843014.219                    22843024.578
 118597708.120 7  92413812.550 7  22568374.500                    22568383.379
 127209291.678 6  99124196.37543  24207134.578                    24207145.938
 108911440.100 8  84866177.16946  20725138.508                    20725145.395
 121904157.810 7  94990352.50544  23197601.523                    23197612.734
 109434275.355 8  85273592.92446  20824628.750                    20824638.074
 116898772.467 7  91090096.199 7  22245119.977                    22245129.066
 121913535.230 7  94997682.087 6  23199381.867                    23199393.328
 11  8 13  0 18 30.0000000  0 10G10G30G09G17G28G02G27G04G12G05
 111071387.220 8  86549254.58346  21136168.852                    21136177.766
 127756410.577 6  99550452.29043  24311227.609                    24311238.445
 120103675.006 7  93587403.19844  22854985.172                    22854996.590
 118642685.435 7  92448859.775 7  22576933.305                    22576942.602
 127310468.204 5  99203035.21343  24226387.820                    24226399.281
 108890264.585 8  84849676.77546  20721108.617                    20721115.793
 121958596.422 7  95032772.09244  23207961.008                    23207972.242
 109497478.398 8  85322842.03046  20836655.938                    20836665.047
 116817807.593 8  91027006.707 7  22229713.023                    22229721.957
 121809918.356 7  94916941.780 6  23179664.602                    23179675.734
 11  8 13  0 19  0.0000000  0 10G10G30G09G17G28G02G27G04G12G05
 111032320.256 8  86518812.82846  21128734.453                    21128743.344
 127650151.356 6  99467652.98843  24291007.625                    24291018.035
 120166958.899 7  93636715.23644  22867028.547                    22867039.117
 118687784.567 7  92484001.937 7  22585515.688                    22585524.402
 127411844.437 6  99282029.54543  24245678.789                    24245690.805
 108869438.750 8  84833448.85946  20717145.688                    20717152.477
 122013269.992 7  95075374.76944  23218364.734                    23218376.477
 109560964.104 8  85372311.39146  20848737.148                    20848745.922
 116737123.133 8  90964135.724 7  22214359.438                    22214367.805
 121706416.200 7  94836290.848 6  23159968.758                    23159979.793
 11  8 13  0 19 30.0000000  0 10G10G30G09G17G28G02G27G04G12G05
 110993811.209 8  86488805.81846  21121406.508                    21121415.754
 127544042.251 6  99384970.65543  24270815.492                    24270825.512
 120230609.550 7  93686313.07544  22879140.234                    22879151.668
 118733006.049 7  92519239.426 7  22594120.719                    22594129.875
 127513418.123 6  99361177.74643  24265008.656                    24265019.559
 108848961.828 8  84817492.82846  20713249.078                    20713255.934
 122068175.498 7  95118158.15444  23228812.711                    23228824.590
 109624729.611 8  85421998.79346  20860871.125                    20860880.234
 116656721.379 7  90901485.022 7  22199059.047                    22199067.793
 121603031.496 7  94755731.416 6  23140295.563                    23140306.449
 11  8 13  0 20  0.0000000  0 10G10G30G09G17G28G02G27G04G12G05
 110955862.632 8  86459235.53446  21114184.891                    21114193.953
 127438086.574 6  99302407.84643  24250652.969                    24250663.004
 120294624.362 7  93736194.68944  22891322.586                    22891332.848
 118778350.421 7  92554572.666 7  22602749.711                    22602758.602
 127615187.774 5  99440478.69142  24284373.781                    24284385.590
 108828833.715 8  84801808.59746  20709418.797                    20709425.508
 122123310.623 7  95161120.50544  23239305.258                    23239316.363
 109688773.331 8  85471902.97046  20873058.258                    20873067.289
 116576605.298 8  90839056.928 7  22183813.719                    22183822.203
 121499767.946 7  94675266.414 6  23120645.039                    23120655.836
 11  8 13  0 20 30.0000000  0 10G10G30G09G17G28G02G27G04G12G05
 110918476.466 8  86430103.48546  21107070.711                    21107079.844
 127332286.763 6  99219966.47843  24230519.453                    24230529.586
 120359000.018 7  93786357.46844  22903572.656                    22903583.516
 118823818.426 7  92590002.257 7  22611401.656                    22611411.000
 127717151.258 5  99519930.67743  24303777.461                    24303788.504
 108809053.628 8  84786395.54946  20705655.188                    20705661.543
 122178672.957 7  95204259.89744  23249840.078                    23249851.484
 109753092.561 8  85522021.84246  20885297.453                    20885306.723
 116496777.626 8  90776853.577 7  22168622.641                    22168631.727
 121396627.798 7  94594897.556 6  23101017.836                    23101028.934
 11  8 13  0 21  0.0000000  0 10G10G30G09G17G28G02G27G04G12G05
 110881654.569 8  86401411.12046  21100063.641                    21100072.543
 127226645.635 6  99137648.78642  24210416.477                    24210426.676
 120423733.227 7  93836798.83944  22915891.125                    22915901.840
 118869410.860 7  92625528.788 7  22620078.211                    22620086.688
 127819306.813 5  99599532.29642  24323216.406                    24323228.680
 108789620.798 8  84771253.10446  20701956.688                    20701963.656
 122234259.929 7  95247574.40344  23260417.344                    23260429.301
 109817685.151 8  85572353.72146  20897589.477                    20897598.883
 116417240.973 8  90714876.971 7  22153487.906                    22153496.863
 121293614.530 7  94514627.565 6  23081414.836                    23081425.684
 11  8 13  0 21 30.0000000  0  9G10G30G09G17G02G27G04G12G05
 110845398.938 8  86373160.01146  21093164.367                    21093173.730
 127121165.900 6  99055456.82143  24190343.984                    24190354.977
 120488820.681 7  93887516.25344  22928276.227                    22928287.551
 118915128.149 7  92661152.620 7  22628776.953                    22628786.766
 108770534.605 8  84756380.75746  20698324.836                    20698331.688
 122290068.487 7  95291061.49944  23271037.797                    23271049.234
 109882548.681 8  85622896.71546  20909932.523                    20909941.293
 116337997.886 7  90653129.145 7  22138407.977                    22138417.043
 121190730.999 7  94434458.681 7  23061836.789                    23061847.863
 11  8 13  0 22  0.0000000  0  9G10G30G09G17G02G27G04G12G05
 110809711.139 8  86345351.36746  21086373.461                    21086382.836
 127015849.943 6  98973392.48043  24170303.570                    24170313.289
 120554258.883 7  93938506.99244  22940729.461                    22940740.469
 118960970.519 7  92696873.924 7  22637501.016                    22637510.238
 108751793.845 8  84741777.57146  20694758.375                    20694765.375
 122346095.878 7  95334719.12344  23281699.852                    23281710.863
 109947680.619 8  85673648.85946  20922327.141                    20922335.816
 116259050.836 7  90591611.999 7  22123385.297                    22123394.039
 121087979.870 7  94354392.985 7  23042283.547                    23042294.961
 11  8 13  0 22 30.0000000  0  9G10G30G09G17G02G27G04G12G05
 110774592.734 8  86317986.40346  21079690.430                    21079699.359
 126910700.270 6  98891457.72943  24150293.945                    24150304.016
 120620044.660 7  93989768.57344  22953248.000                    22953259.176
 119006938.462 7  92732693.063 7  22646248.414                    22646257.797
 108733397.977 8  84727443.15346  20691257.945                    20691264.734
 122402339.384 6  95378545.14944  23292402.250                    23292413.988
 110013078.361 8  85724608.12746  20934771.359                    20934780.473
 116180401.929 7  90530327.181 7  22108419.164                    22108427.547
 120985364.084 7  94274432.740 6  23022756.125                    23022767.465
 11  8 13  0 23  0.0000000  0  9G10G30G09G17G02G27G04G12G05
 110740046.205 8  86291067.05746  21073116.125                    21073125.629
 126805720.098 6  98809655.04343  24130317.672                    24130327.508
 120686174.990 7  94041298.64644  22965832.398                    22965843.414
 119053033.069 7  92768610.901 7  22655019.945                    22655028.918
 108715346.571 8  84713377.14146  20687822.961                    20687829.500
 122458796.464 7  95422537.57144  23303146.313                    23303157.637
 110078739.972 8  85775772.99846  20947266.602                    20947275.715
 116102054.057 8  90469276.938 7  22093509.555                    22093518.648
 120882886.791 7  94194580.423 7  23003255.617                    23003266.266
 11  8 13  0 23 30.0000000  0  9G10G30G09G17G02G27G04G12G05
 110706072.626 8  86264594.16446  21066651.266                    21066660.648
 126700911.589 6  98727986.08943  24110373.320                    24110383.176
 120752645.944 7  94093094.09844  22978480.969                    22978492.273
 119099254.485 7  92804627.572 7  22663815.586                    22663824.340
 108697638.227 8  84699578.44746  20684453.313                    20684460.008
 122515463.902 7  95466693.89044  23313929.742                    23313940.734
 110144662.583 8  85827141.24746  20959811.008                    20959820.344
 116024009.526 7  90408463.063 7  22078658.172                    22078667.270
 120780550.389 7  94114837.880 7  22983781.758                    22983792.523
 11  8 13  0 24  0.0000000  0  9G10G30G09G17G02G27G04G12G05
 110672674.550 8  86238569.71346  21060295.797                    21060305.000
 126596278.081 6  98646453.47743  24090461.859                    24090471.129
 120819454.653 7  94145152.73744  22991194.328                    22991205.527
 119145603.445 7  92840743.615 7  22672635.227                    22672644.418
 108680272.786 8  84686046.95246  20681148.484                    20681155.422
 122572339.687 7  95511012.59944  23324752.992                    23324764.379
 110210844.473 8  85878711.54746  20972404.930                    20972414.645
 115946271.259 7  90347887.823 7  22063864.891                    22063873.652
 120678358.616 7  94035208.046 7  22964335.109                    22964346.117
 11  8 13  0 24 30.0000000  0  9G10G30G09G17G02G27G04G12G05
 110639853.827 8  86212995.15446  21054050.078                    21054059.254
 126491822.396 6  98565059.47244  24070584.586                    24070594.563
 120886597.876 7  94197472.02244  23003971.469                    23003982.148
 119192080.998 7  92876959.873 7  22681479.461                    22681488.805
 108663249.557 8  84672782.11846  20677909.156                    20677915.723
 122629421.250 6  95555491.58544  23335615.070                    23335627.227
 110277283.407 8  85930482.13846  20985047.945                    20985057.094
 115868842.016 8  90287553.382 7  22049130.813                    22049139.430
 120576314.319 7  93955693.116 7  22944916.281                    22944927.574
 11  8 13  0 25  0.0000000  0  9G10G30G09G17G02G27G04G12G05
 110607611.495 8  86187871.27546  21047914.961                    21047923.992
 126387546.660 6  98483805.69643  24050741.250                    24050752.125
 120954071.843 7  94250049.02244  23016812.047                    23016822.781
 119238687.185 7  92913276.352 7  22690348.922                    22690357.996
 108646567.398 8  84659783.04146  20674734.711                    20674741.539
 122686705.493 7  95600128.62644  23346516.156                    23346528.043
 110343976.601 8  85982450.84746  20997739.484                    20997748.695
 115791723.916 7  90227461.385 7  22034455.383                    22034464.281
 120474419.839 7  93876294.926 7  22925527.078                    22925538.031
 11  8 13  0 25 30.0000000  0  9G10G30G09G17G02G27G04G12G05
 110575949.805 8  86163199.85846  21041889.633                    21041899.008
 126283454.220 6  98402694.72843  24030932.563                    24030943.418
 121021873.858 7  94302881.72644  23029713.398                    23029725.602
 119285422.740 7  92949693.650 7  22699242.688                    22699251.609
 108630225.932 8  84647049.44446  20671625.047                    20671631.637
 122744189.772 6  95644921.47444  23357454.703                    23357466.840
 110410922.007 8  86034616.08346  21010478.406                    21010488.156
 115714919.923 8  90167614.161 7  22019840.336                    22019848.621
 120372678.855 7  93797016.338 7  22906166.039                    22906176.531
 11  8 13  0 26  0.0000000  0  9G10G30G09G17G02G27G04G12G05
 110544870.358 8  86138982.12946  21035975.523                    21035984.355
 126179547.426 6  98321728.44343  24011159.938                    24011170.500
 121090000.177 6  94355967.19444  23042677.719                    23042689.801
 119332288.067 7  92986212.069 7  22708160.719                    22708169.609
 108614223.984 8  84634580.40246  20668579.852                    20668586.746
 122801871.194 6  95689867.92444  23368431.406                    23368443.148
 110478117.033 8  86086975.83246  21023265.297                    21023274.648
 115638432.280 7  90108013.436 7  22005285.063                    22005294.023
 120271094.012 7  93717859.430 7  22886834.656                    22886845.414
 11  8 13  0 26 30.0000000  0  9G10G30G09G17G02G27G04G12G05
 110514374.830 8  86115219.40446  21030172.227                    21030181.508
 126075829.301 6  98240909.17643  23991423.500                    23991433.609
 121158447.412 7  94409302.67944  23055703.523                    23055714.727
 119379284.080 7  93022832.326 7  22717102.938                    22717112.914
 108598561.055 8  84622375.54046  20665599.438                    20665605.992
 122859747.332 6  95734966.09244  23379445.211                    23379456.297
 110545559.523 8  86139528.40346  21036099.523                    21036108.168
 115562263.800 7  90048661.406 7  21990790.516                    21990799.211
 120169668.564 7  93638826.704 7  22867534.219                    22867545.172
 11  8 13  0 27  0.0000000  0  9G10G30G09G17G02G27G04G12G05
 110484465.105 8  86091913.15246  21024480.672                    21024489.602
 125972302.818 6  98160239.27143  23971722.602                    23971732.957
 121227212.852 7  94462886.04744  23068788.453                    23068799.746
 119426411.417 7  93059554.911 7  22726071.469                    22726080.844
 108583236.720 8  84610434.51746  20662682.859                    20662689.859
 122917815.915 7  95780214.22444  23390495.383                    23390506.906
 110613247.661 8  86192272.39746  21048980.234                    21048988.914
 115486417.295 8  89989560.267 7  21976357.813                    21976366.191
 120068405.626 7  93559920.623 7  22848264.594                    22848275.586
 11  8 13  0 27 30.0000000  0  9G10G30G09G17G02G27G04G12G05
 110455142.349 7  86069064.28346  21018900.625                    21018909.750
 125868970.173 6  98079720.34743  23952059.727                    23952069.430
 121296292.511 7  94516714.25844  23081934.484                    23081945.438
 119473670.522 7  93096380.172 7  22735064.656                    22735074.180
 108568249.736 8  84598756.36346  20659831.453                    20659838.094
 122976073.608 6  95825609.71244  23401580.953                    23401593.035
 110681178.437 8  86245205.46746  21061906.922                    21061916.250
 115410895.084 8  89930711.810 7  21961986.086                    21961995.129
 119967307.974 7  93481143.340 7  22829025.930                    22829036.957
 11  8 13  0 28  0.0000000  0  9G10G30G09G17G02G27G04G12G05
 110426408.355 8  86046674.19046  21013432.789                    21013441.742
 125765834.503 6  97999354.88643  23932433.180                    23932443.207
 121365683.169 6  94570784.83344  23095138.797                    23095149.922
 119521062.032 7  93133308.583 7  22744082.914                    22744092.293
 108553599.273 8  84587340.43446  20657043.563                    20657049.992
 123034517.956 6  95871150.66544  23412703.141                    23412714.793
 110749349.877 8  86298326.06146  21074879.484                    21074888.430
 115335700.126 8  89872118.345 7  21947676.914                    21947685.652
 119866378.136 7  93402496.819 7  22809819.469                    22809830.352
 11  8 13  0 28 30.0000000  0  9G10G30G09G17G02G27G04G12G05
 110398264.550 8  86024743.97946  21008077.336                    21008086.363
 125662898.415 7  97919144.97443  23912845.203                    23912855.074
 121435381.566 7  94625095.18744  23108402.875                    23108413.555
 119568586.426 7  93170340.554 7  22753126.906                    22753135.773
 108539284.280 8  84576185.91646  20654319.297                    20654325.969
 123093146.030 7  95916834.77444  23423859.453                    23423871.750
 110817759.623 8  86351632.35646  21087897.219                    21087905.996
 115260834.148 8  89813781.248 7  21933430.602                    21933439.148
 119765619.247 7  93323983.500 7  22790645.602                    22790656.125
 11  8 13  0 29  0.0000000  0  9G10G30G09G17G02G27G04G12G05
 110370712.871 8  86003275.16146  21002834.453                    21002843.551
 125560165.043 6  97839092.98143  23893295.859                    23893305.250
 121505384.411 7  94679642.77044  23121723.234                    23121734.438
 119616244.354 7  93207476.578 6  22762195.664                    22762204.828
 108525304.374 8  84565292.48946  20651658.813                    20651665.953
 123151955.393 7  95962660.15444  23435050.922                    23435062.832
 110886405.467 8  86405122.61946  21100960.203                    21100969.164
 115186300.132 8  89755702.803 7  21919246.906                    21919255.762
 119665034.796 7  93245606.105 7  22771505.063                    22771515.996
 11  8 13  0 29 30.0000000  0  9G10G30G09G17G02G27G04G12G05
 110343754.107 8  85982268.35446  20997704.281                    20997713.555
 125457636.787 6  97759200.86343  23873785.094                    23873795.320
 121575688.214 7  94734424.87044  23135101.828                    23135112.844
 119664036.574 7  93244717.253 6  22771290.422                    22771299.109
 108511658.558 8  84554659.40246  20649062.047                    20649068.844
 123210943.030 7  96008624.45344  23446275.945                    23446288.180
 110955284.959 8  86458794.94646  21114067.547                    21114076.715
 115112100.565 8  89697884.972 7  21905127.297                    21905136.453
 119564627.625 7  93167366.852 7  22752398.297                    22752408.930
 11  8 13  0 30  0.0000000  0  9G10G30G09G17G02G27G04G12G05
 110317390.201 8  85961725.07846  20992687.125                    20992696.422
 125355316.785 6  97679471.00743  23854313.875                    23854323.719
 121646289.896 7  94789439.05344  23148537.016                    23148548.094
 119711963.593 7  93282062.949 6  22780410.492                    22780419.938
 108498346.413 8  84544286.30946  20646529.297                    20646535.910
 123270106.627 7  96054725.84044  23457533.930                    23457546.605
 111024396.205 8  86512647.87446  21127218.922                    21127227.668
 115038238.337 8  89640330.001 7  21891071.313                    21891080.773
 119464400.822 7  93089268.143 7  22733325.523                    22733336.109
 11  8 13  0 30 30.0000000  0  9G10G30G09G17G02G27G04G12G05
 110291621.726 8  85941645.77046  20987783.883                    20987792.602
 125253206.902 6  97599904.91143  23834883.164                    23834893.703
 121717185.077 7  94844682.02144  23162028.031                    23162039.164
 119760025.331 7  93319513.620 7  22789556.328                    22789565.258
 108485365.687 8  84534171.46846  20644059.125                    20644065.641
 123329442.634 7  96100961.60244  23468825.859                    23468837.871
 111093735.999 8  86566678.87846  21140413.758                    21140422.730
 114964715.113 7  89583039.190 7  21877080.742                    21877089.445
 119364356.548 7  93011311.663 7  22714287.813                    22714298.316
 11  8 13  0 31  0.0000000  0  9G10G30G09G17G02G27G04G12G05
 110266451.685 8  85922032.77946  20982993.891                    20983003.113
 125151311.219 6  97520505.71643  23815492.070                    23815503.520
 121788371.677 7  94900152.04444  23175574.414                    23175585.449
 119808223.494 7  93357070.579 7  22798728.219                    22798737.258
 108472717.074 8  84524315.40746  20641651.984                    20641658.738
 123388949.379 7  96147330.41144  23480149.789                    23480161.836
 111163303.093 8  86620887.00346  21153652.164                    21153661.266
 114891534.552 8  89526015.376 7  21863155.141                    21863163.891
 119264498.669 7  92933500.424 7  22695285.430                    22695295.891
 11  8 13  0 31 30.0000000  0  9G10G30G09G17G02G27G04G12G05
 110241880.945 8  85902886.77146  20978318.484                    20978327.086
 125049631.978 6  97441275.23843  23796143.352                    23796154.637
 121859845.812 7  94955846.12644  23189175.672                    23189186.910
 119856558.183 7  93394733.933 6  22807926.094                    22807935.340
 108460399.086 8  84514716.99046  20639308.055                    20639314.316
 123448623.663 7  96193829.75544  23491505.555                    23491517.426
 111233095.080 8  86675270.36946  21166933.172                    21166942.172
 114818698.825 8  89469260.266 7  21849295.070                    21849303.762
 119164829.770 7  92855836.430 7  22676319.539                    22676329.340
 11  8 13  0 32  0.0000000  0  9G10G30G09G17G02G27G04G12G05
 110217910.317 8  85884208.38246  20973756.664                    20973765.957
 124948171.790 6  97362215.43043  23776836.375                    23776847.598
 121931604.070 7  95011761.57744  23202830.969                    23202841.879
 119905029.885 7  93432504.050 7  22817149.672                    22817158.941
 108448411.036 8  84505375.66246  20637026.570                    20637032.957
 123508462.246 7  96240457.10444  23502892.195                    23502905.078
 111303109.128 8  86729826.76746  21180256.063                    21180265.191
 114746210.225 7  89412775.653 7  21835500.617                    21835509.508
 119065352.925 7  92778322.091 7  22657389.344                    22657399.410
 11  8 13  0 32 30.0000000  0  9G10G30G09G17G02G27G04G12G05
 110194541.882 8  85865999.23846  20969309.992                    20969319.098
 124846934.002 6  97283328.92243  23757571.711                    23757582.484
 122003643.384 7  95067896.06144  23216539.211                    23216550.457
 119953639.639 7  93470381.733 7  22826400.023                    22826409.195
 108436751.961 8  84496290.67846  20634807.906                    20634814.609
 123568463.158 7  96287210.97543  23514310.477                    23514321.836
 111373343.595 8  86784554.92046  21193621.359                    21193630.828
 114674071.959 7  89356564.029 7  21821773.180                    21821781.992
 118966071.500 7  92700960.033 7  22638496.531                    22638506.543
 11  8 13  0 33  0.0000000  0  9G10G30G09G17G02G27G04G12G05
 110171777.286 8  85848260.62146  20964977.695                    20964987.484
 124745921.742 6  97204618.12844  23738349.531                    23738360.168
 122075960.490 7  95124246.98044  23230301.086                    23230312.000
 120002388.262 7  93508367.628 7  22835677.531                    22835686.063
 108425421.663 8  84487461.88946  20632651.578                    20632658.277
 123628623.967 7  96334089.41243  23525758.641                    23525770.258
 111443796.778 8  86839453.49946  21207028.164                    21207037.266
 114602286.844 8  89300627.580 7  21808113.008                    21808121.906
 118866988.890 7  92623752.892 7  22619641.297                    22619652.000
 11  8 13  0 33 30.0000000  0  9G10G30G09G17G02G27G04G12G05
 110149617.105 8  85830992.97346  20960761.492                    20960769.938
 124645137.189 7  97126084.77444  23719171.266                    23719181.633
 122148551.550 6  95180811.37644  23244114.383                    23244125.098
 120051275.766 7  93546461.757 6  22844979.695                    22844988.672
 108414418.679 8  84478888.15246  20630558.039                    20630564.527
 123688941.298 6  96381089.84143  23537236.258                    23537248.742
 111514465.582 7  86894520.09846  21220475.938                    21220485.320
 114530856.627 8  89244967.687 7  21794520.203                    21794529.051
 118768107.262 7  92546702.373 7  22600824.922                    22600835.391
 11  8 13  0 34  0.0000000  0  9G10G30G09G17G02G27G04G12G05
 110128062.898 8  85814197.51046  20956659.625                    20956668.539
 124544583.187 7  97047731.03244  23700036.523                    23700046.000
 122221413.275 6  95237586.69044  23257980.008                    23257990.957
 120100302.794 7  93584664.620 7  22854309.297                    22854318.246
 108403742.003 8  84470568.68746  20628526.234                    20628533.141
 123749412.437 6  96428210.13643  23548743.617                    23548755.836
 111585347.784 8  86949752.97045  21233964.570                    21233974.023
 114459783.812 8  89189586.282 7  21780995.609                    21781004.031
 118669429.547 7  92469810.716 7  22582047.461                    22582057.516
 11  8 13  0 34 30.0000000  0  9G10G30G09G17G02G27G04G12G05
 110107115.180 8  85797874.63446  20952673.016                    20952682.258
 124444262.296 7  96969558.93644  23680945.531                    23680955.961
 122294541.683 7  95294569.79244  23271895.852                    23271906.637
 120149469.588 7  93622976.413 7  22863665.273                    22863674.418
 108393390.289 8  84462502.43146  20626556.352                    20626563.250
 123810034.364 6  96475447.89543  23560280.547                    23560292.082
 111656440.959 8  87005150.24146  21247493.359                    21247502.297
 114389070.860 8  89134485.291 7  21767539.445                    21767548.203
 118570958.536 7  92393080.148 7  22563309.023                    22563318.738
 11  8 13  0 35  0.0000000  0 10G10G30G09G17G25G02G27G04G12G05
 110086775.626 8  85782025.63946  20948802.727                    20948811.762
 124344177.497 7  96891570.81443  23661901.055                    23661910.289
 122367933.921 7  95351758.45744  23285861.484                    23285872.824
 120198776.934 7  93661397.708 7  22873048.711                    22873057.914
 129534556.53216 100936140.16516  24649631.805                    24649644.617
 108383362.931 8  84454688.91646  20624648.172                    20624654.883
 123870804.614 7  96522801.25143  23571844.406                    23571856.176
 111727743.111 8  87060710.33946  21261061.641                    21261071.023
 114318720.306 8  89079666.686 7  21754152.359                    21754161.023
 118472697.819 7  92316513.441 7  22544610.203                    22544620.391
 11  8 13  0 35 30.0000000  0 10G10G30G09G17G25G02G27G04G12G05
 110067044.344 8  85766650.63346  20945048.094                    20945056.914
 124244330.555 7  96813767.99643  23642900.250                    23642910.293
 122441585.576 7  95409149.28144  23299876.742                    23299888.387
 120248224.425 7  93699928.185 6  22882457.656                    22882466.785
 129431305.131 6 100855684.565 6  24629983.422                    24629996.379
 108373657.949 8  84447126.60346  20622801.633                    20622808.316
 123931719.130 7  96570267.05043  23583436.086                    23583447.832
 111799250.882 8  87116430.67746  21274668.523                    21274678.082
 114248733.622 8  89025131.613 7  21740833.664                    21740842.781
 118374648.673 7  92240111.576 7  22525951.766                    22525962.340
 11  8 13  0 36  0.0000000  0 10G10G30G09G17G25G02G27G04G12G05
 110047923.160 8  85751751.02346  20941409.336                    20941418.254
 124144725.096 6  96736153.38843  23623945.617                    23623955.273
 122515493.910 6  95466740.11244  23313941.078                    23313952.793
 120297813.432 7  93738568.964 6  22891894.430                    22891903.500
 129328160.314 6 100775312.055 6  24610355.234                    24610368.094
 108364275.169 8  84439815.36346  20621016.078                    20621022.723
 123992776.026 6  96617843.77643  23595054.609                    23595066.730
 111870962.837 8  87172310.10146  21288315.117                    21288324.133
 114179114.210 7  88970882.726 7  21727586.203                    21727594.430
 118276815.181 7  92163877.759 7  22507334.773                    22507345.473
 11  8 13  0 36 30.0000000  0 10G10G30G09G17G25G02G27G04G12G05
 110029414.114 8  85737328.39946  20937887.219                    20937895.934
 124045364.498 6  96658729.57843  23605037.992                    23605048.039
 122589655.868 6  95524528.55744  23328054.320                    23328065.605
 120347545.165 7  93777320.948 7  22901357.914                    22901367.781
 129225125.046 6 100695024.869 6  24590748.695                    24590760.875
 108355214.267 8  84432754.94146  20619291.672                    20619298.438
 124053973.049 6  96665529.68043  23606700.344                    23606712.469
 111942877.335 8  87228347.35145  21302000.063                    21302009.680
 114109865.029 8  88916922.330 7  21714408.453                    21714417.102
 118179200.856 7  92087814.719 7  22488759.563                    22488769.910
 11  8 13  0 37  0.0000000  0 10G10G30G09G17G25G02G27G04G12G05
 110011518.225 8  85723383.56846  20934481.461                    20934490.199
 123946251.562 6  96581498.74743  23586177.211                    23586187.152
 122664068.172 6  95582512.10544  23342214.328                    23342225.746
 120397419.955 7  93816184.396 7  22910849.211                    22910858.051
 129122201.761 6 100614824.945 6  24571162.906                    24571174.980
 108346474.175 8  84425944.49546  20617628.664                    20617635.273
 124115307.454 6  96713322.62943  23618371.641                    23618384.039
 112014992.085 8  87284540.64246  21315723.250                    21315732.531
 114040988.658 7  88863252.447 7  21701301.586                    21701309.949
 118081808.547 7  92011924.669 7  22470226.195                    22470236.824
 11  8 13  0 37 30.0000000  0 10G10G30G09G17G25G02G27G04G12G05
 109994236.311 8  85709917.15446  20931192.727                    20931201.859
 123847389.269 6  96504463.25243  23567364.531                    23567374.539
 122738727.449 7  95640688.08844  23356421.797                    23356433.336
 120447438.346 7  93855159.759 6  22920367.203                    22920376.332
 129019393.037 6 100534714.293 6  24551598.500                    24551611.594
 108338054.200 8  84419383.49346  20616026.227                    20616032.801
 124176776.628 6  96761220.62544  23630069.031                    23630081.316
 112087305.141 8  87340888.46445  21329483.844                    21329492.949
 113972487.542 8  88809874.954 7  21688265.852                    21688275.141
 117984641.401 7  91936210.090 7  22451736.195                    22451746.219
 11  8 13  0 38  0.0000000  0 10G10G30G09G17G25G02G27G04G12G05
 109977569.322 8  85696929.90546  20928021.102                    20928030.105
 123748780.111 6  96427624.99743  23548599.578                    23548610.211
 122813630.017 7  95699053.64144  23370674.875                    23370686.824
 120497601.362 7  93894247.813 6  22929912.773                    22929922.418
 128916701.056 6 100454694.635 6  24532057.070                    24532070.359
 108329952.975 8  84413070.86146  20614484.875                    20614491.262
 124238377.472 6  96809221.21743  23641791.531                    23641803.906
 112159813.900 8  87397388.77445  21343282.063                    21343291.012
 113904363.799 8  88756791.532 7  21675302.438                    21675311.270
 117887702.041 7  91860673.000 7  22433288.656                    22433298.410
 11  8 13  0 38 30.0000000  0 10G10G30G09G17G25G02G27G04G12G05
 109961518.147 8  85684422.50646  20924966.867                    20924976.184
 123650427.089 6  96350986.35743  23529883.789                    23529894.109
 122888772.508 7  95757606.15244  23384974.797                    23384986.281
 120547908.966 7  93933448.553 6  22939486.383                    22939495.367
 128814128.468 6 100374767.982 6  24512538.805                    24512551.109
 108322169.735 8  84407006.00646  20613003.820                    20613010.129
 124300107.324 6  96857322.31543  23653538.633                    23653550.797
 112232516.361 8  87454040.01845  21357116.805                    21357125.984
 113836620.366 8  88704004.437 7  21662411.570                    21662420.254
 117790993.574 7  91785315.830 7  22414885.375                    22414895.930
 11  8 13  0 39  0.0000000  0 10G10G30G09G17G25G02G27G04G12G05
 109946083.912 8  85672395.85046  20922029.297                    20922038.836
 123552332.935 6  96274549.42844  23511216.367                    23511227.172
 122964151.759 7  95816343.12844  23399318.633                    23399330.664
 120598361.938 7  93972762.558 7  22949087.016                    22949096.332
 128711677.857 6 100294936.362 6  24493042.891                    24493055.313
 108314703.519 8  84401188.18746  20611582.781                    20611589.598
 124361963.465 6  96905521.77444  23665308.719                    23665321.766
 112305410.341 8  87510840.49345  21370987.945                    21370997.344
 113769259.654 8  88651515.584 7  21649593.125                    21649602.148
 117694519.136 7  91710141.013 7  22396527.234                    22396537.316
 11  8 13  0 39 30.0000000  0 10G10G30G09G17G25G02G27G04G12G05
 109931267.363 8  85660850.50446  20919210.531                    20919219.398
 123454500.493 6  96198316.42844  23492600.133                    23492609.859
 123039763.764 7  95875261.47544  23413707.414                    23413719.449
 120648961.040 7  94012190.421 6  22958715.844                    22958724.992
 128609351.514 6 100215201.586 6  24473570.906                    24473583.191
 108307553.121 8  84395616.45546  20610222.078                    20610228.586
 124423942.934 6  96953817.35544  23677104.352                    23677116.191
 112378493.472 7  87567788.34445  21384895.609                    21384904.688
 113702284.083 8  88599326.841 7  21636848.047                    21636856.926
 117598281.308 7  91635150.576 7  22378213.781                    22378223.980
 11  8 13  0 40  0.0000000  0 10G10G30G09G17G25G02G27G04G12G05
 109917069.643 8  85649787.36246  20916508.250                    20916517.574
 123356932.532 6  96122289.51543  23474033.133                    23474043.563
 123115605.379 7  95934358.74844  23428139.297                    23428150.754
 120699706.660 6  94051732.462 6  22968372.086                    22968381.109
 128507151.955 6 100135565.612 6  24454122.766                    24454135.043
 108300717.723 8  84390290.16846  20608921.484                    20608928.133
 124486043.142 7  97002207.03544  23688920.977                    23688933.383
 112451763.768 8  87624882.04845  21398838.164                    21398847.445
 113635696.037 8  88547440.074 7  21624176.852                    21624186.203
 117502283.146 7  91560346.896 7  22359946.109                    22359956.082
 11  8 13  0 40 30.0000000  0 10G10G30G09G17G25G02G27G04G12G05
 109903491.821 8  85639207.27146  20913924.625                    20913933.473
 123259632.038 7  96046470.99744  23455517.727                    23455527.344
 123191673.578 7  95993632.58544  23442614.352                    23442626.348
 120750598.967 7  94091388.788 6  22978056.531                    22978066.250
 128405081.929 6 100056030.585 6  24434698.742                    24434711.945
 108294196.260 8  84385208.50746  20607680.547                    20607686.996
 124548261.511 6  97050688.79044  23700760.594                    23700772.801
 112525219.243 8  87682120.04945  21412816.250                    21412825.570
 113569497.735 8  88495857.002 7  21611579.750                    21611588.090
 117406527.941 7  91485732.517 7  22341723.750                    22341734.266
 11  8 13  0 41  0.0000000  0 10G10G30G09G17G25G02G27G04G12G05
 109890534.581 8  85629110.73546  20911459.336                    20911468.070
 123162601.703 6  95970862.99144  23437053.844                    23437063.289
 123267964.358 7  96053079.83844  23457132.633                    23457143.910
 120801638.979 7  94131160.236 6  22987769.070                    22987778.102
 128303143.615 7  99976598.171 6  24415300.711                    24415313.902
 108287987.527 8  84380370.53146  20606499.016                    20606505.508
 124610594.843 6  97099260.11443  23712622.148                    23712634.898
 112598857.266 8  87739500.29445  21426829.047                    21426838.496
 113503691.752 8  88444579.641 7  21599057.070                    21599065.805
 117311018.393 7  91411309.554 7  22323549.367                    22323559.551
 11  8 13  0 41 30.0000000  0 10G10G30G09G17G25G02G27G04G12G05
 109878198.948 8  85619498.57346  20909111.602                    20909120.309
 123065844.367 7  95895467.67444  23418641.352                    23418651.355
 123344474.632 7  96112698.14744  23471692.008                    23471703.867
 120852827.191 7  94171047.121 6  22997509.984                    22997518.648
 128201339.686 7  99897270.467 6  24395928.641                    24395940.719
 108282090.673 8  84375775.57946  20605377.000                    20605383.398
 124673040.565 6  97147919.00744  23724506.047                    23724518.391
 112672676.028 8  87797021.36545  21440876.594                    21440886.070
 113438280.600 8  88393609.953 7  21586609.766                    21586618.266
 117215757.343 7  91337080.237 7  22305421.227                    22305432.063
 11  8 13  0 42  0.0000000  0 10G10G30G09G17G25G02G27G04G12G05
 109866485.357 8  85610371.12046  20906882.523                    20906891.441
 122969362.850 7  95820287.29944  23400281.289                    23400291.453
 123421200.829 6  96172484.73844  23486292.742                    23486304.590
 120904164.098 7  94211049.889 6  23007279.391                    23007288.113
 128099672.555 7  99818049.376 6  24376581.828                    24376594.934
 108276504.510 8  84371422.72646  20604313.859                    20604320.184
 124735595.721 6  97196663.14844  23736410.234                    23736422.156
 112746673.084 8  87854681.37945  21454957.961                    21454967.113
 113373266.687 8  88342949.790 7  21574237.875                    21574246.594
 117120747.952 7  91263047.009 7  22287342.125                    22287352.371
 11  8 13  0 42 30.0000000  0 10G10G30G09G17G25G02G27G04G12G05
 109855394.698 8  85601729.07446  20904771.891                    20904781.039
 122873160.143 6  95745324.17644  23381974.445                    23381984.570
 123498139.629 6  96232436.99044  23500933.773                    23500945.492
 120955650.252 7  94251168.952 6  23017076.969                    23017085.855
 127998144.899 7  99738936.971 6  24357261.320                    24357274.117
 108271228.427 8  84367311.49646  20603309.898                    20603316.254
 124798257.677 6  97245490.53743  23748332.742                    23748346.250
 112820846.699 8  87912478.96245  21469072.188                    21469082.035
 113308652.978 8  88292601.487 7  21561942.203                    21561951.113
 117025993.179 7  91189212.181 7  22269310.273                    22269320.727
 11  8 13  0 43  0.0000000  0 10G10G30G09G17G25G02G27G04G12G05
 109844927.846 8  85593573.10346  20902780.281                    20902789.207
 122777239.019 6  95670580.45744  23363721.461                    23363731.422
 123575287.567 7  96292552.19344  23515614.805                    23515626.051
 121007286.458 7  94291404.910 6  23026903.102                    23026912.402
 127896759.224 6  99659935.170 7  24337968.508                    24337981.602
 108266261.164 8  84363440.91246  20602364.695                    20602371.188
 124861023.777 6  97294399.07243  23760277.859                    23760290.199
 112895194.621 8  87970412.37745  21483220.641                    21483229.797
 113244440.861 8  88242566.110 7  21549723.133                    21549731.695
 116931495.699 7  91115577.860 7  22251328.016                    22251338.195
 11  8 13  0 43 30.0000000  0 10G10G30G09G17G25G02G27G04G12G05
 109835085.261 8  85585903.57646  20900907.766                    20900916.414
 122681602.367 7  95596058.41444  23345522.617                    23345532.684
 123652641.154 7  96352827.64244  23530334.875                    23530346.176
 121059073.147 7  94331758.133 6  23036757.898                    23036766.918
 127795518.089 6  99581046.004 6  24318703.180                    24318715.523
 108261601.912 8  84359810.33546  20601477.633                    20601484.387
 124923891.269 6  97343386.63343  23772240.688                    23772253.828
 112969714.761 8  88028479.97845  21497401.117                    21497410.246
 113180633.456 8  88192846.092 7  21537581.305                    21537589.617
 116837258.499 7  91042146.330 7  22233395.594                    22233405.578
 11  8 13  0 44  0.0000000  0 10G10G30G09G17G25G02G27G04G12G05
 109825868.105 8  85578721.39146  20899153.023                    20899161.883
 122586253.282 6  95521760.43144  23327377.820                    23327388.328
 123730197.398 6  96413261.01144  23545092.891                    23545105.035
 121111011.043 7  94372229.181 6  23046641.406                    23046650.148
 127694424.320 6  99502271.702 6  24299464.828                    24299477.938
 108257250.011 8  84356419.25846  20600649.773                    20600656.270
 124986857.529 6  97392451.17343  23784224.008                    23784236.055
 113044405.166 8  88086680.26645  21511614.711                    21511623.777
 113117233.355 8  88143443.451 7  21525516.344                    21525524.770
 116743285.124 7  90968920.398 7  22215513.039                    22215522.988
 11  8 13  0 44 30.0000000  0 10G10G30G09G17G25G02G27G04G12G05
 109817276.892 8  85572026.95246  20897518.711                    20897527.781
 122491194.145 6  95447688.37344  23309289.547                    23309298.883
 123807952.401 6  96473849.28544  23559888.805                    23559901.086
 121163100.366 7  94412818.209 7  23056553.414                    23056562.949
 127593480.036 6  99423613.847 6  24280256.000                    24280269.156
 108253203.587 8  84353266.20546  20599879.742                    20599886.074
 125049919.327 6  97441590.11243  23796224.000                    23796236.426
 113119263.540 8  88145011.43245  21525859.461                    21525868.926
 113054242.370 8  88094359.611 7  21513529.297                    21513537.828
 116649577.798 7  90895901.776 7  22197681.109                    22197690.984
 11  8 13  0 45  0.0000000  0 10G10G30G09G17G25G02G27G04G12G05
 109809312.260 8  85565820.76946  20896002.742                    20896011.516
 122396427.983 6  95373844.62444  23291256.172                    23291265.059
 123885902.974 6  96534589.91544  23574722.555                    23574734.469
 121215341.686 7  94453525.668 6  23066494.438                    23066503.645
 127492687.952 6  99345074.583 6  24261076.398                    24261088.453
 108249461.784 8  84350350.51746  20599167.531                    20599174.211
 125113074.109 6  97490801.53543  23808241.578                    23808254.207
 113194287.642 8  88203471.73745  21540135.969                    21540145.141
 112991663.077 7  88045596.561 7  21501620.867                    21501629.488
 116556139.881 7  90823093.079 7  22179899.883                    22179910.305
 11  8 13  0 45 30.0000000  0 10G10G30G09G17G25G02G27G04G12G05
 109801974.762 8  85560103.24946  20894606.484                    20894615.582
 122301957.787 6  95300231.49844  23273278.242                    23273288.164
 123964045.479 7  96595480.09544  23589593.344                    23589604.863
 121267735.751 7  94494352.169 7  23076464.008                    23076474.574
 127392050.619 6  99266655.888 6  24241925.789                    24241938.059
 108246023.900 8  84347671.64846  20598513.297                    20598519.742
 125176319.245 6  97540083.36843  23820277.344                    23820288.918
 113269475.853 8  88262059.92445  21554444.031                    21554453.207
 112929498.236 7  87997156.460 7  21489791.484                    21489800.098
 116462974.263 7  90750496.572 7  22162171.438                    22162181.324
 11  8 13  0 46  0.0000000  0 10G10G30G09G17G25G02G27G04G12G05
 109795264.798 8  85554874.72746  20893329.445                    20893338.543
 122207786.044 6  95226850.93743  23255357.828                    23255367.551
 124042376.478 7  96656517.17643  23604499.023                    23604510.289
 121320282.799 7  94535297.850 7  23086463.930                    23086473.898
 127291570.551 6  99188359.711 6  24222804.672                    24222817.164
 108242888.488 7  84345228.48746  20597916.383                    20597923.512
 125239651.436 6  97589433.04043  23832329.055                    23832341.133
 113344825.500 8  88320773.90445  21568782.602                    21568791.965
 112867749.531 7  87949040.618 7  21478041.320                    21478049.777
 116370083.489 7  90678114.228 7  22144494.492                    22144504.379
 11  8 13  0 46 30.0000000  0 10G10G30G09G17G25G02G27G04G12G05
 109789183.177 8  85550135.80646  20892172.250                    20892181.305
 122113915.861 6  95153705.36844  23237495.102                    23237505.328
 124120892.491 7  96717698.40944  23619439.648                    23619451.438
 121372983.961 7  94576363.631 6  23096493.281                    23096502.504
 127191250.382 7  99110188.165 6  24203714.703                    24203726.832
 108240054.651 8  84343020.31746  20597377.680                    20597384.418
 125303068.472 6  97638848.81043  23844396.820                    23844409.160
 113420334.875 8  88379612.36045  21583151.586                    21583161.023
 112806419.620 7  87901251.097 7  21466370.336                    21466378.824
 116277470.658 7  90605948.452 7  22126871.000                    22126880.715
 11  8 13  0 47  0.0000000  0 10G10G30G09G17G25G02G27G04G12G05
 109783730.370 7  85545886.88446  20891134.914                    20891143.953
 122020350.156 6  95080797.09044  23219689.766                    23219700.215
 124199590.407 7  96779021.33744  23634416.125                    23634427.406
 121425839.523 7  94617549.715 6  23106550.539                    23106559.996
 127091092.887 7  99032143.339 6  24184655.391                    24184667.285
 108237521.521 7  84341046.45946  20596895.414                    20596901.582
 125366567.589 6  97688328.54143  23856481.078                    23856492.492
 113496002.077 8  88438573.78445  21597550.797                    21597559.902
 112745511.428 7  87853790.180 7  21454779.867                    21454788.375
 116185138.904 7  90534001.710 7  22109300.867                    22109310.570
 11  8 13  0 47 30.0000000  0 10G10G30G09G17G25G02G27G04G12G05
 109778906.763 7  85542128.23946  20890216.906                    20890225.867
 121927091.559 6  95008128.09344  23201943.766                    23201953.816
 124278466.830 7  96840483.39144  23649425.688                    23649437.113
 121478849.775 7  94658856.366 6  23116638.523                    23116647.949
 126991100.381 7  98954227.138 6  24165626.672                    24165639.820
 108235287.709 8  84339305.83946  20596470.328                    20596477.012
 125430145.744 6  97737869.86143  23868579.500                    23868591.496
 113571824.710 8  88497656.32245  21611979.320                    21611988.730
 112685026.433 7  87806659.024 7  21443270.391                    21443278.492
 116093090.760 7  90462275.940 7  22091784.539                    22091794.695
 11  8 13  0 48  0.0000000  0 10G10G30G09G17G25G02G27G04G12G05
 109774712.805 8  85538860.22046  20889418.758                    20889427.617
 121834143.052 6  94935700.73544  23184256.250                    23184265.992
 124357518.113 7  96902081.65344  23664468.813                    23664480.754
 121532015.180 7  94700283.895 6  23126755.984                    23126765.320
 126891275.604 7  98876441.632 6  24146630.648                    24146643.359
 108233352.360 8  84337797.76646  20596101.953                    20596108.598
 125493800.322 6  97787470.72843  23880691.859                    23880705.059
 113647800.723 8  88556858.38445  21626436.664                    21626446.270
 112624967.472 7  87759859.845 7  21431841.039                    21431849.566
 116001329.495 7  90390773.734 7  22074323.148                    22074332.836
 11  8 13  0 48 30.0000000  0 10G10G30G09G17G25G02G27G04G12G05
 109771149.024 7  85536083.24846  20888740.273                    20888749.793
 121741507.447 7  94863517.19144  23166627.953                    23166638.012
 124436740.919 7  96963813.59944  23679544.391                    23679556.559
 121585336.715 7  94741833.091 6  23136902.648                    23136911.867
 126791621.164 6  98798788.866 6  24127666.898                    24127680.066
 108231714.415 8  84336521.44346  20595790.359                    20595797.266
 125557528.713 6  97837129.10343  23892819.125                    23892832.391
 113723928.406 8  88616178.62645  21640923.781                    21640933.195
 112565336.799 7  87713394.399 7  21420493.711                    21420502.191
 115909857.863 7  90319497.205 7  22056915.992                    22056926.402
 11  8 13  0 49  0.0000000  0 10G10G30G09G17G25G02G27G04G12G05
 109768215.627 8  85533797.48346  20888182.281                    20888191.332
 121649187.360 7  94791579.50544  23149059.594                    23149069.746
 124516131.804 7  97025676.50244  23694652.117                    23694664.734
 121638814.572 7  94783504.106 7  23147078.469                    23147088.641
 126692139.356 6  98721270.637 6  24108735.938                    24108749.508
 108230372.457 8  84335475.76646  20595535.070                    20595541.680
 125621327.908 6  97886842.69243  23904959.438                    23904972.277
 113800205.351 8  88675615.17145  21655438.156                    21655447.551
 112506136.404 8  87667264.228 7  21409228.398                    21409236.887
 115818678.620 7  90248448.522 7  22039565.180                    22039575.203
 11  8 13  0 49 30.0000000  0 10G10G30G09G17G25G02G27G04G12G05
 109765913.203 8  85532003.39246  20887743.961                    20887753.320
 121557185.904 7  94719890.09744  23131552.891                    23131562.531
 124595687.595 7  97087667.91944  23709791.297                    23709803.641
 121692449.600 7  94825297.581 6  23157285.516                    23157295.211
 126592833.133 6  98643889.236 7  24089838.719                    24089852.316
 108229325.994 8  84334660.35346  20595336.000                    20595342.332
 125685195.342 6  97936609.40043  23917113.328                    23917126.617
 113876629.782 8  88735166.64445  21669981.906                    21669991.348
 112447368.997 7  87621471.453 7  21398045.375                    21398053.941
 115727794.971 7  90177630.162 7  22022270.773                    22022280.984
 11  8 13  0 50  0.0000000  0 10G10G30G09G17G25G02G27G04G12G05
 109764242.055 8  85530701.20246  20887426.031                    20887435.320
 121465505.860 6  94648451.14044  23114106.102                    23114116.496
 124675404.501 6  97149784.86944  23724960.828                    23724973.168
 121746242.035 7  94867213.744 6  23167522.305                    23167531.164
 126493705.001 7  98566646.598 7  24070975.055                    24070988.887
 108228573.542 7  84334074.04246  20595192.594                    20595199.133
 125749128.007 6  97986426.95943  23929279.055                    23929292.906
 113953199.785 7  88794831.56645  21684552.414                    21684561.730
 112389036.844 7  87576017.826 7  21386945.422                    21386953.680
 115637209.597 7  90107044.230 7  22005033.367                    22005042.984
 11  8 13  0 50 30.0000000  0 10G10G30G09G17G25G02G27G04G12G05
 109763202.629 8  85529891.26546  20887228.102                    20887237.453
 121374150.015 7  94577264.82544  23096722.094                    23096731.957
 124755279.330 7  97212024.88144  23740160.430                    23740173.457
 121800192.494 7  94909253.056 7  23177788.219                    23177797.887
 126394757.578 7  98489544.741 7  24052146.391                    24052159.895
 108228113.915 8  84333715.90046  20595105.555                    20595112.305
 125813123.261 6  98036293.25143  23941457.539                    23941470.723
 114029913.167 8  88854608.19445  21699150.445                    21699160.012
 112331141.982 7  87530904.962 7  21375928.180                    21375936.219
 115546925.397 7  90036692.969 7  21987853.023                    21987862.348
 11  8 13  0 51  0.0000000  0 10G10G30G09G17G25G02G27G04G12G05
 109762795.091 7  85529573.70646  20887150.703                    20887159.504
 121283121.232 7  94506333.34544  23079399.617                    23079409.699
 124835308.756 7  97274385.33544  23755390.211                    23755401.805
 121854301.537 7  94951415.924 6  23188084.547                    23188094.371
 126295993.524 7  98412585.781 7  24033352.242                    24033365.801
 108227946.289 8  84333585.29746  20595073.313                    20595080.059
 125877178.497 6  98086206.30943  23953646.563                    23953659.645
 114106768.123 8  88914495.14245  21713775.492                    21713785.215
 112273687.028 7  87486134.874 7  21364994.656                    21365002.973
 115456945.259 7  89966578.657 7  21970729.789                    21970739.445
 11  8 13  0 51 30.0000000  0 10G10G30G09G17G25G02G27G04G12G05
 109763019.271 8  85529748.39446  20887193.281                    20887202.297
 121192422.157 7  94435658.78544  23062140.133                    23062150.180
 124915489.223 7  97336863.51644  23770647.367                    23770659.863
 121908569.637 7  94993702.745 6  23198411.781                    23198421.234
 126197415.311 7  98335771.599 6  24014593.742                    24014606.379
 108228069.278 8  84333681.15047  20595096.789                    20595103.422
 125941290.761 6  98136163.79443  23965847.469                    23965860.602
 114183762.328 8  88974490.59545  21728427.008                    21728436.461
 112216673.967 7  87441709.118 7  21354145.406                    21354154.207
 115367271.928 7  89896703.413 7  21953665.516                    21953675.762
 11  8 13  0 52  0.0000000  0 10G10G30G09G17G25G02G27G04G12G05
 109763875.781 8  85530415.81146  20887356.453                    20887365.508
 121102055.577 6  94365243.30444  23044943.586                    23044953.988
 124995817.351 6  97399456.75344  23785934.086                    23785945.914
 121962997.080 7  95036113.740 6  23208768.797                    23208778.590
 126099025.492 7  98259104.213 6  23995870.602                    23995883.117
 108228482.072 8  84334002.82246  20595174.602                    20595181.777
 126005457.323 6  98186163.57943  23978057.828                    23978070.945
 114260894.068 8  89034593.21245  21743104.609                    21743114.547
 112160104.978 7  87397629.397 7  21343380.672                    21343389.352
 115277908.656 7  89827069.765 7  21936659.938                    21936669.961
 11  8 13  0 52 30.0000000  0 10G10G30G09G17G25G02G27G04G12G05
 109765364.881 7  85531576.15646  20887639.227                    20887648.652
 121012024.445 7  94295089.20944  23027811.688                    23027821.613
 125076289.485 6  97462162.19944  23801247.164                    23801259.688
 122017584.384 7  95078649.283 6  23219156.555                    23219166.223
 126000826.821 7  98182585.764 6  23977184.297                    23977197.020
 108229183.237 8  84334549.20746  20595308.836                    20595315.305
 126069675.406 6  98236203.52343  23990277.398                    23990291.684
 114338161.052 8  89094801.20745  21757808.180                    21757817.664
 112103982.388 7  87353897.512 7  21332701.320                    21332709.352
 115188857.740 7  89757679.519 7  21919714.266                    21919724.129
 11  8 13  0 53  0.0000000  0 10G10G30G09G17G25G02G27G04G12G05
 109767486.338 8  85533229.25046  20888043.188                    20888052.109
 120922331.230 7  94225198.40144  23010743.586                    23010752.797
 125156902.432 7  97524977.37044  23816587.469                    23816599.914
 122072332.323 7  95121310.000 6  23229574.711                    23229584.395
 125902821.646 7  98106218.099 6  23958534.273                    23958546.613
 108230171.523 7  84335319.30946  20595496.633                    20595503.313
 126133942.026 6  98286281.29643  24002507.383                    24002521.090
 114415561.342 8  89155113.07945  21772537.063                    21772546.531
 112048308.214 8  87310515.042 7  21322106.406                    21322115.285
 115100121.849 7  89688534.749 7  21902828.352                    21902838.184
 11  8 13  0 53 30.0000000  0 10G10G30G09G17G25G02G27G04G12G05
 109770240.991 7  85535375.74246  20888567.672                    20888576.711
 120832979.462 6  94155573.66744  22993739.688                    22993750.391
 125237653.272 6  97587900.02744  23831953.469                    23831966.441
 122127241.402 7  95164096.263 6  23240024.047                    23240032.945
 125805013.121 7  98030003.687 6  23939921.820                    23939934.332
 108231446.270 8  84336312.63746  20595739.211                    20595745.918
 126198255.009 6  98336395.18743  24014746.359                    24014760.016
 114493093.460 8  89215527.67945  21787291.148                    21787300.387
 111993085.585 8  87267484.425 7  21311598.031                    21311606.648
 115011704.671 7  89619638.323 7  21886002.789                    21886012.773
 11  8 13  0 54  0.0000000  0 10G10G30G09G17G25G02G27G04G12G05
 109773628.594 7  85538015.44046  20889212.414                    20889221.418
 120743971.666 6  94086216.95844  22976802.797                    22976812.273
 125318538.421 7  97650927.35044  23847346.352                    23847358.117
 122182312.138 7  95207008.530 6  23250503.250                    23250513.125
 125707403.852 7  97953944.564 6  23921347.430                    23921359.762
 108233006.347 8  84337528.28946  20596036.406                    20596042.547
 126262611.464 6  98386542.94543  24026993.367                    24027006.215
 114570755.326 8  89276043.39345  21802069.453                    21802079.254
 111938316.132 8  87224806.926 7  21301175.766                    21301184.227
 114923608.798 7  89550992.262 7  21869238.531                    21869248.652
 11  8 13  0 54 30.0000000  0 10G10G30G09G17G25G02G27G04G12G05
 109777649.101 7  85541148.32646  20889977.258                    20889986.438
 120655310.548 6  94017130.39244  22959930.750                    22959940.613
 125399554.398 6  97714056.59544  23862762.344                    23862775.172
 122237545.104 7  95250047.168 6  23261014.227                    23261023.066
 125609996.311 7  97878042.606 6  23902810.945                    23902823.527
 108234850.737 8  84338965.48346  20596387.172                    20596393.559
 126327008.614 6  98436722.40843  24039246.898                    24039260.582
 114648545.058 8  89336658.73445  21816872.336                    21816881.875
 111884001.932 8  87182484.164 7  21290840.023                    21290848.352
 114835836.863 7  89482598.615 7  21852536.492                    21852546.023
 11  8 13  0 55  0.0000000  0 10G10G30G09G17G25G02G27G04G12G05
 109782302.566 8  85544774.40546  20890862.539                    20890871.945
 120566999.022 7  93948316.25444  22943125.523                    22943135.820
 125480697.576 6  97777284.95644  23878204.211                    23878215.879
 122292940.739 7  95293212.567 6  23271555.266                    23271564.395
 125512793.163 7  97802299.972 6  23884314.008                    23884326.750
 108236978.210 8  84340623.26646  20596791.945                    20596798.074
 126391443.747 6  98486931.45743  24051508.961                    24051522.738
 114726460.728 7  89397372.20945  21831699.133                    21831709.629
 111830145.153 8  87140517.847 7  21280591.297                    21280599.902
 114748391.784 7  89414459.658 7  21835896.156                    21835905.734
 11  8 13  0 55 30.0000000  0 10G10G30G09G17G25G02G27G04G12G05
 109787589.073 7  85548893.76746  20891868.703                    20891877.762
 120479039.858 6  93879776.66844  22926387.828                    22926398.129
 125561964.746 6  97840609.93444  23893668.172                    23893680.570
 122348499.559 7  95336505.095 6  23282127.617                    23282136.719
 125415797.122 7  97726718.709 6  23865856.805                    23865869.340
 108239387.389 7  84342500.55446  20597250.398                    20597257.199
 126455914.138 6  98537167.98743  24063778.094                    24063791.043
 114804500.312 8  89458182.25345  21846550.453                    21846559.648
 111776748.228 8  87098909.866 7  21270430.156                    21270438.898
 114661276.569 7  89346577.733 7  21819318.570                    21819327.984
 11  8 13  0 56  0.0000000  0 10G10G30G09G17G25G02G27G04G12G05
 109793508.653 8  85553506.43346  20892995.406                    20893004.176
 120391435.898 7  93811513.87744  22909717.203                    22909727.105
 125643352.749 6  97904029.07843  23909154.984                    23909168.793
 122404222.114 7  95379925.233 6  23292731.227                    23292740.953
 125319010.797 7  97651300.865 6  23847438.734                    23847451.566
 108242077.348 7  84344596.62946  20597762.383                    20597768.652
 126520417.280 6  98587430.08243  24076052.156                    24076065.078
 114882661.810 8  89519087.27845  21861423.453                    21861432.758
 111723813.843 8  87057662.311 7  21260357.813                    21260365.836
 114574493.828 7  89278954.881 7  21802804.320                    21802814.078
 11  8 13  0 56 30.0000000  0 10G10G30G09G17G25G02G27G04G12G05
 109800061.100 7  85558612.24446  20894242.445                    20894251.531
 120304189.787 7  93743529.89744  22893114.867                    22893124.859
 125724858.229 6  97967539.77043  23924665.633                    23924678.375
 122460108.584 7  95423473.078 6  23303366.352                    23303375.629
 125222436.795 7  97576048.480 7  23829061.344                    23829073.895
 108245046.717 7  84346910.43446  20598327.258                    20598333.754
 126584950.206 6  98637715.36943  24088332.820                    24088345.363
 114960943.376 8  89580085.88245  21876320.023                    21876329.438
 111671342.805 8  87016775.794 7  21250372.297                    21250380.832
 114488046.149 7  89211593.119 7  21786353.891                    21786363.039
 11  8 13  0 57  0.0000000  0 10G10G30G09G17G25G02G27G04G12G05
 109807246.581 8  85564211.32346  20895609.523                    20895618.715
 120217304.486 6  93675827.10944  22876580.961                    22876591.215
 125806477.843 6  98031139.38343  23940197.914                    23940210.121
 122516159.522 7  95467149.081 6  23314032.469                    23314041.957
 125126077.865 7  97500963.701 6  23810724.750                    23810736.875
 108248294.787 8  84349441.40746  20598945.445                    20598951.742
 126649510.311 6  98688021.80543  24100617.945                    24100631.035
 115039343.282 8  89641176.68245  21891239.195                    21891248.668
 111619338.001 8  86976252.585 7  21240476.484                    21240484.816
 114401936.611 7  89144494.841 7  21769967.813                    21769977.316
 11  8 13  0 57 30.0000000  0 10G10G30G09G17G25G02G27G04G12G05
 109815064.776 8  85570303.44246  20897097.094                    20897106.512
 120130782.598 7  93608407.48944  22860116.008                    22860126.332
 125888208.078 6  98094825.21643  23955749.828                    23955763.547
 122572375.436 7  95510953.632 6  23324730.258                    23324739.441
 125029936.493 7  97426048.396 6  23792429.352                    23792441.539
 108251820.139 8  84352188.43146  20599616.016                    20599622.961
 126714094.797 6  98738347.25143  24112908.500                    24112920.941
 115117859.565 8  89702358.18045  21906180.414                    21906189.344
 111567801.536 8  86936094.312 7  21230668.836                    21230677.621
 114316167.980 8  89077662.198 7  21753646.297                    21753656.207
 11  8 13  0 58  0.0000000  0 10G10G30G09G17G25G02G27G04G12G05
 109823515.748 8  85576888.62646  20898705.430                    20898714.371
 120044627.215 7  93541273.48844  22843722.047                    22843731.941
 125970045.742 7  98158594.75243  23971324.148                    23971336.465
 122628757.049 7  95554887.290 6  23335458.984                    23335468.918
 124934015.597 7  97351304.923 6  23774176.148                    23774188.629
 108255621.761 8  84355150.73446  20600339.539                    20600346.453
 126778701.237 6  98788689.83443  24125202.711                    24125214.805
 115196490.400 8  89763628.92845  21921143.102                    21921152.438
 111516735.725 8  86896302.786 7  21220951.742                    21220960.246
 114230743.300 7  89011097.575 7  21737390.625                    21737400.184
 11  8 13  0 58 30.0000000  0 10G10G30G09G17G25G02G27G04G12G05
 109832598.999 8  85583966.48846  20900434.023                    20900443.207
 119958840.691 7  93474426.88544  22827397.195                    22827406.547
 126051987.145 6  98222445.12444  23986916.250                    23986929.797
 122685304.582 7  95598950.216 6  23346220.102                    23346229.469
 124838317.528 7  97276735.054 6  23755965.523                    23755977.820
 108259698.271 8  84358327.22546  20601115.352                    20601121.898
 126843326.505 6  98839047.07743  24137500.531                    24137513.426
 115275233.777 8  89824987.37545  21936127.266                    21936137.203
 111466142.252 8  86856879.304 7  21211323.914                    21211332.266
 114145664.968 8  88944802.835 7  21721200.523                    21721210.438
 11  8 13  0 59  0.0000000  0 10G10G30G09G17G25G02G27G04G12G05
 109842314.485 8  85591537.00046  20902282.641                    20902291.594
 119873425.960 7  93407869.99944  22811142.609                    22811153.141
 126134029.282 7  98286374.00044  24002529.539                    24002541.477
 122742018.537 7  95643142.860 6  23357011.789                    23357021.629
 124742845.078 7  97202340.996 6  23737797.383                    23737809.945
 108264048.591 8  84361717.08346  20601943.328                    20601949.840
 126907967.964 6  98889416.90543  24149800.969                    24149813.934
 115354088.022 7  89886432.22145  21951133.109                    21951142.414
 111416023.500 8  86817825.749 7  21201786.461                    21201795.070
 114060935.621 8  88878780.028 7  21705077.000                    21705086.520
 11  8 13  0 59 30.0000000  0 10G10G30G09G17G25G02G27G04G12G05
 109852661.992 8  85599600.00046  20904251.555                    20904260.449
 119788385.645 7  93341604.85544  22794960.688                    22794970.488
 126216168.454 7  98350378.48543  24018159.992                    24018172.129
 122798899.170 6  95687465.365 6  23367836.711                    23367846.246
 124647600.777 7  97128124.692 6  23719673.148                    23719685.586
 108268671.322 8  84365319.20646  20602823.031                    20602829.766
 126972623.021 6  98939797.39043  24162104.797                    24162117.988
 115433050.997 8  89947961.80145  21966159.406                    21966168.977
 111366381.120 8  86779143.392 7  21192340.211                    21192348.469
 113976558.133 8  88813031.402 7  21689020.633                    21689030.105
 11  8 13  1  0  0.0000000  0 10G10G30G09G17G25G02G27G04G12G05
 109863641.516 8  85608155.47146  20906340.930                    20906350.141
 119703722.992 7  93275634.01544  22778850.016                    22778859.641
 126298401.791 6  98414456.34744  24033807.992                    24033821.219
 122855947.505 6  95731918.576 6  23378692.047                    23378701.770
 124552587.699 7  97054088.555 6  23701592.883                    23701605.336
 108273566.253 8  84369133.43446  20603754.438                    20603761.137
 127037289.150 6  98990186.48143  24174410.563                    24174423.605
 115512121.406 8  90009575.09045  21981206.375                    21981215.141
 111317218.022 8  86740834.493 7  21182984.680                    21182992.969
 113892535.558 8  88747559.331 7  21673031.531                    21673041.078
 11  8 13  1  0 30.0000000  0 10G10G30G09G17G25G02G27G04G12G05
 109875252.384 8  85617202.91646  20908550.297                    20908559.801
 119619440.284 7  93209959.23344  22762811.156                    22762821.633
 126380725.532 7  98478604.63844  24049474.156                    24049487.039
 122913163.744 6  95776502.621 6  23389579.523                    23389590.070
 124457808.221 7  96980234.450 6  23683556.961                    23683568.965
 108278731.482 8  84373158.27946  20604737.172                    20604743.773
 127101963.292 6  99040581.88343  24186717.703                    24186730.633
 115591297.148 7  90071270.44045  21996272.852                    21996281.746
 111268535.446 8  86702900.041 7  21173720.703                    21173728.992
 113808870.587 8  88682365.898 7  21657110.305                    21657120.328
 11  8 13  1  1  0.0000000  0 10G10G30G09G17G25G02G27G04G12G05
 109887494.848 8  85626742.49546  20910880.023                    20910889.223
 119535540.445 7  93144582.80044  22746845.516                    22746855.668
 126463136.736 6  98542821.08644  24065156.500                    24065169.223
 122970548.182 6  95821217.728 6  23400499.984                    23400509.813
 124363265.099 7  96906564.473 6  23665566.102                    23665578.055
 108284166.147 8  84377393.07646  20605771.398                    20605778.133
 127166643.041 6  99090981.55543  24199025.656                    24199038.504
 115670576.402 7  90133046.47445  22011358.914                    22011367.695
 111220335.760 8  86665341.854 7  21164548.383                    21164556.945
 113725565.694 8  88617453.053 7  21641258.297                    21641267.836
 11  8 13  1  1 30.0000000  0 10G10G30G09G17G25G02G27G04G12G05
 109900368.173 8  85636773.65946  20913330.055                    20913339.191
 119452026.138 7  93079506.78344  22730953.672                    22730963.250
 126545631.899 7  98607102.96244  24080855.070                    24080867.543
 123028101.206 6  95866064.188 6  23411452.039                    23411462.086
 124268960.902 7  96833080.691 6  23647620.867                    23647632.520
 108289868.861 8  84381836.73846  20606856.727                    20606863.570
 127231325.485 6  99141383.31443  24211334.117                    24211348.801
 115749957.501 8  90194901.84145  22026464.672                    22026473.844
 111172620.748 8  86628161.355 7  21155468.406                    21155476.777
 113642623.558 8  88552822.883 7  21625474.586                    21625484.273
 11  8 13  1  2  0.0000000  0 10G10G30G09G17G25G02G27G04G12G05
 109913872.221 8  85647296.28846  20915899.781                    20915908.668
 119368900.160 7  93014733.34944  22715134.859                    22715144.754
 126628207.764 6  98671447.74043  24096568.016                    24096580.898
 123085823.523 7  95911042.582 6  23422436.477                    23422446.051
 124174898.460 7  96759785.288 6  23629720.484                    23629732.910
 108295838.724 8  84386488.57246  20607992.688                    20607999.359
 127296008.206 6  99191785.30743  24223643.727                    24223656.996
 115829438.350 7  90256834.96045  22041589.109                    22041598.602
 111125392.715 8  86591360.310 7  21146481.234                    21146489.844
 113560046.943 8  88488477.530 7  21609760.586                    21609770.230
 11  8 13  1  2 30.0000000  0 10G10G30G09G17G25G02G27G04G12G05
 109928006.152 8  85658309.73846  20918589.305                    20918598.250
 119286164.902 7  92950264.36944  22699390.797                    22699400.539
 126710860.666 6  98735852.49843  24112296.664                    24112309.641
 123143715.359 7  95956153.075 6  23433453.188                    23433462.527
 124081080.178 7  96686680.134 6  23611867.555                    23611880.336
 108302074.061 8  84391347.27046  20609179.227                    20609185.777
 127360688.076 6  99242185.06743  24235951.039                    24235965.516
 115909017.303 7  90318844.51045  22056732.789                    22056742.125
 111078653.391 8  86554940.076 7  21137587.195                    21137595.293
 113477838.495 8  88424419.052 7  21594116.891                    21594126.699
 11  8 13  1  3  0.0000000  0 10G10G30G09G17G25G02G27G04G12G05
 109942769.801 8  85669813.87746  20921398.758                    20921407.414
 119203823.415 7  92886102.22644  22683721.734                    22683731.660
 126793587.661 6  98800315.03043  24128038.664                    24128051.883
 123201777.157 7  96001396.006 6  23444501.547                    23444511.246
 123987508.929 7  96613767.490 6  23594062.234                    23594073.965
 108308573.979 8  84396412.13446  20610416.203                    20610422.871
 127425362.764 6  99292580.80343  24248258.500                    24248272.258
 115988692.685 7  90380929.21645  22071894.680                    22071903.914
 111032405.117 8  86518902.476 7  21128786.742                    21128794.938
 113396001.276 8  88360649.847 7  21578543.820                    21578553.246
 11  8 13  1  3 30.0000000  0 10G10G30G09G17G25G02G27G04G12G05
 109958162.139 8  85681807.91346  20924327.828                    20924336.473
 119121878.051 7  92822248.72944  22668127.992                    22668137.465
 126876385.410 6  98864832.63443  24143794.617                    24143808.352
 123260009.274 7  96046771.664 6  23455582.617                    23455592.973
 123894187.089 7  96541049.193 6  23576303.523                    23576315.234
 108315336.831 8  84401681.88946  20611703.188                    20611709.859
 127490029.319 6  99342970.21243  24260563.961                    24260578.328
 116068462.159 7  90443087.22645  22087073.766                    22087083.457
 110986648.770 8  86483248.204 7  21120078.945                    21120087.492
 113314537.206 8  88297171.409 7  21563041.781                    21563051.441
 11  8 13  1  4  0.0000000  0 10G10G30G09G17G25G02G27G04G12G05
 109974183.467 8  85694292.07946  20927376.492                    20927385.695
 119040331.694 7  92758706.16545  22652609.914                    22652620.273
 126959250.596 6  98929402.84343  24159564.039                    24159576.625
 123318411.986 7  96092280.275 6  23466696.320                    23466706.156
 123801117.608 7  96468527.558 6  23558592.469                    23558604.605
 108322362.142 8  84407156.15746  20613040.039                    20613046.543
 127554685.123 6  99393351.20943  24272867.773                    24272881.824
 116148324.567 7  90505317.65945  22102271.586                    22102280.980
 110941387.095 8  86447979.395 7  21111466.172                    21111474.188
 113233449.411 8  88233986.173 7  21547611.320                    21547620.629
 11  8 13  1  4 30.0000000  0 10G10G30G09G17G25G02G27G04G12G05
 109990832.956 8  85707265.71146  20930544.609                    20930553.828
 118959187.197 7  92695476.70244  22637168.961                    22637178.840
 127042179.975 6  98994023.01343  24175345.180                    24175357.863
 123376986.225 7  96137922.523 6  23477842.867                    23477852.301
 123708303.205 7  96396204.685 6  23540930.641                    23540942.992
 108329648.769 8  84412834.04846  20614426.609                    20614433.340
 127619327.640 6  99443721.88743  24285169.445                    24285183.242
 116228278.112 7  90567619.11245  22117485.820                    22117495.977
 110896622.630 8  86413098.010 7  21102947.695                    21102956.160
 113152740.781 8  88171096.385 7  21532252.750                    21532262.621
 11  8 13  1  5  0.0000000  0 10G10G30G09G17G25G02G27G04G12G05
 110008110.167 8  85720728.47846  20933832.250                    20933841.461
 118878447.272 7  92632562.51044  22621804.344                    22621814.668
 127125170.386 6  99058690.78243  24191137.305                    24191150.332
 123435731.908 7  96183698.387 6  23489022.430                    23489031.699
 123615746.660 7  96324082.753 6  23523318.102                    23523329.879
 108337195.237 8  84418714.41446  20615862.414                    20615869.164
 127683954.173 6  99494080.09943  24297467.852                    24297481.453
 116308320.964 7  90629990.14545  22132717.531                    22132727.352
 110852356.336 8  86378604.804 7  21094524.016                    21094532.598
 113072413.762 8  88108503.961 7  21516967.164                    21516976.547
 11  8 13  1  5 30.0000000  0 10G10G30G09G17G25G02G27G04G12G05
 110026014.355 7  85734679.78346  20937239.789                    20937248.637
 118798114.414 7  92569965.49944  22606517.609                    22606527.203
 127208218.355 6  99123403.36943  24206941.016                    24206953.965
 123494649.631 7  96229608.309 6  23500233.742                    23500243.336
 123523450.402 7  96252163.649 6  23505754.109                    23505766.348
 108345000.351 8  84424796.31346  20617347.992                    20617354.758
 127748562.196 6  99544423.87643  24309762.648                    24309776.227
 116388451.467 7  90692429.47845  22147966.227                    22147975.918
 110808589.996 8  86344501.176 7  21086195.586                    21086204.383
 112992470.881 8  88046210.867 7  21501754.406                    21501763.641
 11  8 13  1  6  0.0000000  0 10G10G30G09G17G25G02G27G04G12G05
 110044545.026 8  85749119.27546  20940765.938                    20940775.055
 118718191.184 7  92507687.67044  22591308.773                    22591318.551
 127291320.662 6  99188158.30343  24222755.125                    24222768.102
 123553739.547 7  96275652.400 6  23511477.680                    23511487.348
 123431417.086 7  96180449.427 6  23488240.750                    23488253.230
 108353062.881 8  84431078.80146  20618881.945                    20618888.957
 127813148.910 6  99594751.05943  24322052.781                    24322066.559
 116468667.831 7  90754935.71345  22163230.406                    22163240.203
 110765325.727 8  86310788.768 7  21077962.711                    21077971.309
 112912914.706 7  87984219.086 7  21486615.344                    21486624.996
 11  8 13  1  6 30.0000000  0 10G10G30G09G17G25G02G27G04G12G05
 110063701.542 8  85764046.43046  20944411.227                    20944420.398
 118638680.539 7  92445731.33644  22576178.359                    22576187.762
 127374474.136 6  99252953.13143  24238578.930                    24238591.734
 123613002.357 7  96321831.216 6  23522755.664                    23522765.184
 123339649.615 7  96108942.378 6  23470778.094                    23470790.254
 108361381.992 8  84437561.22546  20620465.430                    20620471.621
 127877711.810 6  99645059.74043  24334338.852                    24334352.730
 116548968.484 7  90817507.61745  22178511.578                    22178521.293
 110722565.914 8  86277469.432 7  21069825.680                    21069834.020
 112833748.149 8  87922530.924 7  21471550.922                    21471559.883
 11  8 13  1  7  0.0000000  0 10G10G30G09G17G25G02G27G04G12G05
 110083483.339 7  85779460.82346  20948175.484                    20948184.441
 118559584.932 7  92384098.41044  22561127.000                    22561136.363
 127457675.379 6  99317785.13743  24254411.320                    24254424.512
 123672438.669 7  96368145.231 6  23534065.836                    23534075.535
 123248150.537 7  96037644.448 6  23453366.195                    23453378.770
 108369956.262 8  84444242.46846  20622096.859                    20622103.430
 127942248.059 6  99695347.59043  24346619.531                    24346633.574
 116629351.482 7  90880143.69044  22193807.289                    22193817.699
 110680311.957 8  86244544.277 7  21061785.117                    21061793.352
 112754973.776 8  87861148.355 7  21456560.055                    21456569.465
 11  8 13  1  7 30.0000000  0 10G10G30G09G17G25G02G27G04G12G05
 110103890.056 8  85795362.16546  20952059.250                    20952067.758
 118480907.290 7  92322791.16044  22546154.805                    22546164.723
 127540921.314 6  99382651.99643  24270253.211                    24270265.262
 123732048.686 7  96414594.583 6  23545408.703                    23545418.395
 123156922.690 7  95966557.867 7  23436006.172                    23436018.414
 108378784.807 8  84451121.86146  20623776.938                    20623783.641
 128006755.351 6  99745612.94643  24358895.180                    24358908.391
 116709815.573 7  90942842.96145  22209119.984                    22209129.086
 110638565.810 8  86212014.828 7  21053841.180                    21053849.500
 112676594.226 8  87800073.431 7  21441644.914                    21441654.191
 11  8 13  1  8  0.0000000  0 10G10G30G09G17G25G02G27G04G12G05
 110124920.508 7  85811749.53246  20956061.063                    20956070.016
 118402650.085 7  92261811.54344  22531263.258                    22531273.172
 127624208.663 6  99447551.13143  24286102.688                    24286114.891
 123791832.437 6  96461179.322 6  23556785.227                    23556794.816
 123065968.688 7  95895684.665 7  23418697.945                    23418710.195
 108387866.303 8  84458198.36046  20625504.867                    20625511.598
 128071230.981 6  99795853.56742  24371163.734                    24371178.789
 116790358.682 7  91005603.80145  22224446.063                    22224456.430
 110597329.310 8  86179882.478 7  21045994.141                    21046002.383
 112598611.899 8  87739308.043 7  21426805.266                    21426814.738
 11  8 13  1  8 30.0000000  0 10G10G30G09G17G25G02G27G04G12G05
 110146573.695 8  85828622.15446  20960181.172                    20960190.313
 118324815.856 7  92201161.49244  22516451.742                    22516461.500
 127707534.119 6  99512479.98243  24301958.203                    24301971.273
 123851790.444 7  96507899.879 6  23568195.266                    23568205.227
 122975291.018 7  95825026.792 7  23401442.922                    23401455.117
 108397199.302 8  84465470.83146  20627281.242                    20627287.352
 128135672.326 6  99846067.47942  24383426.953                    24383441.266
 116870979.210 7  91068424.97945  22239787.969                    22239797.609
 110556603.728 8  86148148.218 7  21038244.250                    21038252.637
 112521029.336 8  87678854.154 7  21412041.867                    21412051.406
 11  8 13  1  9  0.0000000  0 10G10G30G09G17G25G02G27G04G12G05
 110168848.940 7  85845979.48646  20964420.133                    20964428.930
 118247407.035 7  92140842.94845  22501721.516                    22501731.133
 127790894.388 6  99577435.97243  24317821.828                    24317834.371
 123911923.214 7  96554756.582 6  23579637.609                    23579647.664
 122884892.290 7  95754586.285 7  23384240.609                    23384252.426
 108406782.396 8  84472938.18546  20629104.594                    20629111.246
 128200076.499 6  99896252.47442  24395682.656                    24395696.832
 116951675.390 7  91131305.10945  22255143.813                    22255154.078
 110516391.150 8  86116813.725 7  21030592.117                    21030600.477
 112443849.053 8  87618713.732 7  21397355.016                    21397364.352
 11  8 13  1  9 30.0000000  0 10G10G30G09G17G25G02G27G04G12G05
 110191745.771 8  85863821.18046  20968777.141                    20968785.551
 118170426.515 7  92080858.13444  22487072.781                    22487082.516
 127874286.266 6  99642416.55543  24333690.406                    24333702.957
 123972231.111 7  96601749.754 6  23591113.992                    23591123.539
 122794775.360 7  95684365.353 6  23367091.563                    23367103.703
 108416615.067 8  84480600.02146  20630975.656                    20630982.051
 128264441.092 6  99946406.57342  24407931.258                    24407945.453
 117032445.809 7  91194243.06545  22270514.445                    22270524.109
 110476693.518 8  86085880.505 7  21023038.313                    21023046.234
 112367073.738 8  87558888.865 7  21382744.930                    21382754.469
 11  8 13  1 10  0.0000000  0 10G10G30G09G17G25G02G27G04G12G05
 110215263.070 8  85882146.35446  20973252.203                    20973261.777
 118093876.812 7  92021209.03944  22472505.383                    22472515.527
 127957706.663 6  99707419.40343  24349565.063                    24349578.211
 124032714.466 7  96648879.663 6  23602623.367                    23602633.324
 122704942.894 7  95614366.068 7  23349996.984                    23350009.195
 108426695.844 8  84488455.19046  20632893.969                    20632900.738
 128328763.408 5  99996527.74742  24420170.555                    24420185.457
 117113288.633 7  91257237.46545  22285898.359                    22285907.465
 110437512.584 8  86055349.928 7  21015582.117                    21015590.297
 112290705.883 8  87499381.496 7  21368212.508                    21368222.184
 11  8 13  1 10 30.0000000  0 10G10G30G09G17G25G02G27G04G12G05
 110239400.336 8  85900954.61546  20977845.578                    20977854.414
 118017760.759 7  91961897.84844  22458020.750                    22458031.484
 128041152.555 6  99772442.14143  24365444.445                    24365456.844
 124093373.752 6  96696146.663 6  23614166.688                    23614175.605
 122615397.720 7  95544590.635 6  23332957.211                    23332968.738
 108437023.850 8  84496502.99346  20634859.195                    20634865.895
 128393040.927 6 100046614.00643  24432402.477                    24432417.242
 117194202.450 7  91320287.15645  22301295.539                    22301305.559
 110398850.088 8  86025223.306 7  21008224.836                    21008233.715
 112214748.185 8  87440193.727 7  21353758.523                    21353768.055
 11  8 13  1 11  0.0000000  0 10G10G30G09G17G25G02G27G04G12G05
 110264156.292 8  85920244.98446  20982556.703                    20982565.543
 117942080.677 7  91902926.40145  22443619.508                    22443629.824
 128124620.516 6  99837482.04943  24381327.219                    24381340.031
 124154209.096 6  96743550.837 6  23625743.586                    23625752.875
 122526142.268 7  95475040.960 6  23315972.484                    23315984.273
 108447597.540 8  84504742.24146  20636871.609                    20636878.051
 128457271.103 6 100096663.33943  24444624.984                    24444639.316
 117275185.761 7  91383391.00545  22316706.406                    22316715.211
 110360707.622 8  85995501.908 7  21000966.633                    21000975.023
 112139203.000 8  87381327.416 7  21339382.297                    21339391.844
 11  8 13  1 11 30.0000000  0 10G10G30G09G17G25G02G27G04G12G05
 110289530.244 8  85940016.90046  20987385.109                    20987393.715
 117866839.128 7  91844296.65645  22429301.695                    22429311.797
 128208107.391 6  99902536.70243  24397214.086                    24397227.160
 124215220.702 6  96791092.350 6  23637353.875                    23637362.641
 122437179.315 7  95405719.187 6  23299043.688                    23299055.055
 108458415.743 8  84513172.01746  20638930.281                    20638936.902
 128521451.263 6 100146673.67243  24456838.938                    24456853.242
 117356236.515 7  91446547.41645  22332129.797                    22332139.148
 110323086.630 8  85966186.852 7  20993807.406                    20993815.980
 112064072.722 8  87322784.401 7  21325085.680                    21325094.598
 11  8 13  1 12  0.0000000  0 10G10G30G09G17G25G02G27G04G12G05
 110315521.412 7  85960269.75146  20992331.000                    20992339.695
 117792038.742 7  91786010.68445  22415067.656                    22415077.770
 128291609.954 6  99967603.62543  24413104.758                    24413117.160
 124276409.159 6  96838771.680 6  23648997.727                    23649006.836
 122348511.558 7  95336627.429 6  23282170.453                    23282182.031
 108469477.428 8  84521791.51446  20641034.969                    20641041.621
 128585578.796 6 100196643.08543  24469042.672                    24469056.551
 117437353.628 7  91509755.54045  22347565.688                    22347575.418
 110285989.001 8  85937279.611 7  20986747.820                    20986756.340
 111989360.009 8  87264566.755 7  21310868.563                    21310878.125
 11  8 13  1 12 30.0000000  0  9G10G30G09G17G25G02G04G12G05
 110342128.293 8  85981002.38946  20997393.891                    20997402.938
 117717681.844 7  91728070.27045  22400918.172                    22400927.805
 128375124.854 6 100032680.11143  24428997.117                    24429009.637
 124337774.761 7  96886589.031 6  23660674.930                    23660684.145
 122260141.460 7  95267767.617 6  23265354.469                    23265365.813
 108480781.126 8  84530599.60146  20643185.930                    20643192.605
 117518535.175 7  91573013.89345  22363014.141                    22363023.332
 110249416.053 8  85908781.206 7  20979788.469                    20979796.656
 111915067.006 8  87206676.151 7  21296730.820                    21296739.801
 11  8 13  1 13  0.0000000  0  9G10G30G09G17G25G02G04G12G05
 110369350.442 8  86002214.45746  21002574.172                    21002583.219
 117643771.265 7  91670477.64545  22386853.109                    22386862.809
 128458649.155 6 100097763.94243  24444890.930                    24444904.566
 124399317.945 6  96934544.749 6  23672386.313                    23672394.941
 122172071.955 7  95199142.031 6  23248595.031                    23248606.957
 108492325.919 8  84539595.54846  20645383.070                    20645389.676
 117599779.581 7  91636321.19445  22378474.141                    22378484.504
 110213369.900 8  85880693.293 7  20972929.117                    20972937.504
 111841196.600 8  87149114.851 7  21282673.609                    21282682.793
 11  8 13  1 13 30.0000000  0  9G10G30G09G17G25G02G04G12G05
 110397186.961 7  86023905.25446  21007871.367                    21007880.117
 117570309.719 7  91613234.91545  22372873.211                    22372883.973
 128542180.054 6 100162852.90343  24460785.984                    24460800.020
 124461039.116 6  96982639.188 6  23684131.516                    23684141.125
 122084305.925 7  95130752.954 6  23231893.852                    23231905.699
 108504111.008 8  84548778.74146  20647625.852                    20647632.281
 117681085.737 7  91699676.63444  22393946.414                    22393955.438
 110177852.343 8  85853017.283 7  20966170.406                    20966178.727
 111767751.200 8  87091884.719 7  21268697.063                    21268706.730
 11  8 13  1 14  0.0000000  0  9G10G30G09G17G25G02G04G12G05
 110425636.668 8  86046073.86446  21013285.117                    21013294.098
 117497299.442 7  91556343.80145  22358980.508                    22358990.508
 128625713.993 6 100227944.22043  24476682.008                    24476696.020
 124522938.462 7  97030872.460 6  23695910.336                    23695919.563
 121996845.770 7  95062602.190 6  23215250.789                    23215262.613
 108516134.643 8  84558147.81246  20649913.664                    20649920.563
 117762451.602 7  91763078.58145  22409429.836                    22409439.777
 110142864.538 8  85825754.058 7  20959512.453                    20959520.727
 111694733.255 8  87034987.675 7  21254802.398                    21254811.668
 11  8 13  1 14 30.0000000  0  9G10G30G09G17G25G02G04G12G05
 110454697.905 7  86068718.97746  21018815.266                    21018823.801
 117424742.766 7  91499806.15345  22345173.109                    22345183.277
 128709247.867 6 100293035.49243  24492578.789                    24492592.004
 124585016.141 6  97079244.688 6  23707723.234                    23707733.473
 121909693.897 7  94994691.646 6  23198666.531                    23198678.289
 108528395.460 8  84567701.70546  20652246.617                    20652253.367
 117843875.623 7  91826525.86245  22424924.375                    22424933.887
 110108407.731 8  85798904.597 7  20952955.742                    20952963.922
 111622144.904 8  86978425.373 7  21240989.359                    21240998.711
 11  8 13  1 15  0.0000000  0  9G10G30G09G17G25G02G04G12G05
 110484370.140 8  86091840.20146  21024461.828                    21024470.508
 117352642.387 7  91443624.07145  22331453.070                    22331462.867
 128792778.490 6 100358124.23243  24508474.328                    24508486.855
 124647272.367 6  97127756.056 6  23719570.383                    23719579.578
 121822853.230 7  94927023.605 6  23182140.828                    23182152.871
 108540892.870 8  84577439.95746  20654625.102                    20654631.477
 117925356.585 7  91890017.48544  22440429.625                    22440439.086
 110074484.227 8  85772470.696 7  20946500.141                    20946508.711
 111549988.911 8  86922199.975 7  21227258.359                    21227267.855
 11  8 13  1 15 30.0000000  0  9G10G30G09G17G25G02G04G12G05
 110514652.168 8  86115436.58346  21030224.328                    21030233.230
 117281000.693 7  91387799.38645  22317820.383                    22317829.551
 128876302.553 6 100423207.82243  24524368.180                    24524381.551
 124709707.512 6  97176406.858 6  23731451.430                    23731460.836
 121736326.289 7  94859600.022 7  23165675.305                    23165687.586
 108553625.233 8  84587361.28346  20657048.141                    20657054.219
 118006892.643 7  91953552.04245  22455945.031                    22455955.508
 110041095.006 8  85746453.132 7  20940146.547                    20940154.813
 111478267.518 8  86866313.220 7  21213610.492                    21213619.535
 11  8 13  1 16  0.0000000  0  9G10G30G09G17G25G02G04G12G05
 110545542.584 8  86139507.04446  21036102.523                    21036111.473
 117209820.055 7  91332333.97445  22304274.953                    22304284.840
 128959817.124 6 100488284.05943  24540260.391                    24540274.109
 124772321.925 6  97225197.312 6  23743366.250                    23743375.590
 121650115.704 7  94792422.963 7  23149269.805                    23149281.859
 108566591.608 8  84597464.96146  20659515.734                    20659521.535
 118088482.324 7  92017128.40744  22471472.141                    22471481.539
 110008241.485 8  85720852.999 7  20933894.328                    20933902.461
 111406982.875 8  86810766.797 7  21200045.047                    21200054.477
 11  8 13  1 16 30.0000000  0  9G10G30G09G17G25G02G04G12G05
 110577040.425 7  86164050.82246  21042096.094                    21042105.266
 117139103.028 7  91277229.79845  22290817.836                    22290827.750
 129043319.194 6 100553350.48543  24556151.539                    24556163.961
 124835115.805 7  97274127.636 6  23755315.195                    23755324.871
 121564224.230 7  94725494.574 6  23132925.422                    23132937.539
 108579790.703 8  84607749.99046  20662027.328                    20662033.523
 118170124.242 7  92080745.46944  22487007.555                    22487017.570
 109975925.526 8  85695671.750 7  20927744.922                    20927753.508
 111336137.132 8  86755562.376 7  21186563.758                    21186572.629
 11  8 13  1 17  0.0000000  0  9G10G30G09G17G25G02G04G12G05
 110609144.437 8  86189066.94146  21048205.648                    21048214.742
 117068852.065 7  91222488.79245  22277449.273                    22277459.238
 129126805.498 6 100618404.72843  24572037.469                    24572051.004
 124898089.667 7  97323198.164 6  23767299.172                    23767308.523
 121478654.487 7  94658816.883 7  23116641.375                    23116654.008
 108593221.387 8  84618215.46246  20664582.766                    20664589.820
 118251816.720 7  92144401.92544  22502552.797                    22502562.625
 109944148.483 8  85670910.444 7  20921697.781                    20921706.195
 111265733.189 8  86700702.207 7  21173166.195                    21173175.297
 11  8 13  1 17 30.0000000  0  9G10G30G09G17G25G02G04G12G05
 110641853.225 8  86214554.31846  21054429.844                    21054438.539
 116999069.664 7  91168112.91045  22264170.461                    22264180.184
 129210273.061 6 100683444.29643  24587921.172                    24587933.855
 124961243.376 7  97372408.844 6  23779317.102                    23779326.098
 121393409.130 7  94592391.944 6  23100419.609                    23100431.855
 108606882.512 8  84628860.50946  20667182.328                    20667188.629
 118333558.440 7  92208096.76544  22518108.023                    22518117.328
 109912911.655 8  85646570.081 7  20915753.664                    20915762.438
 111195773.274 8  86646188.038 7  21159853.531                    21159862.793
 11  8 13  1 18  0.0000000  0  9G10G30G09G17G25G02G04G12G05
 110675165.742 8  86240512.13346  21060768.602                    21060777.352
 116929757.982 7  91114103.81145  22250981.234                    22250990.699
 129293718.606 6 100748466.72743  24603800.250                    24603813.180
 125024577.575 6  97421760.158 6  23791368.586                    23791378.555
 121308490.736 7  94526221.791 7  23084260.695                    23084272.898
 108620772.850 8  84639684.16346  20669825.641                    20669831.586
 118415347.923 7  92271828.80245  22533671.641                    22533681.863
 109882216.696 8  85622651.953 7  20909912.742                    20909921.008
 111126259.480 8  86592021.492 7  21146625.117                    21146633.906
 11  8 13  1 18 30.0000000  0  9G10G30G09G17G25G02G04G12G05
 110709080.445 8  86266939.18845  21067222.820                    21067231.863
 116860919.665 7  91060463.57345  22237881.063                    22237890.762
 129377139.185 6 100813469.67243  24619674.563                    24619687.414
 125088092.163 6  97471252.042 6  23803456.055                    23803464.586
 121223901.988 7  94460308.498 7  23068163.750                    23068176.516
 108634891.301 8  84650685.56046  20672512.031                    20672518.750
 118497183.694 7  92335596.92245  22549244.867                    22549254.742
 109852064.952 8  85599157.116 7  20904175.070                    20904183.336
 111057194.078 8  86538204.343 7  21133482.266                    21133491.746
 11  8 13  1 19  0.0000000  0  9G10G30G09G17G25G02G04G12G05
 110743596.430 8  86293834.76946  21073791.094                    21073799.730
 116792557.126 7  91007194.06645  22224872.391                    22224882.113
 129460531.706 6 100878450.78244  24635543.359                    24635556.832
 125151787.595 6  97520884.816 6  23815576.195                    23815585.465
 121139645.691 7  94394654.267 7  23052130.500                    23052142.395
 108649236.690 8  84661863.78746  20675241.953                    20675248.313
 118579064.457 7  92399400.08545  22564826.180                    22564836.395
 109822458.150 8  85576086.900 7  20898540.938                    20898549.734
 110988579.845 8  86484738.755 7  21120425.625                    21120434.715
 11  8 13  1 19 30.0000000  0  9G10G30G09G17G25G02G04G12G05
 110778712.003 8  86321197.56146  21080473.172                    21080481.992
 116724672.490 7  90954296.94445  22211954.602                    22211963.715
 129543893.039 6 100943407.57343  24651406.664                    24651419.992
 125215664.085 6  97570658.665 6  23827731.297                    23827740.934
 121055724.080 7  94329260.830 7  23036160.914                    23036173.344
 108663807.653 8  84673217.79446  20678015.000                    20678021.184
 118660988.446 7  92463236.92844  22580415.688                    22580425.930
 109793396.703 8  85553441.643 7  20893010.938                    20893019.520
 110920418.611 8  86431626.154 7  21107454.758                    21107463.941
 11  8 13  1 20  0.0000000  0  9G10G30G09G17G25G02G04G12G05
 110814425.870 8  86349026.56746  21087269.117                    21087278.211
 116657268.382 7  90901774.26545  22199128.219                    22199137.559
 129627220.113 6 101008337.69243  24667263.625                    24667276.441
 125279721.933 6  97620573.824 6  23839921.484                    23839930.637
 120972140.030 7  94264130.413 7  23020255.383                    23020267.035
 108678603.222 8  84684746.81846  20680830.430                    20680836.816
 118742954.317 7  92527106.43044  22596013.430                    22596023.246
 109764882.560 8  85531222.854 7  20887584.578                    20887592.859
 110852712.570 8  86378868.249 7  21094570.617                    21094579.586
 11  8 13  1 20 30.0000000  0  9G10G30G09G17G25G02G04G12G05
 110850736.924 8  86377320.91645  21094178.984                    21094187.914
 116590346.856 7  90849627.62745  22186392.797                    22186403.020
 129710510.043 6 101073238.85943  24683113.023                    24683125.785
 125343961.394 6  97670630.506 6  23852145.844                    23852154.879
 120888896.014 7  94199264.968 7  23004414.461                    23004426.379
 108693622.174 8  84696449.90546  20683688.320                    20683694.801
 118824960.717 7  92591007.48644  22611618.805                    22611628.879
 109736917.064 8  85509431.579 7  20882263.031                    20882271.066
 110785463.920 8  86326466.750 7  21081773.805                    21081782.895
 11  8 13  1 21  0.0000000  0  9G10G30G09G17G25G02G04G12G05
 110887643.723 8  86406079.47946  21101202.258                    21101210.902
 116523910.597 7  90797859.12545  22173750.648                    22173760.750
 129793759.615 6 101138108.52742  24698954.523                    24698967.473
 125408382.623 6  97720828.824 6  23864404.680                    23864414.773
 120805994.842 7  94134666.691 6  22988639.086                    22988650.820
 108708863.389 8  84708326.18546  20686588.609                    20686595.156
 118907006.385 7  92654939.17544  22627231.836                    22627241.324
 109709501.500 8  85488068.822 7  20877045.789                    20877054.098
 110718675.424 8  86274423.811 7  21069064.313                    21069073.508
 11  8 13  1 21 30.0000000  0  9G10G30G09G17G25G02G04G12G05
 110925144.449 8  86435300.85546  21108338.281                    21108347.570
 116457961.651 7  90746470.35045  22161201.109                    22161211.109
 129876965.817 6 101202944.46343  24714788.125                    24714801.324
 125472985.806 6  97771168.931 6  23876698.555                    23876708.035
 120723439.033 7  94070337.505 7  22972928.891                    22972941.418
 108724325.444 8  84720374.55146  20689530.711                    20689537.422
 118989089.669 7  92718900.16844  22642851.188                    22642861.188
 109682636.844 8  85467135.332 7  20871933.984                    20871942.195
 110652348.935 8  86222740.890 7  21056442.719                    21056451.551
 11  8 13  1 22  0.0000000  0  9G10G30G09G17G25G02G04G12G05
 110963237.883 8  86464984.07445  21115587.164                    21115596.207
 116392502.443 7  90695463.19545  22148744.828                    22148754.324
 129960125.892 6 101267744.39142  24730613.953                    24730626.504
 125537771.144 6  97821650.984 6  23889026.172                    23889036.188
 120641231.165 7  94006279.444 7  22957285.258                    22957297.336
 108740007.290 8  84732594.18046  20692515.180                    20692521.563
 119071209.324 7  92782889.47544  22658478.695                    22658488.254
 109656325.074 8  85446632.667 7  20866926.719                    20866935.242
 110586486.640 8  86171419.654 7  21043909.797                    21043918.586
 11  8 13  1 22 30.0000000  0  9G10G30G09G17G25G02G04G12G05
 111001922.457 8  86495127.90546  21122948.586                    21122957.555
 116327535.145 7  90644839.34945  22136381.688                    22136391.656
 130043236.541 6 101332505.89042  24746429.375                    24746441.910
 125602738.737 6  97872275.059 6  23901389.383                    23901399.492
 120559373.723 7  93942494.449 7  22941708.914                    22941720.445
 108755907.390 8  84744983.87346  20695540.883                    20695547.297
 119153363.932 7  92846906.03944  22674111.688                    22674121.289
 109630566.268 8  85426560.881 7  20862025.008                    20862033.184
 110521090.659 8  86120461.794 7  21031465.453                    21031474.313
 11  8 13  1 23  0.0000000  0  9G10G30G09G17G25G02G04G12G05
 111041196.565 8  86525731.11546  21130422.258                    21130430.848
 116263062.044 7  90594600.60045  22124112.844                    22124122.746
 130126294.756 5 101397226.54143  24762234.430                    24762248.027
 125667888.904 6  97923041.368 6  23913787.641                    23913797.207
 120477869.413 7  93878984.609 7  22926198.789                    22926210.563
 108772025.158 8  84757543.18146  20698607.844                    20698614.516
 119235552.005 7  92910948.66744  22689751.750                    22689761.273
 109605362.267 8  85406921.412 7  20857228.898                    20857237.457
 110456163.066 8  86069868.913 7  21019109.609                    21019118.859
 11  8 13  1 23 30.0000000  0  9G10G30G09G17G25G02G04G12G05
 111081059.046 8  86556792.79746  21138007.820                    21138016.480
 116199085.590 7  90544748.84945  22111938.305                    22111948.039
 130209297.669 6 101461904.06143  24778029.227                    24778042.582
 125733221.833 6  97973950.135 6  23926219.852                    23926229.293
 120396720.973 7  93815752.089 7  22910757.063                    22910768.570
 108788359.427 8  84770271.18146  20701716.172                    20701722.559
 119317772.479 7  92975016.54044  22705397.180                    22705407.441
 109580714.559 8  85387715.418 7  20852538.383                    20852546.395
 110391706.472 8  86019643.036 7  21006844.086                    21006853.289
 11  8 13  1 24  0.0000000  0  9G10G30G09G17G25G02G04G12G05
 111121508.036 8  86588311.48846  21145704.594                    21145713.660
 116135607.854 7  90495285.70545  22099859.203                    22099868.926
 130292242.273 6 101526536.20143  24793813.297                    24793826.965
 125798737.727 6  98025001.449 6  23938686.813                    23938696.875
 120315930.784 7  93752798.717 7  22895382.898                    22895394.582
 108804908.891 8  84783166.87546  20704865.438                    20704872.168
 119400023.737 7  93039108.39744  22721049.391                    22721059.469
 109556624.177 8  85368943.696 7  20847954.234                    20847962.625
 110327722.683 8  85969785.587 7  20994668.156                    20994677.203
 11  8 13  1 24 30.0000000  0  9G10G30G09G17G25G02G04G12G05
 111162542.090 8  86620286.08245  21153513.594                    21153522.313
 116072631.107 7  90446212.93945  22087874.922                    22087884.652
 130375125.581 6 101591120.55343  24809586.148                    24809599.316
 125864436.919 6  98076195.616 6  23951188.836                    23951198.680
 120235501.529 7  93690126.602 7  22880077.758                    22880089.199
 108821672.550 8  84796229.48146  20708054.992                    20708062.180
 119482304.532 7  93103223.28644  22736707.313                    22736717.191
 109533092.254 8  85350607.143 7  20843476.445                    20843484.691
 110264213.781 8  85920298.183 7  20982583.461                    20982591.961
 11  8 13  1 25  0.0000000  0  9G10G30G09G17G25G02G04G12G05
 111204159.600 8  86652715.30246  21161432.930                    21161442.227
 116010157.579 7  90397532.31245  22075986.422                    22075996.613
 130457944.583 6 101655654.81143  24825345.883                    24825359.105
 125930319.457 6  98127532.649 6  23963726.023                    23963735.605
 120155435.786 7  93627737.749 7  22864841.438                    22864853.336
 108838648.979 8  84809457.87446  20711286.141                    20711292.664
 119564613.579 7  93167360.15944  22752370.516                    22752380.082
 109510119.894 8  85332706.618 7  20839104.992                    20839113.320
 110201181.853 8  85871182.435 7  20970588.422                    20970597.297
 11  8 13  1 25 30.0000000  0  9G10G30G09G17G25G02G04G12G05
 111246358.756 8  86685597.75946  21169463.172                    21169472.008
 115948189.474 7  90349245.51845  22064194.578                    22064204.320
 130540696.269 6 101720136.62043  24841092.664                    24841105.910
 125996385.640 6  98179012.750 6  23976298.773                    23976307.945
 120075736.071 7  93565634.104 7  22849675.086                    22849686.934
 108855837.141 8  84822851.26746  20714556.750                    20714563.281
 119646949.474 7  93231517.98244  22768038.648                    22768047.758
 109487708.296 8  85315243.046 7  20834840.055                    20834848.699
 110138629.022 8  85822440.018 7  20958684.797                    20958693.598
 11  8 13  1 26  0.0000000  0  8G10G30G17G25G02G04G12G05
 111289137.962 8  86718932.20845  21177603.875                    21177612.793
 115886729.095 7  90301354.36245  22052499.117                    22052508.238
 126062635.307 6  98230635.848 6  23988904.984                    23988914.891
 119996405.088 7  93503817.780 7  22834579.125                    22834590.773
 108873235.892 8  84836408.75346  20717867.789                    20717873.809
 119729311.250 7  93295695.95944  22783711.188                    22783721.668
 109465858.301 8  85298217.085 7  20830682.234                    20830690.582
 110076557.566 8  85774072.696 7  20946872.703                    20946881.984
 11  8 13  1 26 30.0000000  0  8G10G30G17G25G02G04G12G05
 111332496.479 8  86752718.07145  21185854.734                    21185863.551
 115825779.200 7  90253860.99045  22040900.203                    22040909.777
 126129069.732 6  98282402.897 6  24001547.672                    24001556.738
 119917446.070 7  93442291.278 7  22819553.344                    22819565.387
 108890845.143 8  84850130.26246  20721218.742                    20721224.879
 119811698.083 7  93359893.46344  22799388.984                    22799398.637
 109444571.785 8  85281630.200 8  20826631.484                    20826639.766
 110014969.860 8  85726082.321 7  20935153.313                    20935162.094
 11  8 13  1 27  0.0000000  0  8G10G30G17G25G02G04G12G05
 111376431.673 7  86786953.28945  21194215.195                    21194223.820
 115765341.124 7  90206766.43945  22029399.836                    22029409.254
 126195687.907 6  98334313.131 6  24014223.875                    24014234.035
 119838860.640 7  93381055.906 7  22804599.297                    22804611.586
 108908662.590 8  84864013.99646  20724608.969                    20724615.680
 119894107.882 7  93424108.88344  22815070.398                    22815080.582
 109423848.805 8  85265482.428 7  20822687.836                    20822696.508
 109953867.296 8  85678469.984 7  20923525.609                    20923534.301
 11  8 13  1 27 30.0000000  0  8G10G30G17G25G02G04G12G05
 111420941.856 8  86821636.54845  21202685.328                    21202693.891
 115705416.968 7  90160072.34045  22017996.203                    22018006.074
 126262489.930 6  98386366.627 6  24026936.016                    24026946.258
 119760651.356 7  93320113.646 7  22789716.242                    22789728.156
 108926686.991 8  84878058.99246  20728038.734                    20728045.539
 119976539.331 7  93488341.13744  22830757.047                    22830767.246
 109403690.651 8  85249774.777 7  20818851.820                    20818860.313
 109893251.977 8  85631237.324 7  20911991.133                    20912000.195
 11  8 13  1 28  0.0000000  0  8G10G30G17G25G02G04G12G05
 111466025.242 7  86856766.46645  21211264.492                    21211273.527
 115646008.750 7  90113780.25945  22006691.141                    22006701.035
 126329476.026 6  98438563.533 6  24039683.102                    24039692.754
 119682820.747 7  93259466.430 7  22774906.023                    22774917.801
 108944917.420 8  84892264.52246  20731508.117                    20731514.844
 120058991.116 7  93552589.25744  22846447.125                    22846457.090
 109384098.488 8  85234508.159 7  20815123.625                    20815132.121
 109833125.608 8  85584385.660 7  20900549.273                    20900558.020
 11  8 13  1 28 30.0000000  0  8G10G30G17G25G02G04G12G05
 111511680.109 7  86892341.69345  21219952.031                    21219961.328
 115587118.713 7  90067891.95845  21995484.539                    21995494.586
 126396646.500 6  98490904.147 6  24052465.617                    24052474.555
 119605371.453 7  93199116.371 7  22760167.625                    22760179.813
 108963352.578 8  84906629.58746  20735016.203                    20735022.805
 120141462.137 7  93616852.37344  22862141.031                    22862150.707
 109365072.988 8  85219683.105 7  20811503.313                    20811511.871
 109773490.443 8  85537916.752 7  20889201.070                    20889210.074
 11  8 13  1 29  0.0000000  0  8G10G30G17G25G02G04G12G05
 111557904.900 8  86928361.00745  21228748.273                    21228757.145
 115528748.841 7  90022408.99045  21984377.250                    21984386.848
 126464001.175 6  98543388.261 6  24065282.719                    24065292.746
 119528305.834 7  93139065.271 7  22745502.531                    22745514.750
 108981991.307 8  84921153.26946  20738562.781                    20738569.324
 120223950.992 7  93681129.37344  22877838.188                    22877848.301
 109346614.908 8  85205300.184 7  20807990.914                    20807999.078
 109714348.223 8  85491831.960 7  20877947.039                    20877955.242
 11  8 13  1 29 30.0000000  0  8G10G30G17G25G02G04G12G05
 111604697.532 8  86964822.81145  21237652.883                    21237661.559
 115470901.076 7  89977332.85045  21973369.063                    21973378.398
 126531540.189 6  98596016.035 6  24078134.961                    24078144.336
 119451626.309 7  93079315.021 7  22730910.750                    22730922.723
 109000832.181 8  84935834.46746  20742148.266                    20742154.820
 120306456.334 7  93745419.21844  22893538.234                    22893548.332
 109328725.138 8  85191360.106 7  20804586.336                    20804594.766
 109655700.858 8  85446132.762 7  20866786.445                    20866795.566
 11  8 13  1 30  0.0000000  0  8G10G30G17G25G02G04G12G05
 111652056.484 8  87001725.90845  21246664.875                    21246674.027
 115413577.819 7  89932665.41845  21962460.914                    21962470.270
 126599263.889 6  98648787.704 6  24091022.516                    24091032.055
 119375335.773 7  93019867.882 7  22716393.305                    22716405.574
 109019874.826 8  84950672.88946  20745772.055                    20745778.250
 120388977.241 7  93809721.24344  22909241.328                    22909251.074
 109311404.991 8  85177863.891 7  20801290.313                    20801298.785
 109597550.652 8  85400820.965 7  20855720.766                    20855729.621
 11  8 13  1 30 30.0000000  0  8G10G30G17G25G02G04G12G05
 111699979.564 7  87039068.57445  21255784.375                    21255793.473
 115356780.918 7  89888408.14945  21951652.727                    21951662.391
 126667172.061 6  98701703.114 6  24103944.820                    24103954.441
 119299436.452 7  92960725.577 7  22701950.086                    22701961.832
 109039117.699 8  84965667.32446  20749433.945                    20749440.270
 120471512.619 7  93874034.52044  22924947.570                    22924957.590
 109294655.208 8  85164812.110 7  20798103.352                    20798111.492
 109539899.309 8  85355897.888 7  20844749.664                    20844758.844
 11  8 13  1 31  0.0000000  0  8G10G30G17G25G02G04G12G05
 111748464.999 7  87076849.43345  21265010.969                    21265019.719
 115300512.275 7  89844562.49045  21940945.141                    21940955.016
 126735264.936 6  98754762.481 6  24116902.789                    24116912.371
 119223930.866 7  92901890.100 7  22687581.844                    22687593.766
 109058559.807 8  84980817.00446  20753133.711                    20753140.066
 120554061.289 7  93938358.16744  22940656.141                    22940666.262
 109278476.625 8  85152205.415 7  20795024.477                    20795032.566
 109482748.546 8  85311364.883 7  20833874.078                    20833883.277
 11  8 13  1 31 30.0000000  0  8G10G30G17G25G02G04G12G05
 111797510.788 8  87115066.93045  21274344.063                    21274352.871
 115244773.944 7  89801130.05145  21930338.438                    21930348.039
 126803542.645 6  98807965.859 6  24129894.945                    24129904.652
 119148821.491 7  92843363.358 7  22673288.938                    22673301.004
 109078199.867 8  84996120.93546  20756870.742                    20756877.707
 120636621.535 7  94002690.85244  22956366.273                    22956376.547
 109262869.707 8  85140044.186 7  20792054.641                    20792062.992
 109426100.072 8  85267223.266 8  20823094.344                    20823103.500
 11  8 13  1 32  0.0000000  0  8G10G30G17G25G02G04G12G05
 111847114.987 8  87153719.55945  21283783.258                    21283792.324
 115189567.772 8  89758112.26645  21919832.961                    21919842.898
 126872005.105 6  98861313.216 6  24142923.289                    24142933.492
 119074110.757 7  92785147.237 7  22659072.164                    22659083.953
 109098036.662 8  85011578.16946  20760645.664                    20760652.090
 120719192.459 7  94067031.84144  22972079.430                    22972089.148
 109247835.771 8  85128329.424 7  20789193.641                    20789202.430
 109369955.833 8  85223474.548 7  20812410.758                    20812419.926
 11  8 13  1 32 30.0000000  0  8G10G30G17G25G02G04G12G05
 111897276.149 8  87192806.18145  21293328.586                    21293337.156
 115134896.101 7  89715510.98745  21909429.148                    21909438.625
 126940652.828 6  98914804.892 6  24155986.727                    24155996.215
 118999801.547 8  92727244.026 7  22644931.438                    22644943.078
 109118069.832 8  85027188.42046  20764457.789                    20764464.293
 120801773.108 7  94131380.39644  22987794.539                    22987803.840
 109233375.893 8  85117061.993 8  20786442.133                    20786450.477
 109314318.217 8  85180120.612 8  20801823.219                    20801832.156
 11  8 13  1 33  0.0000000  0  8G10G30G17G25G02G04G12G05
 111947992.138 8  87232325.13245  21302979.430                    21302988.625
 115080760.577 7  89673327.47045  21899127.711                    21899137.352
 127009485.550 6  98968440.743 6  24169085.625                    24169095.414
 118925895.903 7  92669655.263 7  22630867.523                    22630879.086
 109138297.359 8  85042950.12046  20768307.203                    20768313.297
 120884362.164 7  94195735.50844  23003509.914                    23003520.203
 109219490.234 8  85106242.007 7  20783799.734                    20783808.285
 109259188.429 8  85137162.384 8  20791332.227                    20791341.016
 11  8 13  1 33 30.0000000  0  8G10G30G17G25G02G04G12G05
 111999260.777 7  87272274.72045  21312735.313                    21312744.504
 115027163.027 7  89631563.15445  21888928.289                    21888937.820
 127078503.187 6  99022220.705 6  24182218.813                    24182228.715
 118852396.212 7  92612382.840 7  22616880.516                    22616892.598
 109158718.426 8  85058862.63346  20772193.023                    20772199.766
 120966958.281 7  94260096.12244  23019227.891                    23019237.813
 109206179.191 8  85095869.771 8  20781266.898                    20781275.246
 109204568.100 8  85094601.131 8  20780938.234                    20780947.496
 11  8 13  1 34  0.0000000  0  8G10G30G17G25G02G04G12G05
 112051080.004 7  87312653.33545  21322596.492                    21322605.691
 114974105.518 8  89590219.65745  21878831.672                    21878841.359
 127147705.856 6  99076144.818 6  24195387.188                    24195397.148
 118779305.109 7  92555428.788 7  22602972.086                    22602983.895
 109179332.066 8  85074925.20346  20776115.227                    20776121.887
 121049560.586 7  94324461.57244  23034946.445                    23034956.234
 109193443.918 8  85085946.188 7  20778843.438                    20778851.977
 109150459.446 8  85052438.598 8  20770641.531                    20770650.555
 11  8 13  1 34 30.0000000  0  8G10G30G17G25G02G04G12G05
 112103447.821 7  87353459.42545  21332561.852                    21332570.902
 114921589.723 8  89549298.28745  21868838.859                    21868848.211
 127217093.760 6  99130213.261 6  24208591.289                    24208601.414
 118706624.843 7  92498794.868 7  22589141.414                    22589153.332
 109200137.086 8  85091136.91246  20780075.055                    20780081.363
 121132167.813 7  94388830.85944  23050666.102                    23050675.664
 109181285.131 8  85076471.814 7  20776529.781                    20776537.930
 109096863.724 8  85010675.744 7  20760442.516                    20760451.488
 11  8 13  1 35  0.0000000  0  8G10G30G17G25G02G04G12G05
 112156362.617 7  87394691.72445  21342631.156                    21342640.023
 114869617.747 8  89508800.65845  21858949.055                    21858958.160
 127286666.798 6  99184426.002 6  24221830.836                    24221841.574
 118634358.032 7  92442483.106 7  22575389.688                    22575401.496
 109221132.510 7  85107496.98046  20784070.305                    20784076.832
 121214779.024 7  94453203.26444  23066386.016                    23066396.359
 109169703.613 8  85067447.260 8  20774325.836                    20774334.211
 109043783.179 8  84969314.317 8  20750341.781                    20750350.957
 11  8 13  1 35 30.0000000  0  8G10G30G17G25G02G04G12G05
 112209822.064 7  87436348.43645  21352804.641                    21352813.453
 114818191.347 8  89468728.15845  21849162.797                    21849171.895
 127356424.988 6  99238783.011 6  24235104.586                    24235116.047
 118562507.057 7  92386495.386 7  22561716.406                    22561728.715
 109242317.177 8  85124004.51046  20788101.563                    20788107.875
 121297392.932 6  94517577.75244  23082107.500                    23082117.199
 109158699.676 8  85058872.774 7  20772231.984                    20772240.508
 108991219.232 8  84928355.437 8  20740339.289                    20740348.000
 11  8 13  1 36  0.0000000  0  9G10G30G29G17G25G02G04G12G05
 112263823.981 7  87478427.85645  21363080.492                    21363089.109
 114767312.415 8  89429082.26345  21839480.352                    21839489.781
 129602722.58416 100989233.59316  24662597.031                    24662608.375
 127426368.485 6  99293284.390 6  24248415.133                    24248425.855
 118491074.300 7  92330833.542 7  22548123.523                    22548134.891
 109263690.061 8  85140658.71246  20792168.406                    20792175.016
 121380008.597 6  94581953.55244  23097828.547                    23097838.148
 109148274.100 8  85050748.956 7  20770248.008                    20770256.293
 108939173.572 8  84887800.425 8  20730435.203                    20730443.863
 11  8 13  1 36 30.0000000  0  9G10G30G29G17G25G02G04G12G05
 112318366.419 7  87520928.46345  21373459.828                    21373468.480
 114716982.473 8  89389864.15245  21829903.055                    21829912.535
 129522927.023 6 100927055.289 6  24647412.633                    24647423.723
 127496497.168 6  99347930.107 6  24261759.945                    24261771.000
 118420062.019 7  92275499.339 7  22534610.195                    22534622.035
 109285249.862 8  85157458.56446  20796271.281                    20796277.668
 121462624.677 6  94646329.70844  23113549.469                    23113559.570
 109138427.623 8  85043076.390 7  20768373.953                    20768382.504
 108887647.907 8  84847650.611 8  20720630.055                    20720638.938
 11  8 13  1 37  0.0000000  0  9G10G30G29G17G25G02G04G12G05
 112373447.087 7  87563848.47945  21383941.336                    21383949.914
 114667203.479 8  89351075.35245  21820430.414                    21820439.652
 129443057.280 6 100864819.214 6  24632213.688                    24632225.027
 127566810.991 6  99402720.087 6  24275141.383                    24275150.703
 118349472.724 7  92220494.732 7  22521177.445                    22521189.359
 109306995.593 8  85174403.29446  20800409.414                    20800415.988
 121545240.395 6  94710705.56944  23129270.523                    23129281.074
 109129160.416 8  85035855.197 7  20766610.656                    20766618.773
 108836643.808 8  84807907.197 8  20710924.602                    20710933.113
 11  8 13  1 37 30.0000000  0  9G10G30G29G17G25G02G04G12G05
 112429064.330 7  87607186.59745  21394524.406                    21394533.531
 114617977.415 8  89312717.40845  21811062.781                    21811072.367
 129363114.001 6 100802525.812 6  24617000.695                    24617011.926
 127637309.992 6  99457654.345 6  24288555.922                    24288566.168
 118279308.938 7  92165821.699 7  22507825.563                    22507837.172
 109328926.575 8  85191492.38246  20804582.531                    20804588.867
 121627854.823 7  94775080.43744  23144992.102                    23145001.605
 109120473.473 8  85029086.160 7  20764957.367                    20764965.715
 108786162.982 8  84768571.544 8  20701318.086                    20701327.227
 11  8 13  1 38  0.0000000  0  9G10G30G29G17G25G02G04G12G05
 112485215.767 7  87650940.97745  21405209.367                    21405218.648
 114569305.638 7  89274791.37545  21801800.961                    21801810.156
 129283097.383 6 100740175.240 6  24601774.063                    24601785.977
 127707994.087 6  99512732.834 6  24302006.586                    24302017.027
 118209572.795 7  92111481.871 7  22494555.359                    22494566.598
 109351041.058 8  85208724.46246  20808790.898                    20808797.328
 121710466.592 7  94839453.25544  23160712.766                    23160722.711
 109112366.723 8  85022769.209 7  20763414.703                    20763423.238
 108736206.816 8  84729644.704 8  20691811.680                    20691820.629
 11  8 13  1 38 30.0000000  0  9G10G30G29G17G25G02G04G12G05
 112541899.241 7  87695109.91545  21415996.414                    21416005.293
 114521190.146 7  89237298.82545  21792645.172                    21792653.816
 129203008.316 6 100677768.214 6  24586533.906                    24586545.156
 127778863.331 6  99567955.581 6  24315493.039                    24315503.281
 118140266.759 7  92057477.193 7  22481367.023                    22481378.430
 109373338.446 8  85226099.05846  20813033.484                    20813040.242
 121793074.586 7  94903823.11444  23176432.156                    23176442.645
 109104841.343 8  85016905.284 7  20761982.789                    20761990.855
 108686777.293 8  84691128.243 7  20682405.766                    20682414.336
 11  8 13  1 39  0.0000000  0  9G10G30G29G17G25G02G04G12G05
 112599112.527 7  87739691.71345  21426883.898                    21426892.488
 114473632.188 8  89200240.71245  21783594.766                    21783604.180
 129122846.994 6 100615304.935 5  24571279.211                    24571290.707
 127849917.598 6  99623322.477 6  24329014.984                    24329024.809
 118071392.979 7  92003809.330 7  22468260.258                    22468271.824
 109395817.542 8  85243615.24746  20817311.352                    20817317.551
 121875677.909 7  94968189.32644  23192151.602                    23192161.297
 109097897.312 8  85011494.366 8  20760661.352                    20760669.574
 108637875.514 8  84653023.013 8  20673099.930                    20673108.836
 11  8 13  1 39 30.0000000  0  9G10G30G29G17G25G02G04G12G05
 112656853.535 8  87784684.71745  21437871.117                    21437880.059
 114426633.744 8  89163618.60045  21774651.148                    21774660.840
 129042614.162 6 100552785.850 6  24556011.805                    24556022.711
 127921156.980 6  99678833.664 6  24342570.469                    24342581.305
 118002953.824 7  91950480.140 7  22455237.367                    22455249.066
 109418477.296 8  85261272.20646  20821623.516                    20821629.813
 121958275.468 7  95032551.05844  23207869.016                    23207879.383
 109091535.311 8  85006536.970 8  20759450.711                    20759459.273
 108589503.172 8  84615330.321 8  20663894.984                    20663903.449
 11  8 13  1 40  0.0000000  0  9G10G30G29G17G25G02G04G12G05
 112715119.976 7  87830087.15045  21448958.898                    21448967.828
 114380196.290 7  89127433.59845  21765814.406                    21765823.996
 128962310.126 6 100490211.254 6  24540730.242                    24540741.027
 127992581.384 6  99734489.046 6  24356163.281                    24356172.129
 117934951.604 7  91897491.415 7  22442296.375                    22442307.961
 109441316.337 8  85279068.87846  20825969.414                    20825976.020
 122040866.245 7  95096907.51244  23223585.055                    23223595.141
 109085755.039 8  85002032.874 8  20758350.398                    20758359.191
 108541661.611 8  84578051.232 8  20654790.977                    20654799.516
 11  8 13  1 40 30.0000000  0  9G10G30G29G17G25G02G04G12G05
 112773909.323 7  87875897.03545  21460146.359                    21460155.211
 114334321.364 8  89091686.93045  21757084.703                    21757093.883
 128881935.816 6 100427581.882 6  24525436.273                    24525446.117
 128064190.427 6  99790288.286 6  24369789.016                    24369799.344
 117867388.536 7  91844844.915 7  22429439.813                    22429451.309
 109464333.584 8  85297004.42246  20830349.906                    20830356.008
 122123449.178 7  95161257.82544  23239300.938                    23239310.309
 109080557.212 8  84997982.639 7  20757361.711                    20757370.086
 108494352.332 8  84541186.896 8  20645788.281                    20645797.223
 11  8 13  1 41  0.0000000  0  9G10G30G29G17G25G02G04G12G05
 112833219.497 7  87922112.77245  21471432.633                    21471441.535
 114289010.747 8  89056379.98645  21748462.523                    21748471.977
 128801491.748 6 100364898.220 6  24510127.563                    24510138.965
 128135984.531 6  99846231.779 6  24383451.047                    24383461.770
 117800267.113 7  91792542.554 7  22416667.031                    22416678.590
 109487528.611 8  85315078.49446  20834763.445                    20834769.965
 122206023.304 7  95225601.29044  23255014.328                    23255023.891
 109075942.477 8  84994386.748 7  20756483.313                    20756491.816
 108447576.927 8  84504738.565 8  20636887.148                    20636896.219
 11  8 13  1 41 30.0000000  0  9G10G30G29G17G25G02G04G12G05
 112893048.340 7  87968732.65245  21482818.016                    21482826.699
 114244266.027 8  89021514.00345  21739948.008                    21739957.410
 128720978.632 6 100302160.715 6  24494806.391                    24494817.504
 128207963.339 6  99902319.218 6  24397147.680                    24397158.027
 117733589.593 7  91740586.085 7  22403978.727                    22403990.066
 109510900.116 7  85333290.07946  20839210.938                    20839217.250
 122288587.689 6  95289937.17244  23270725.148                    23270735.453
 109071911.050 8  84991245.398 7  20755716.313                    20755724.840
 108401336.833 8  84468707.365 8  20628087.703                    20628096.648
 11  8 13  1 42  0.0000000  0  9G10G30G29G17G25G02G04G12G05
 112953393.525 7  88015754.89245  21494301.172                    21494309.563
 114200088.819 8  88987090.23245  21731541.055                    21731550.910
 128640396.844 6 100239369.723 6  24479471.500                    24479482.598
 128280126.570 6  99958550.264 6  24410879.695                    24410890.379
 117667358.258 7  91688977.300 7  22391375.422                    22391387.121
 109534446.962 8  85351638.29646  20843691.523                    20843698.527
 122371141.520 6  95354264.82143  23286434.844                    23286444.184
 109068463.317 7  84988558.865 8  20755060.445                    20755068.500
 108355633.563 8  84433094.468 8  20619391.031                    20619399.645
 11  8 13  1 42 30.0000000  0  9G10G30G29G17G25G02G04G12G05
 113014252.794 7  88063177.70345  21505882.094                    21505890.895
 114156480.609 8  88953109.84645  21723242.609                    21723252.508
 128559747.083 6 100176525.743 6  24464124.898                    24464135.879
 128352474.462 6 100014925.241 6  24424647.617                    24424657.570
 117601575.293 7  91637717.901 7  22378857.359                    22378868.805
 109558168.209 8  85370122.40846  20848205.586                    20848212.402
 122453683.714 6  95418583.40643  23302141.641                    23302152.059
 109065599.527 7  84986327.350 7  20754515.188                    20754523.641
 108310468.326 8  84397900.818 7  20610796.281                    20610804.879
 11  8 13  1 43  0.0000000  0  9G10G30G29G17G25G02G04G12G05
 113075623.778 7  88110999.25445  21517560.508                    21517569.672
 114113442.700 8  88919573.84145  21715053.008                    21715062.406
 128479029.818 6 100113629.226 6  24448764.516                    24448776.445
 128425006.879 6 100071444.122 6  24438449.398                    24438459.844
 117536242.850 7  91586809.551 7  22366424.977                    22366436.320
 109582062.581 8  85388741.42246  20852752.500                    20852759.094
 122536213.315 6  95482892.18644  23317846.578                    23317857.215
 109063320.039 8  84984551.143 7  20754081.398                    20754089.855
 108265842.725 8  84363127.668 8  20602304.250                    20602313.223
 11  8 13  1 43 30.0000000  0  9G10G30G29G17G25G02G04G12G05
 113137504.328 7  88159217.85945  21529336.117                    21529345.297
 114070976.783 8  88886483.55245  21706971.617                    21706981.480
 128398245.760 6 100050680.636 6  24433392.500                    24433403.379
 128497723.526 6 100128106.475 6  24452287.539                    24452297.789
 117471363.309 7  91536254.116 7  22354078.320                    22354090.406
 109606129.186 8  85407494.64746  20857332.492                    20857338.887
 122618729.337 6  95547190.35544  23333549.398                    23333559.883
 109061624.807 8  84983230.199 7  20753758.727                    20753767.227
 108221757.727 8  84328775.761 8  20593914.984                    20593923.930
 11  8 13  1 44  0.0000000  0  9G10G30G29G17G25G02G04G12G05
 113199891.765 7  88207831.46145  21541207.836                    21541216.738
 114029084.123 7  88853839.95745  21698999.891                    21699009.117
 128317395.618 6  99987680.559 6  24418006.758                    24418018.039
 128570624.26316 100184912.30816  24466160.305                    24466170.430
 117406938.678 7  91486053.167 7  22341819.125                    22341830.363
 109630367.055 8  85426381.32746  20861944.594                    20861951.031
 122701230.766 6  95611477.16344  23349249.070                    23349258.855
 109060513.878 8  84982364.544 7  20753547.336                    20753555.164
 108178214.765 8  84294846.222 8  20585629.016                    20585637.730
 11  8 13  1 44 30.0000000  0  9G10G30G29G17G25G02G04G12G05
 113262784.174 7  88256838.52945  21553176.078                    21553184.816
 113987766.600 8  88821644.51245  21691137.313                    21691146.660
 128236480.033 6  99924629.548 6  24402610.039                    24402620.492
 128643709.440 6 100241861.836 6  24480067.352                    24480077.684
 117342971.572 7  91436208.717 7  22329646.320                    22329657.824
 109654775.312 8  85445400.78146  20866589.461                    20866595.820
 122783716.931 6  95675752.05044  23364945.508                    23364955.711
 109059987.758 8  84981954.595 7  20753447.305                    20753455.684
 108135215.390 8  84261340.252 8  20577446.328                    20577455.078
 11  8 13  1 45  0.0000000  0  9G10G30G29G17G25G02G04G12G05
 113326178.649 7  88306236.82745  21565239.555                    21565248.664
 113947025.167 8  88789897.96245  21683384.422                    21683394.016
 128155499.681 6  99861528.055 6  24387199.914                    24387210.484
 128716978.515 6 100298954.681 6  24494010.875                    24494020.414
 117279463.738 7  91386722.146 7  22317560.867                    22317572.902
 109679352.927 8  85464552.20246  20871266.320                    20871272.688
 122866186.572 6  95740014.07744  23380638.891                    23380649.246
 109060046.266 8  84982000.193 7  20753458.297                    20753466.492
 108092760.654 8  84228258.680 8  20569367.547                    20569376.258
 11  8 13  1 45 30.0000000  0  8G10G30G29G25G02G04G12G05
 113390072.470 7  88356024.21945  21577398.133                    21577407.438
 113906860.790 7  88758601.07745  21675741.547                    21675750.859
 128074454.566 6  99798376.127 6  24371776.695                    24371788.199
 117216416.954 7  91337594.827 7  22305563.211                    22305575.359
 109704098.161 8  85483834.22046  20875974.984                    20875981.578
 122948638.632 6  95804262.43144  23396328.820                    23396339.148
 109060689.823 8  84982501.685 7  20753580.766                    20753589.102
 108050851.437 8  84195602.186 8  20561392.531                    20561401.266
 11  8 13  1 46  0.0000000  0  8G10G30G29G25G02G04G12G05
 113454463.527 7  88406199.07545  21589651.508                    21589660.184
 113867275.135 7  88727755.14145  21668208.375                    21668217.910
 127993345.816 6  99735174.579 6  24356341.938                    24356352.902
 117153833.625 7  91288828.643 7  22293654.289                    22293666.230
 109729010.243 8  85503246.24646  20880715.617                    20880721.945
 123031072.118 6  95868496.30244  23412015.516                    23412025.902
 109061917.760 8  84983458.524 7  20753814.531                    20753822.848
 108009489.003 8  84163371.752 8  20553521.500                    20553530.098
 11  8 13  1 46 30.0000000  0  8G10G30G29G25G02G04G12G05
 113519350.022 7  88456759.98445  21601999.063                    21602007.516
 113828269.852 7  88697361.43145  21660785.844                    21660795.277
 127912174.216 6  99671924.046 6  24340895.266                    24340906.645
 117091716.259 7  91240425.532 7  22281833.531                    22281845.156
 109754088.450 8  85522787.71546  20885487.992                    20885494.430
 123113486.604 6  95932715.37944  23427698.547                    23427708.707
 109063730.641 8  84984871.185 7  20754159.484                    20754167.973
 107968675.104 8  84131568.753 8  20545755.164                    20545763.383
 11  8 13  1 47  0.0000000  0  8G10G30G29G25G02G04G12G05
 113584729.478 7  88507705.01845  21614440.086                    21614448.996
 113789846.497 8  88667421.15945  21653474.039                    21653483.711
 127830940.642 6  99608625.214 6  24325437.031                    24325448.355
 117030067.176 7  91192387.330 7  22270102.352                    22270113.539
 109779332.231 8  85542458.20846  20890291.539                    20890298.035
 123195881.515 6  95996919.20444  23443377.891                    23443387.746
 109066129.189 8  84986740.204 7  20754615.922                    20754624.211
 107928410.998 8  84100194.166 8  20538092.734                    20538101.305
 11  8 13  1 47 30.0000000  0  8G10G30G29G25G02G04G12G05
 113650599.041 7  88559031.95645  21626974.602                    21626983.652
 113752006.063 7  88637935.11145  21646273.695                    21646282.875
 127749645.612 6  99545278.492 6  24309967.227                    24309978.340
 116968888.302 7  91144715.523 7  22258460.008                    22258471.887
 109804740.115 8  85562256.56746  20895126.758                    20895133.344
 123278255.566 6  96061106.74344  23459052.898                    23459063.250
 109069113.021 8  84989065.294 7  20755183.234                    20755192.387
 107888697.792 8  84069248.851 8  20530535.477                    20530544.047
 11  8 13  1 48  0.0000000  0  8G10G30G29G25G02G04G12G05
 113716956.462 7  88610739.03345  21639601.875                    21639611.035
 113714749.712 8  88608904.19545  21639183.742                    21639192.965
 127668289.786 6  99481884.380 6  24294486.352                    24294496.781
 116908181.564 7  91097411.625 7  22246908.344                    22246919.723
 109830311.150 8  85582182.06846  20899992.938                    20899998.969
 123360607.974 7  96125277.43044  23474724.602                    23474733.914
 109072681.783 8  84991846.173 7  20755862.703                    20755871.270
 107849536.293 8  84038733.440 8  20523083.391                    20523091.996
 11  8 13  1 48 30.0000000  0  8G10G30G29G25G02G04G12G05
 113783799.604 7  88662824.61145  21652321.844                    21652331.105
 113678079.306 7  88580329.85645  21632205.977                    21632215.258
 127586874.464 6  99418443.922 6  24278992.727                    24279004.086
 116847949.543 8  91050477.611 7  22235446.227                    22235457.957
 109856044.806 8  85602234.28046  20904889.531                    20904896.320
 123442938.350 6  96189430.95844  23490391.367                    23490400.863
 109076836.165 8  84995083.375 7  20756653.414                    20756661.418
 107810927.976 8  84008649.090 8  20515736.344                    20515745.094
 11  8 13  1 49  0.0000000  0  8G10G30G29G25G02G04G12G05
 113851125.471 7  88715286.33445  21665133.578                    21665142.699
 113641995.317 7  88552212.46545  21625339.023                    21625348.574
 127505399.569 6  99354957.059 6  24263489.305                    24263499.961
 116788193.735 8  91003914.678 7  22224075.805                    22224087.035
 109881939.485 8  85622411.96246  20909817.078                    20909823.648
 123525245.275 6  96253566.25843  23506054.031                    23506063.219
 109081575.096 8  84998776.069 7  20757555.188                    20757563.648
 107772873.653 8  83978996.441 8  20508494.672                    20508503.395
 11  8 13  1 49 30.0000000  0  8G10G30G29G25G02G04G12G05
 113918931.740 7  88768122.39445  21678036.531                    21678045.645
 113606499.522 8  88524553.41545  21618584.430                    21618593.965
 127423866.623 6  99291424.940 6  24247973.438                    24247984.379
 116728916.665 8  90957724.781 7  22212795.125                    22212806.840
 109907994.721 8  85642714.74446  20914775.172                    20914781.867
 123607528.145 6  96317682.80143  23521711.844                    23521721.566
 109086899.155 8  85002924.723 7  20758568.289                    20758576.629
 107735374.814 8  83949776.619 8  20501359.219                    20501367.773
 11  8 13  1 50  0.0000000  0  8G10G30G29G25G02G04G12G05
 113987215.869 7  88821330.81645  21691030.750                    21691039.578
 113571592.767 8  88497353.34845  21611942.406                    21611951.410
 127342275.866 6  99227847.778 6  24232446.969                    24232458.434
 116670120.112 8  90911909.312 7  22201606.586                    22201617.910
 109934209.534 8  85663141.87346  20919763.945                    20919770.215
 123689786.179 6  96381779.95743  23537364.523                    23537374.887
 109092808.169 8  85007529.177 7  20759692.391                    20759700.375
 107698432.065 8  83920990.112 8  20494329.008                    20494337.586
 11  8 13  1 50 30.0000000  0  8G10G30G29G25G02G04G12G05
 114055975.516 7  88874909.76845  21704115.172                    21704124.082
 113537276.290 8  88470613.24745  21605411.617                    21605421.281
 127260628.358 6  99164226.421 6  24216910.406                    24216920.941
 116611806.231 8  90866469.940 7  22190509.766                    22190521.152
 109960582.790 8  85683692.46346  20924782.406                    20924788.781
 123772018.534 6  96445857.11843  23553012.594                    23553022.215
 109099302.090 8  85012589.395 7  20760928.414                    20760936.094
 107662046.531 8  83892637.784 8  20487404.836                    20487413.168
 11  8 13  1 51  0.0000000  0  8G10G30G29G25G02G04G12G05
 114125207.999 7  88928857.17045  21717289.539                    21717298.512
 113503551.245 8  88444333.99545  21598994.578                    21599003.313
 127178924.690 7  99100561.254 6  24201362.531                    24201372.734
 116553976.949 8  90821408.174 7  22179505.234                    22179516.504
 109987113.579 8  85704365.80046  20929831.172                    20929837.750
 123854224.433 6  96509913.63543  23568656.242                    23568666.410
 109106380.930 8  85018105.395 7  20762275.281                    20762283.445
 107626219.169 8  83864720.392 8  20480587.344                    20480595.875
 11  8 13  1 51 30.0000000  0  8G10G30G29G25G02G04G12G05
 114194910.532 7  88983170.82645  21730554.016                    21730562.570
 113470418.372 7  88418516.17645  21592689.164                    21592698.277
 127097165.325 7  99036852.739 5  24185804.523                    24185814.828
 116496633.991 7  90776725.356 7  22168593.063                    22168604.363
 110013800.486 8  85725160.79446  20934909.750                    20934915.930
 123936402.741 6  96573948.65243  23584294.156                    23584304.938
 109114043.358 8  85024076.129 7  20763733.211                    20763741.434
 107590950.830 7  83837238.601 8  20473875.586                    20473884.574
 11  8 13  1 52  0.0000000  0  8G10G30G29G25G02G04G12G05
 114265080.772 7  89037848.93945  21743906.742                    21743915.496
 113437879.134 7  88393160.93945  21586496.938                    21586506.457
 127015351.363 7  98973101.630 5  24170235.484                    24170245.309
 116439779.709 8  90732423.332 7  22157774.195                    22157785.477
 110040643.189 8  85746077.17946  20940017.273                    20940023.984
 124018553.103 7  96637961.94743  23599926.969                    23599936.945
 109122289.930 8  85030502.033 7  20765302.898                    20765311.063
 107556242.959 8  83810193.534 8  20467271.297                    20467279.730
 11  8 13  1 52 30.0000000  0  8G10G30G29G25G02G04G12G05
 114335716.103 7  89092889.46645  21757348.430                    21757357.281
 113405934.499 7  88368269.02745  21580418.695                    21580427.680
 126933483.386 6  98909308.452 6  24154656.766                    24154666.688
 116383415.994 8  90688503.567 7  22147048.781                    22147059.770
 110067640.426 8  85767113.98446  20945154.609                    20945161.246
 124100674.689 7  96701952.81743  23615553.844                    23615564.523
 109131120.577 8  85037383.057 7  20766983.188                    20766991.043
 107522096.059 7  83783585.594 8  20460773.008                    20460781.883
 11  8 13  1 53  0.0000000  0  8G10G30G29G25G02G04G12G05
 114406813.809 7  89148290.26045  21770877.609                    21770886.703
 113374585.366 8  88343841.15645  21574452.594                    21574461.633
 126851562.407 6  98845473.992 6  24139067.336                    24139078.039
 116327544.684 8  90644967.488 7  22136416.578                    22136427.727
 110094791.392 8  85788270.57246  20950321.336                    20950327.988
 124182766.654 7  96765920.57043  23631175.883                    23631185.523
 109140534.652 8  85044718.702 7  20768774.539                    20768782.609
 107488510.934 8  83757415.392 8  20454382.055                    20454390.598
 11  8 13  1 53 30.0000000  0  8G10G30G29G25G02G04G12G05
 114478371.460 7  89204049.46045  21784494.773                    21784503.281
 113343832.958 7  88319878.26945  21568600.961                    21568609.980
 126769589.316 6  98781598.933 6  24123468.313                    24123479.391
 116272167.848 8  90601816.708 7  22125878.969                    22125890.086
 110122095.252 8  85809546.29946  20955517.227                    20955523.574
 124264828.340 7  96829864.75043  23646791.039                    23646802.020
 109150532.156 8  85052508.972 8  20770677.117                    20770685.223
 107455488.834 7  83731683.923 8  20448098.070                    20448106.672
 11  8 13  1 54  0.0000000  0  8G10G30G29G25G02G04G12G05
 114550386.404 7  89260165.00545  21798198.203                    21798207.363
 113313678.079 7  88296380.99245  21562862.273                    21562871.535
 126687565.101 6  98717684.034 6  24107859.586                    24107870.996
 116217287.298 8  90559052.643 7  22115435.430                    22115446.703
 110149550.958 8  85830940.35546  20960741.977                    20960748.492
 124346858.797 7  96893784.56444  23662401.391                    23662412.059
 109161112.599 8  85060753.470 7  20772690.039                    20772698.641
 107423030.346 7  83706391.589 8  20441921.375                    20441930.262
 11  8 13  1 54 30.0000000  0  8G10G30G29G25G02G04G12G05
 114622856.269 7  89316635.01045  21811989.313                    21811997.898
 113284121.840 7  88273350.18945  21557237.930                    21557247.445
 126605490.414 6  98653729.837 6  24092240.883                    24092252.465
 116162905.210 8  90516676.979 7  22105086.930                    22105098.184
 110177157.881 8  85852452.24346  20965995.430                    20966001.676
 124428857.659 7  96957679.77544  23678005.617                    23678015.570
 109172275.887 8  85069452.128 7  20774814.484                    20774823.324
 107391136.792 8  83681539.489 8  20435852.344                    20435860.789
 11  8 13  1 55  0.0000000  0  8G10G30G29G25G02G04G12G05
 114695778.058 7  89373457.18545  21825865.719                    21825874.488
 113255164.802 8  88250786.29745  21551727.688                    21551736.902
 126523365.824 6  98589736.679 6  24076613.195                    24076624.645
 116109023.025 8  90474690.868 7  22094833.688                    22094844.555
 110204914.758 8  85874080.98546  20971277.203                    20971283.801
 124510823.946 7  97021549.60844  23693603.305                    23693613.168
 109184021.275 8  85078604.369 8  20777049.898                    20777058.320
 107359808.269 8  83657127.680 8  20429890.703                    20429899.387
 11  8 13  1 55 30.0000000  0  8G10G30G29G25G02G04G12G05
 114769149.253 7  89430629.53545  21839827.633                    21839836.629
 113226808.104 7  88228690.20145  21546331.422                    21546341.277
 126441192.450 6  98525705.508 6  24060976.031                    24060987.336
 116055642.894 8  90433095.962 7  22084675.594                    22084687.184
 110232820.902 8  85895826.03146  20976587.836                    20976593.906
 124592757.054 7  97085393.58944  23709194.609                    23709204.629
 109196348.832 8  85088210.262 7  20779395.523                    20779403.922
 107329045.882 8  83633157.006 8  20424036.922                    20424045.367
 11  8 13  1 56  0.0000000  0  8G10G30G29G25G02G04G12G05
 114842967.218 7  89488150.00345  21853874.539                    21853883.762
 113199052.663 8  88207062.61745  21541049.633                    21541059.000
 126358971.132 6  98461636.961 6  24045329.414                    24045341.238
 116002766.697 8  90391893.732 7  22074613.641                    22074624.820
 110260875.293 8  85917686.59146  20981926.328                    20981932.660
 124674656.193 7  97149211.09744  23724779.445                    23724789.969
 109209257.649 8  85098269.073 7  20781852.055                    20781860.449
 107298850.288 8  83609628.004 8  20418290.648                    20418299.293
 11  8 13  1 56 30.0000000  0  8G10G30G29G25G02G04G12G05
 114917229.260 7  89546016.52745  21868006.742                    21868015.391
 113171899.219 8  88185904.12646  21535882.836                    21535892.109
 126276702.636 6  98397531.680 6  24029674.609                    24029685.676
 115950396.127 8  90351085.503 7  22064647.734                    22064659.117
 110289077.195 8  85939662.10246  20987292.711                    20987299.730
 124756520.741 7  97213001.67343  23740358.039                    23740367.695
 109222747.235 8  85108780.439 7  20784419.148                    20784427.492
 107269222.318 8  83586541.301 8  20412652.688                    20412661.371
 11  8 13  1 57  0.0000000  0  8G10G30G29G25G02G04G12G05
 114991932.699 7  89604226.97845  21882221.695                    21882231.020
 113145348.448 8  88165215.25445  21530830.180                    21530839.488
 126194387.943 7  98333390.355 6  24014011.141                    24014021.531
 115898532.871 8  90310672.591 7  22054778.094                    22054789.723
 110317425.371 7  85961751.60246  20992687.258                    20992693.602
 124838349.942 7  97276764.71144  23755929.500                    23755939.633
 109236817.046 8  85119743.921 7  20787096.680                    20787104.996
 107240162.626 8  83563897.404 8  20407123.117                    20407131.238
 11  8 13  1 57 30.0000000  0  8G10G30G29G25G02G04G12G05
 115067074.825 7  89662779.27545  21896521.242                    21896529.949
 113119401.162 8  88144996.62445  21525893.172                    21525901.672
 126112027.783 7  98269213.619 6  23998338.727                    23998349.117
 115847178.849 8  90270656.490 7  22045005.719                    22045017.496
 110345919.073 8  85983954.50446  20998109.188                    20998115.770
 124920143.093 7  97340499.64343  23771493.633                    23771503.906
 109251467.087 8  85131159.540 7  20789884.359                    20789892.516
 107211671.741 8  83541696.739 8  20401701.141                    20401709.742
 11  8 13  1 58  0.0000000  0  8G10G30G29G25G02G04G12G05
 115142653.278 7  89721671.58845  21910903.477                    21910911.715
 113094058.346 8  88125249.01045  21521069.773                    21521078.777
 126029623.039 6  98205002.146 6  23982657.414                    23982667.449
 115796335.950 8  90231038.674 7  22035330.844                    22035342.281
 110374557.587 8  86006270.24146  21003559.320                    21003565.902
 125001899.636 7  97404206.03543  23787051.539                    23787061.207
 109266696.332 8  85143026.479 7  20792782.188                    20792790.477
 107183750.583 8  83519940.027 8  20396387.906                    20396396.371
 11  8 13  1 58 30.0000000  0  8G10G30G29G25G02G04G12G05
 115218665.013 7  89780901.51345  21925367.836                    21925376.555
 113069320.654 7  88105972.92545  21516362.477                    21516371.563
 125947175.376 7  98140757.224 6  23966968.102                    23966978.398
 115746005.952 8  90191820.517 7  22025753.406                    22025764.816
 110403340.146 8  86028698.22646  21009036.203                    21009043.059
 125083618.799 7  97467883.29943  23802602.195                    23802612.117
 109282504.355 8  85155344.423 7  20795790.523                    20795798.984
 107156399.628 7  83498627.614 8  20391183.352                    20391191.332
 11  8 13  1 59  0.0000000  0  8G10G30G29G25G02G04G12G05
 115295107.186 7  89840466.85145  21939914.922                    21939922.957
 113045188.625 8  88087168.78145  21511770.805                    21511779.305
 125864684.708 6  98076478.769 6  23951270.258                    23951281.059
 115696190.398 8  90153003.234 7  22016273.594                    22016285.246
 110432265.675 8  86051237.62046  21014540.750                    21014547.375
 125165300.172 6  97531531.11143  23818145.586                    23818155.930
 109298890.558 8  85168112.889 7  20798908.617                    20798916.820
 107129619.553 8  83477760.054 8  20386087.203                    20386095.258
 11  8 13  1 59 30.0000000  0  8G10G30G29G25G02G04G12G05
 115371977.231 7  89900365.57045  21954541.820                    21954551.066
 113021662.877 8  88068837.06445  21507293.516                    21507302.551
 125782152.875 6  98012168.305 6  23935565.203                    23935575.605
 115646890.911 8  90114588.097 7  22006892.266                    22006903.945
 110461333.333 8  86073887.75946  21020072.109                    21020078.500
 125246942.753 6  97595148.71743  23833681.109                    23833691.777
 109315854.525 8  85181331.561 7  20802136.906                    20802144.945
 107103410.596 8  83457337.530 8  20381099.680                    20381108.230
 11  8 13  2  0  0.0000000  0  8G10G30G29G25G02G04G12G05
 115449272.767 7  89960595.86045  21969250.961                    21969259.805
 112998744.284 8  88050978.45445  21502932.102                    21502941.480
 125699580.118 6  97947825.900 6  23919852.453                    23919862.613
 115598109.440 8  90076576.600 7  21997609.586                    21997621.270
 110490542.404 8  86096648.09446  21025630.305                    21025636.813
 125328546.103 6  97658735.73143  23849210.719                    23849220.336
 109333395.474 8  85194999.827 8  20805474.625                    20805483.176
 107077773.689 8  83437360.763 8  20376221.227                    20376229.359
 11  8 13  2  0 30.0000000  0  8G10G30G29G25G02G04G12G05
 115526990.913 7  90021155.44945  21984040.219                    21984049.355
 112976433.643 8  88033593.57645  21498686.648                    21498695.770
 125616967.876 6  97883452.771 6  23904131.453                    23904141.379
 115549847.878 8  90038970.234 7  21988425.805                    21988437.180
 110519892.208 8  86119518.08846  21031215.445                    21031222.074
 125410109.981 6  97722291.99443  23864731.297                    23864741.195
 109351513.193 8  85209117.529 7  20808922.570                    20808930.719
 107052709.604 8  83417830.348 8  20371451.883                    20371459.859
 11  8 13  2  1  0.0000000  0  8G10G30G29G25G02G04G12G05
 115605129.684 7  90082042.78645  21998909.469                    21998918.875
 112954732.236 7  88016683.41645  21494556.844                    21494565.816
 125534317.779 6  97819050.132 6  23888403.969                    23888414.535
 115502108.593 8  90001770.846 7  21979341.195                    21979352.691
 110549382.426 8  86142497.50146  21036827.141                    21036833.484
 125491634.288 6  97785817.42643  23880244.750                    23880254.789
 109370207.266 8  85223684.348 7  20812479.961                    20812488.449
 107028219.422 8  83398747.136 8  20366791.289                    20366799.625
 11  8 13  2  1 30.0000000  0  8G10G30G29G25G02G04G12G05
 115683684.974 7  90143254.68445  22013858.211                    22013866.777
 112933639.509 8  88000247.55745  21490543.047                    21490552.176
 125451629.871 6  97754617.999 6  23872668.445                    23872678.898
 115454892.094 8  89964978.838 7  21970356.070                    21970367.383
 110579011.378 8  86165585.01646  21042465.219                    21042471.551
 125573117.487 6  97849310.81043  23895750.633                    23895760.531
 109389476.068 8  85238699.004 7  20816146.656                    20816155.098
 107004302.322 8  83380110.487 8  20362239.977                    20362248.137
 11  8 13  2  2  0.0000000  0  8G10G30G29G25G02G04G12G05
 115762654.537 7  90204789.42745  22028885.898                    22028894.449
 112913155.860 8  87984286.30145  21486645.031                    21486654.352
 125368905.103 6  97690157.178 6  23856926.281                    23856937.117
 115408199.823 8  89928595.328 7  21961470.617                    21961482.621
 110608777.966 8  86188779.78446  21048129.797                    21048136.246
 125654558.785 6  97912771.56243  23911247.719                    23911258.617
 109409319.301 8  85254161.275 7  20819922.391                    20819930.824
 106980958.860 8  83361920.828 8  20357797.586                    20357806.289
 11  8 13  2  2 30.0000000  0  8G10G30G29G25G02G04G12G05
 115842035.887 7  90266645.02145  22043991.422                    22044000.094
 112893282.204 8  87968800.36345  21482863.359                    21482872.582
 125286144.721 7  97625668.599 6  23841177.266                    23841188.707
 115362033.888 8  89892621.951 7  21952685.609                    21952697.020
 110638681.881 8  86212081.55846  21053820.070                    21053826.406
 125735957.969 6  97976199.48643  23926737.703                    23926748.430
 109429735.834 8  85270070.263 7  20823807.547                    20823815.777
 106958189.835 8  83344178.787 8  20353465.070                    20353473.477
 11  8 13  2  3  0.0000000  0  8G10G30G29G25G02G04G12G05
 115921825.822 7  90328819.00045  22059174.766                    22059183.457
 112874018.891 7  87953790.02445  21479197.563                    21479206.637
 125203349.406 7  97561152.824 6  23825422.352                    23825433.488
 115316395.583 8  89857059.720 7  21944000.680                    21944011.941
 110668722.148 8  86235489.57346  21059536.711                    21059543.133
 125817314.317 6  98039594.05443  23942220.258                    23942229.977
 109450724.679 8  85286425.224 7  20827801.922                    20827809.895
 106935995.673 8  83326884.687 8  20349241.273                    20349250.125
 11  8 13  2  3 30.0000000  0  8G10G30G29G25G02G04G12G05
 116002021.306 7  90391308.98445  22074435.344                    22074444.164
 112855366.226 8  87939255.51045  21475648.195                    21475657.441
 125120520.078 6  97496610.516 6  23809660.250                    23809670.949
 115271286.401 8  89821909.785 7  21935416.539                    21935428.398
 110698897.806 8  86259003.09346  21065278.844                    21065285.359
 125898627.158 6  98102954.69943  23957693.039                    23957703.273
 109472284.910 8  85303225.427 7  20831904.828                    20831913.008
 106914376.397 8  83310038.534 8  20345127.547                    20345136.227
 11  8 13  2  4  0.0000000  0  8G10G30G29G25G02G04G12G05
 116082619.860 7  90454113.03845  22089773.203                    22089782.059
 112837324.811 8  87925197.29846  21472214.656                    21472224.031
 125037658.006 6  97432042.743 6  23793892.570                    23793903.242
 115226708.084 8  89787173.513 7  21926933.625                    21926944.820
 110729208.173 8  86282621.57046  21071046.734                    21071053.496
 125979896.053 6  98166281.09543  23973158.625                    23973168.324
 109494416.214 8  85320470.623 7  20836116.273                    20836124.008
 106893332.340 8  83293640.601 8  20341122.516                    20341131.223
 11  8 13  2  4 30.0000000  0  8G10G30G29G25G02G04G12G05
 116163618.535 7  90517228.87445  22105186.602                    22105195.531
 112819894.969 7  87911615.63545  21468897.984                    21468906.969
 124954764.311 7  97367450.314 6  23778118.586                    23778129.313
 115182661.986 8  89752851.942 7  21918551.641                    21918563.328
 110759652.389 8  86306344.34746  21076840.180                    21076846.414
 126061120.225 6  98229572.61743  23988614.164                    23988624.332
 109517117.376 8  85338159.852 7  20840435.734                    20840443.996
 106872863.972 8  83277691.268 8  20337227.672                    20337236.285
 11  8 13  2  5  0.0000000  0  8G10G30G29G25G02G04G12G05
 116245014.434 7  90580654.23345  22120676.109                    22120684.621
 112803076.764 8  87898510.57445  21465697.297                    21465706.793
 124871839.150 7  97302833.353 6  23762337.742                    23762348.832
 115139149.403 8  89718946.094 7  21910271.711                    21910283.145
 110790229.373 8  86330170.57546  21082658.828                    21082665.090
 126142299.172 6  98292828.94043  24004062.922                    24004072.922
 109540387.343 8  85356292.307 7  20844864.031                    20844871.633
 106852971.309 8  83262190.518 8  20333442.500                    20333450.566
 11  8 13  2  5 30.0000000  0  8G10G30G29G25G02G04G12G05
 116326804.810 7  90644386.99945  22136240.461                    22136248.559
 112786870.670 7  87885882.47445  21462613.883                    21462622.965
 124788884.448 7  97238193.415 6  23746551.859                    23746563.141
 115096171.902 8  89685457.188 7  21902093.281                    21902104.754
 110820938.531 8  86354099.80346  21088502.375                    21088509.016
 126223432.337 6  98356049.57143  24019501.930                    24019511.457
 109564225.245 8  85374867.323 7  20849400.164                    20849408.059
 106833654.765 8  83247138.693 8  20329766.500                    20329775.125
 11  8 13  2  6  0.0000000  0  8G10G30G29G25G02G04G12G05
 116408986.780 7  90708424.90545  22151878.211                    22151887.383
 112771276.957 8  87873731.56545  21459646.359                    21459655.207
 124705901.017 7  97173531.119 6  23730760.883                    23730771.422
 115053730.920 8  89652386.343 7  21894017.109                    21894028.695
 110851779.112 8  86378131.42646  21094371.594                    21094377.652
 126304519.409 6  98419234.33143  24034931.984                    24034941.910
 109588630.384 8  85393884.324 7  20854044.359                    20854052.906
 106814914.630 8  83232536.028 8  20326200.297                    20326208.988
 11  8 13  2  6 30.0000000  0  8G10G30G29G25G02G04G12G05
 116491557.894 7  90772766.02345  22167591.805                    22167600.316
 112756296.271 8  87862058.32845  21456795.336                    21456804.574
 124622890.456 7  97108847.661 6  23714964.383                    23714974.883
 115011828.263 8  89619734.966 7  21886043.234                    21886054.527
 110882750.719 8  86402265.14046  21100265.055                    21100271.090
 126385559.805 6  98482382.70343  24050353.250                    24050363.988
 109613601.812 8  85413342.601 7  20858796.711                    20858804.363
 106796751.429 8  83218382.909 8  20322743.813                    20322752.250
 11  8 13  2  7  0.0000000  0  8G10G30G29G25G02G04G12G05
 116574515.244 7  90837408.11845  22183377.273                    22183386.172
 112741928.954 8  87850863.04145  21454061.313                    21454070.727
 124539853.398 7  97044143.597 6  23699162.875                    23699173.371
 114970465.352 8  89587504.171 7  21878172.148                    21878183.273
 110913852.451 8  86426500.24346  21106183.148                    21106189.305
 126466553.445 7  98545494.62443  24065766.109                    24065776.348
 109639138.500 8  85433241.330 7  20863655.664                    20863663.559
 106779164.874 8  83204679.138 8  20319397.344                    20319406.000
 11  8 13  2  7 30.0000000  0  8G10G30G29G25G02G04G12G05
 116657856.098 7  90902349.05845  22199236.852                    22199245.625
 112728175.135 8  87840145.80145  21451444.055                    21451453.434
 124456791.366 7  96979420.065 6  23683356.438                    23683366.773
 114929643.668 8  89555695.092 7  21870403.977                    21870415.453
 110945083.884 8  86450836.42346  21112126.617                    21112133.121
 126547499.486 6  98608569.46443  24081169.680                    24081179.602
 109665239.594 8  85453579.846 7  20868622.313                    20868630.637
 106762155.481 8  83191425.096 8  20316160.633                    20316168.785
 11  8 13  2  8  0.0000000  0  8G10G30G29G25G02G04G12G05
 116741577.565 7  90967586.57444  22215168.500                    22215177.578
 112715035.049 8  87829906.80145  21448943.484                    21448952.672
 124373705.208 7  96914677.751 6  23667545.602                    23667556.539
 114889364.428 8  89524308.696 7  21862739.195                    21862750.262
 110976444.099 8  86475272.95646  21118094.156                    21118100.496
 126628397.654 6  98671606.98143  24096563.500                    24096573.926
 109691904.024 8  85474357.336 7  20873696.570                    20873704.535
 106745723.691 8  83178621.134 8  20313033.602                    20313042.164
 11  8 13  2  8 30.0000000  0  8G10G30G29G25G02G04G12G05
 116825677.071 7  91033118.65344  22231171.617                    22231180.688
 112702508.900 7  87820146.19745  21446559.852                    21446569.094
 124290596.119 7  96849917.535 6  23651730.945                    23651740.949
 114849629.055 8  89493346.086 7  21855177.805                    21855188.871
 111007932.101 8  86499809.06946  21124086.008                    21124092.422
 126709247.270 6  98734606.65143  24111949.313                    24111959.117
 109719130.550 8  85495572.833 7  20878877.664                    20878885.773
 106729869.347 8  83166267.132 8  20310016.625                    20310025.246
 11  8 13  2  9  0.0000000  0  8G10G30G29G25G02G04G12G05
 116910151.347 7  91098942.74645  22247246.930                    22247255.699
 112690596.526 8  87810863.84845  21444293.172                    21444302.047
 124207464.968 7  96785140.103 6  23635910.688                    23635920.965
 114810438.739 8  89462808.192 7  21847720.055                    21847731.125
 111039547.109 8  86524444.15846  21130102.297                    21130108.641
 126790047.827 6  98797568.12643  24127325.563                    24127334.891
 109746918.189 8  85517225.547 7  20884165.578                    20884173.645
 106714592.208 8  83154362.893 8  20307109.313                    20307117.922
 11  8 13  2  9 30.0000000  0  8G10G30G29G25G02G04G12G05
 116994997.664 7  91165056.75345  22263392.563                    22263401.891
 112679298.140 7  87802059.93446  21442142.859                    21442152.348
 124124313.062 7  96720346.540 6  23620087.281                    23620097.754
 114771794.773 8  89432696.023 7  21840366.344                    21840377.656
 111071288.458 8  86549177.68546  21136142.305                    21136148.766
 126870799.101 6  98860491.22443  24142690.922                    24142701.477
 109775265.696 8  85539314.539 7  20889559.719                    20889567.777
 106699892.666 8  83142908.732 8  20304312.031                    20304320.805
 11  8 13  2 10  0.0000000  0  8G10G30G29G25G02G04G12G05
 117080213.554 7  91231458.73444  22279608.977                    22279617.395
 112668614.142 8  87793734.76145  21440110.117                    21440119.277
 124041141.699 7  96655537.789 6  23604260.430                    23604270.910
 114733698.804 8  89403010.864 7  21833116.805                    21833128.000
 111103155.941 8  86574009.50646  21142206.711                    21142212.777
 126951500.686 6  98923375.58143  24158048.148                    24158058.395
 109804172.328 8  85561839.202 7  20895060.453                    20895068.457
 106685771.081 8  83131904.904 8  20301624.930                    20301633.629
 11  8 13  2 10 30.0000000  0  8G10G30G29G25G02G04G12G05
 117165795.801 7  91298146.19844  22295895.000                    22295903.359
 112658544.674 8  87785888.43546  21438194.063                    21438203.195
 123957952.196 7  96590714.931 6  23588430.258                    23588440.211
 114696152.065 8  89373753.693 7  21825971.969                    21825983.320
 111135148.625 8  86598938.89246  21148294.570                    21148301.234
 127032152.090 6  98986220.81343  24173395.492                    24173405.824
 109833636.533 8  85584798.328 7  20900667.141                    20900675.586
 106672227.204 8  83121351.262 8  20299047.438                    20299056.043
 11  8 13  2 11  0.0000000  0  8G10G30G29G25G02G04G12G05
 117251741.263 7  91365116.69744  22312249.188                    22312258.102
 112649089.360 7  87778520.67245  21436394.633                    21436403.461
 123874745.255 7  96525878.457 6  23572596.391                    23572606.348
 114659155.511 8  89344925.226 7  21818931.672                    21818942.957
 111167265.356 8  86623964.93146  21154405.914                    21154412.289
 127112752.662 6  99049026.41343  24188733.602                    24188743.602
 109863656.872 8  85608190.807 7  20906379.984                    20906388.383
 106659260.954 8  83111247.714 8  20296580.000                    20296588.742
 11  8 13  2 11 30.0000000  0  8G10G30G29G25G02G04G12G05
 117338047.556 7  91432368.33544  22328673.414                    22328681.508
 112640248.456 8  87771631.66746  21434712.367                    21434721.363
 123791522.212 7  96461029.459 6  23556759.344                    23556769.566
 114622710.643 8  89316526.654 7  21811996.453                    21812008.051
 111199505.927 8  86649087.48046  21160541.281                    21160547.844
 127193302.286 6  99111792.35143  24204061.586                    24204072.340
 109894232.917 8  85632016.310 7  20912198.555                    20912206.469
 106646872.592 8  83101594.475 8  20294222.852                    20294231.301
 11  8 13  2 12  0.0000000  0  8G10G30G29G25G02G04G12G05
 117424711.883 7  91499898.97344  22345164.367                    22345173.430
 112632022.039 7  87765221.48946  21433146.773                    21433155.953
 123708284.621 7  96396169.100 6  23540919.391                    23540929.813
 114586818.684 8  89288558.915 7  21805166.430                    21805177.492
 111231869.694 8  86674306.02646  21166699.617                    21166706.258
 127273800.508 6  99174518.20042  24219380.719                    24219390.156
 109925362.889 8  85656273.449 7  20918122.211                    20918130.195
 106635061.992 8  83092391.439 8  20291974.945                    20291983.551
 11  8 13  2 12 30.0000000  0  8G10G30G29G25G02G04G12G05
 117511731.118 7  91567706.13644  22361723.867                    22361732.383
 112624409.735 7  87759289.84146  21431698.289                    21431707.680
 123625032.959 7  96331297.757 6  23525077.125                    23525087.160
 114551480.488 8  89261022.684 7  21798442.055                    21798453.191
 111264355.642 8  86699619.77646  21172881.852                    21172887.984
 127354246.614 6  99237203.47942  24234688.117                    24234697.891
 109957045.724 8  85680961.396 7  20924151.445                    20924159.125
 106623828.722 8  83083638.271 8  20289837.789                    20289846.070
 11  8 13  2 13  0.0000000  0  8G10G30G29G25G02G04G12G05
 117599102.027 7  91635787.35944  22378350.133                    22378358.719
 112617411.400 7  87753836.61146  21430366.680                    21430375.766
 123541768.704 7  96266416.586 6  23509233.008                    23509242.613
 114516697.210 8  89233918.856 7  21791822.797                    21791834.012
 111296962.891 8  86725028.03846  21179086.781                    21179093.512
 127434640.262 6  99299847.87743  24249986.500                    24249996.980
 109989279.848 8  85706078.915 7  20930285.344                    20930293.438
 106613172.470 8  83075334.732 8  20287809.711                    20287818.094
 11  8 13  2 13 30.0000000  0  8G10G30G29G25G02G04G12G05
 117686822.439 7  91704140.90744  22395042.844                    22395052.027
 112611027.398 8  87748862.07846  21429151.625                    21429160.957
 123458493.550 7  96201526.923 6  23493386.383                    23493396.512
 114482470.363 8  89207248.614 7  21785309.547                    21785320.277
 111329691.437 8  86750530.81746  21185314.867                    21185321.109
 127514981.542 6  99362451.46043  24265275.219                    24265285.559
 110022064.286 8  85731625.251 7  20936524.023                    20936531.953
 106603093.742 8  83067481.215 8  20285892.102                    20285900.543
 11  8 13  2 14  0.0000000  0  8G10G30G29G25G02G04G12G05
 117774889.158 7  91772764.30744  22411801.141                    22411810.156
 112605257.194 8  87744365.83245  21428053.539                    21428062.633
 123375208.259 7  96136629.324 6  23477537.422                    23477547.742
 114448800.795 8  89181012.611 7  21778902.531                    21778913.492
 111362540.321 8  86776127.37246  21191565.914                    21191571.926
 127595269.527 6  99425013.55643  24280553.773                    24280563.617
 110055397.345 8  85757599.075 7  20942867.203                    20942874.965
 106593592.043 8  83060077.321 8  20284083.586                    20284091.984
 11  8 13  2 14 30.0000000  0  9G10G30G29G26G25G02G04G12G05
 117863299.228 7  91841655.27244  22428624.953                    22428633.813
 112600100.516 7  87740347.65446  21427071.906                    21427081.605
 123291914.125 7  96071724.836 6  23461687.008                    23461697.066
 130493936.96215 101683710.05253  24832189.508                    24832200.492
 114415689.463 8  89155211.604 7  21772601.680                    21772612.414
 111395508.580 8  86801816.94846  21197839.359                    21197845.793
 127675503.899 6  99487533.84943  24295822.141                    24295832.145
 110089277.590 8  85783999.279 7  20949314.180                    20949322.473
 106584667.071 8  83053122.822 8  20282385.141                    20282393.766
 11  8 13  2 15  0.0000000  0  9G10G30G29G26G25G02G04G12G05
 117952050.590 7  91910812.15644  22445513.984                    22445522.875
 112595558.220 7  87736808.21646  21426207.484                    21426217.352
 123208613.272 7  96006815.094 6  23445835.484                    23445845.629
 130400609.417 5 101610987.38943  24814430.063                    24814441.777
 114383138.416 7  89129847.182 7  21766407.570                    21766418.523
 111428596.664 8  86827599.89946  21204136.008                    21204142.016
 127755685.300 6  99550012.89243  24311079.523                    24311090.363
 110123705.041 8  85810825.877 7  20955865.672                    20955873.398
 106576319.564 8  83046618.314 8  20280796.938                    20280805.012
 11  8 13  2 15 30.0000000  0  9G10G30G29G26G25G02G04G12G05
 118041140.729 7  91980233.02044  22462467.586                    22462476.098
 112591630.410 7  87733747.59846  21425460.406                    21425469.309
 123125307.211 7  95941901.274 6  23429982.711                    23429992.934
 130307153.758 5 101538164.88842  24796646.211                    24796656.797
 114351148.961 8  89104920.361 7  21760319.930                    21760331.012
 111461804.270 8  86853475.98846  21210455.078                    21210461.367
 127835813.480 6  99612450.47543  24326327.156                    24326337.816
 110158678.147 8  85838077.677 7  20962520.500                    20962528.293
 106568549.756 8  83040563.945 8  20279318.242                    20279326.543
 11  8 13  2 16  0.0000000  0  9G10G30G29G26G25G02G04G12G05
 118130565.468 7  92049914.60844  22479484.547                    22479493.352
 112588315.524 7  87731164.58246  21424829.500                    21424838.547
 123041996.154 7  95876983.554 6  23414128.930                    23414139.059
 130213571.254 5 101465243.56143  24778837.656                    24778848.270
 114319720.941 8  89080431.029 7  21754339.047                    21754350.246
 111495129.674 8  86879443.86146  21216796.445                    21216803.074
 127915886.966 6  99674845.39243  24341564.758                    24341574.949
 110194194.032 8  85865752.424 7  20969278.664                    20969286.863
 106561356.048 8  83034958.482 8  20277949.516                    20277957.738
 11  8 13  2 16 30.0000000  0  9G10G30G29G26G25G02G04G12G05
 118220321.793 7  92119854.57044  22496564.195                    22496573.418
 112585613.239 7  87729058.92145  21424315.594                    21424324.195
 122958681.280 7  95812062.855 6  23398274.992                    23398284.949
 130119864.931 6 101392225.75243  24761006.383                    24761016.766
 114288855.299 8  89056379.903 7  21748465.938                    21748476.961
 111528571.969 8  86905502.82946  21223160.578                    21223166.793
 127995905.401 6  99737197.44043  24356791.609                    24356801.293
 110230251.805 8  85893849.437 7  20976140.648                    20976148.848
 106554738.099 8  83029801.667 8  20276689.875                    20276698.172
 11  8 13  2 17  0.0000000  0  9G10G30G29G26G25G02G04G12G05
 118310406.732 7  92190050.59244  22513706.477                    22513716.066
 112583522.962 7  87727430.14345  21423917.508                    21423926.684
 122875363.542 7  95747139.935 6  23382419.695                    23382429.883
 130026037.507 6 101319113.53443  24743151.664                    24743162.883
 114258552.722 8  89032767.525 7  21742699.391                    21742710.652
 111562130.152 8  86931652.09046  21229546.492                    21229552.609
 128075868.304 6  99799506.18843  24372008.570                    24372017.875
 110266849.567 8  85922367.222 7  20983104.984                    20983112.730
 106548695.236 8  83025092.967 8  20275539.922                    20275548.527
 11  8 13  2 17 30.0000000  0  9G10G30G29G26G25G02G04G12G05
 118400817.758 7  92260500.73844  22530911.820                    22530920.680
 112582044.894 8  87726278.42246  21423636.281                    21423645.273
 122792044.721 7  95682216.176 6  23366564.992                    23366575.023
 129932092.059 6 101245909.39143  24725274.359                    24725285.027
 114228814.579 8  89009594.967 7  21737040.609                    21737051.633
 111595804.098 8  86957891.56046  21235954.250                    21235960.633
 128155775.578 6  99861771.67643  24387214.320                    24387224.039
 110303985.868 8  85951304.651 7  20990171.305                    20990179.859
 106543227.609 8  83020832.500 8  20274499.602                    20274508.098
 11  8 13  2 18  0.0000000  0  9G10G30G29G26G25G02G04G12G05
 118491552.098 7  92331202.82044  22548177.289                    22548187.105
 112581178.462 7  87725603.29246  21423471.391                    21423480.539
 122708725.968 7  95617292.479 6  23350709.703                    23350719.242
 129838031.392 6 101172615.41043  24707374.703                    24707386.027
 114199641.683 8  88986862.861 7  21731488.961                    21731500.328
 111629593.284 8  86984220.83046  21242383.953                    21242390.137
 128235626.817 7  99923993.43843  24402409.117                    24402419.219
 110341659.081 8  85980660.454 7  20997340.359                    20997348.789
 106538334.930 8  83017020.041 8  20273568.578                    20273576.688
 11  8 13  2 18 30.0000000  0  9G10G30G29G26G25G02G04G12G05
 118582606.530 7  92402154.29444  22565504.922                    22565513.992
 112580923.294 7  87725404.48846  21423423.180                    21423432.348
 122625408.556 7  95552369.844 6  23334854.984                    23334864.863
 129743858.414 6 101099233.94042  24689454.406                    24689464.590
 114171034.943 8  88964571.908 7  21726045.320                    21726056.152
 111663496.832 7  87010639.19346  21248835.641                    21248841.559
 128315421.862 7  99986171.40943  24417593.961                    24417603.652
 110379867.904 8  86010433.603 7  21004611.180                    21004619.141
 106534016.560 8  83013655.099 8  20272746.648                    20272754.824
 11  8 13  2 19  0.0000000  0  9G10G30G29G26G25G02G04G12G05
 118673978.218 7  92473352.99944  22582892.391                    22582901.359
 112581278.710 7  87725681.45846  21423490.367                    21423499.723
 122542093.926 7  95487449.381 6  23319000.484                    23319010.203
 129649576.154 6 101025767.26343  24671512.602                    24671523.719
 114142995.094 8  88942722.680 7  21720709.328                    21720720.441
 111697514.191 7  87037146.24046  21255309.125                    21255315.328
 128395160.071 7 100048305.13043  24432767.648                    24432777.316
 110418610.638 8  86040622.782 7  21011983.906                    21011991.715
 106530271.857 8  83010737.176 8  20272033.719                    20272042.563
 11  8 13  2 19 30.0000000  0  9G10G30G29G26G25G02G04G12G05
 118765664.201 7  92544796.63744  22600340.008                    22600348.328
 112582244.501 7  87726434.04746  21423674.070                    21423683.555
 122458783.672 6  95422532.371 6  23303146.734                    23303157.203
 129555187.337 6 100952217.64943  24653550.906                    24653562.004
 114115522.996 8  88921315.862 7  21715481.680                    21715492.609
 111731644.910 7  87063741.61946  21261803.344                    21261809.926
 128474841.348 6 100110394.39642  24447930.344                    24447940.563
 110457885.925 8  86071226.936 7  21019457.828                    21019465.422
 106527100.565 8  83008266.066 8  20271430.828                    20271438.988
 11  8 13  2 20  0.0000000  0  9G10G30G29G26G25G02G04G12G05
 118857661.830 7  92616483.10044  22617846.250                    22617855.059
 112583820.493 7  87727662.11646  21423974.180                    21423983.355
 122375478.877 7  95357619.659 6  23287294.625                    23287304.781
 129460695.407 6 100878587.67043  24635570.063                    24635580.234
 114088619.933 8  88900352.451 7  21710361.750                    21710372.852
 111765888.483 8  87090424.92646  21268320.148                    21268326.016
 128554465.663 6 100172439.33342  24463082.375                    24463092.359
 110497692.138 8  86102244.807 7  21027032.625                    21027040.820
 106524503.103 8  83006242.096 8  20270936.234                    20270944.684
 11  8 13  2 20 30.0000000  0  9G10G30G29G26G25G02G04G12G05
 118949968.006 6  92688409.99144  22635411.836                    22635420.898
 112586005.861 7  87729365.02346  21424390.063                    21424399.059
 122292181.043 7  95292712.363 6  23271444.094                    23271453.574
 129366103.054 6 100804879.38943  24617570.031                    24617580.059
 114062286.352 8  88879832.799 7  21705351.313                    21705362.043
 111800244.559 8  87117195.89746  21274858.086                    21274864.480
 128634032.588 6 100234439.55843  24478223.344                    24478233.512
 110538027.857 8  86133675.255 7  21034708.320                    21034716.496
 106522478.275 8  83004664.334 8  20270551.219                    20270559.270
 11  8 13  2 21  0.0000000  0  9G10G30G29G26G25G02G04G12G05
 119042579.936 6  92760575.11244  22653034.680                    22653044.016
 112588800.115 7  87731542.38246  21424921.375                    21424930.777
 122208891.662 6  95227811.671 6  23255594.039                    23255604.059
 129271413.077 6 100731095.06443  24599551.250                    24599560.695
 114036523.113 8  88859757.571 7  21700447.992                    21700459.422
 111834712.337 7  87144053.90446  21281416.898                    21281423.316
 128713541.908 6 100296394.92943  24493353.125                    24493363.102
 110578890.639 8  86165516.414 7  21042483.836                    21042492.156
 106521025.514 8  83003532.347 8  20270274.570                    20270282.270
 11  8 13  2 21 30.0000000  0  9G10G30G29G26G25G02G04G12G05
 119135494.985 6  92832976.45444  22670715.688                    22670725.000
 112592202.966 7  87734193.97346  21425569.008                    21425578.555
 122125612.163 6  95162918.690 6  23239746.273                    23239756.535
 129176628.773 6 100657237.22843  24581513.984                    24581523.723
 114011331.287 8  88840127.609 7  21695654.281                    21695665.594
 111869291.854 8  87170998.97946  21287997.109                    21288003.605
 128792993.429 6 100358305.16143  24508473.148                    24508482.609
 110620279.539 8  86197767.527 7  21050360.117                    21050367.988
 106520144.812 8  83002846.114 8  20270106.961                    20270114.648
 11  8 13  2 22  0.0000000  0  9G10G30G29G26G25G02G04G12G05
 119228709.981 6  92905611.50144  22688454.039                    22688463.898
 112596213.517 7  87737319.09546  21426332.336                    21426341.195
 122042343.602 6  95098034.238 6  23223900.445                    23223910.762
 129081753.033 6 100583308.10743  24563459.242                    24563470.160
 113986711.250 8  88820943.201 7  21690969.258                    21690980.227
 111903981.859 8  87198030.17246  21294598.445                    21294604.563
 128872386.679 6 100420170.07043  24523580.117                    24523590.590
 110662192.977 8  86230427.362 7  21058335.859                    21058343.953
 106519835.052 8  83002604.774 8  20270047.836                    20270056.023
 11  8 13  2 22 30.0000000  0  9G10G30G29G26G25G02G04G12G05
 119322222.161 6  92978478.15144  22706248.688                    22706258.004
 112600831.344 7  87740917.43546  21427211.266                    21427220.215
 121959087.446 6  95033159.444 6  23208056.938                    23208067.551
 128986788.817 6 100509310.06743  24545388.492                    24545398.844
 113962663.863 8  88802205.015 7  21686393.266                    21686404.379
 111938781.656 8  87225146.89946  21301220.313                    21301226.797
 128951721.601 6 100481989.47243  24538677.844                    24538687.879
 110704628.678 8  86263494.145 7  21066411.125                    21066419.336
 106520095.817 8  83002807.989 8  20270097.656                    20270105.828
 11  8 13  2 23  0.0000000  0  9G10G30G29G26G25G02G04G12G05
 119416028.615 6  93051574.08044  22724099.750                    22724108.680
 112606055.703 7  87744988.39146  21428205.227                    21428214.262
 121875845.316 7  94968295.607 6  23192216.938                    23192227.113
 128891739.268 6 100435245.52643  24527301.844                    24527311.086
 113939189.706 8  88783913.506 7  21681926.414                    21681937.621
 111973691.188 7  87252349.13346  21307863.172                    21307869.730
 129030998.064 6 100543763.35543  24553763.352                    24553773.871
 110747585.185 8  86296966.746 7  21074585.438                    21074593.570
 106520926.868 8  83003455.591 8  20270255.953                    20270263.930
 11  8 13  2 23 30.0000000  0  9G10G30G29G26G25G02G04G12G05
 119510126.237 6  93124896.88644  22742005.813                    22742014.578
 112611886.021 8  87749531.52446  21429314.539                    21429323.516
 121792618.699 7  94903443.855 6  23176379.164                    23176389.203
 128796607.204 6 100361116.70943  24509198.023                    24509207.980
 113916289.545 8  88766069.278 7  21677568.547                    21677579.754
 112008710.008 7  87279636.53046  21314527.531                    21314533.727
 129110215.814 6 100605491.52243  24568838.445                    24568848.844
 110791060.740 8  86330843.801 7  21082858.719                    21082866.934
 106522327.245 8  83004546.809 8  20270522.383                    20270530.238
 11  8 13  2 24  0.0000000  0  9G10G30G29G26G25G02G04G12G05
 119604512.075 7  93198444.31244  22759967.227                    22759976.063
 112618321.299 7  87754546.05646  21430539.172                    21430548.586
 121709408.734 7  94838605.073 6  23160545.313                    23160555.199
 128701395.765 6 100286925.96743  24491079.703                    24491090.262
 113893963.817 8  88748672.652 7  21673319.797                    21673331.129
 112043837.237 7  87307008.40246  21321211.805                    21321218.211
 129189374.213 6 100667173.40843  24583902.133                    24583911.938
 110835053.261 8  86365123.688 7  21091230.086                    21091237.648
 106524295.915 8  83006080.862 8  20270897.133                    20270905.047
 11  8 13  2 24 30.0000000  0  9G10G30G29G26G25G02G04G12G05
 119699183.345 6  93272214.11044  22777982.391                    22777991.352
 112625361.060 7  87760031.61546  21431878.969                    21431888.043
 121626217.110 6  94773780.585 6  23144713.766                    23144723.910
 128606108.229 6 100212675.99143  24472947.688                    24472957.125
 113872213.280 8  88731724.230 7  21669181.328                    21669191.844
 112079072.674 7  87334464.59546  21327916.727                    21327923.043
 129268473.430 6 100728809.23643  24598952.875                    24598963.438
 110879561.395 8  86399805.365 7  21099699.680                    21099707.500
 106526832.875 8  83008057.726 8  20271379.539                    20271387.844
 11  8 13  2 25  0.0000000  0  9G10G30G29G26G25G02G04G12G05
 119794137.503 6  93346204.35244  22796051.781                    22796060.148
 112633004.717 7  87765987.73246  21433333.188                    21433342.152
 121543045.301 6  94708971.517 6  23128886.734                    23128896.684
 128510747.392 6 100138368.90443  24454800.477                    24454811.262
 113851038.669 8  88715224.582 7  21665151.516                    21665162.633
 112114416.006 8  87362004.86146  21334642.500                    21334648.680
 129347513.44615 100790398.84252  24613993.492                    24614004.277
 110924583.304 8  86434887.393 7  21108266.789                    21108275.387
 106529937.254 8  83010476.747 8  20271970.234                    20271978.277
 11  8 13  2 25 30.0000000  0  9G10G30G29G26G25G02G04G12G05
 119889371.676 7  93420412.78044  22814174.180                    22814183.418
 112641251.494 8  87772413.82946  21434902.922                    21434911.797
 121459894.687 7  94644178.943 6  23113063.859                    23113073.637
 128415316.773 6 100064007.40743  24436640.531                    24436650.945
 113830440.572 8  88699174.176 7  21661231.727                    21661243.000
 112149866.526 8  87389628.65546  21341388.727                    21341394.996
 129426494.064 5 100851942.26342  24629022.453                    24629033.613
 110970117.130 8  86470368.329 7  21116932.266                    21116939.863
 106533608.498 8  83013337.481 8  20272668.867                    20272677.035
 11  8 13  2 26  0.0000000  0  9G10G30G29G26G25G02G04G12G05
 119984882.892 7  93494837.09444  22832349.086                    22832358.566
 112650100.461 7  87779309.16745  21436586.531                    21436595.508
 121376766.783 6  94579404.057 6  23097244.641                    23097254.480
 128319818.964 6  99989593.62543  24418468.172                    24418477.434
 113810419.394 8  88683573.317 7  21657421.688                    21657433.102
 112185423.534 8  87417335.41146  21348155.211                    21348161.188
 129505414.852 6 100913438.97543  24644042.031                    24644052.125
 111016161.488 8  86506247.068 7  21125693.813                    21125701.539
 106537845.765 8  83016639.267 8  20273475.047                    20273483.297
 11  8 13  2 26 30.0000000  0  9G10G30G29G26G25G02G04G12G05
 120080668.065 7  93569474.89944  22850576.781                    22850585.680
 112659550.609 8  87786672.95045  21438384.586                    21438393.391
 121293663.035 6  94514647.982 6  23081431.117                    23081440.363
 128224257.306 6  99915130.06443  24400283.391                    24400293.098
 113790975.554 8  88668422.326 7  21653721.570                    21653732.551
 112221086.669 8  87445124.87846  21354941.414                    21354947.426
 129584275.574 5 100974888.93842  24659048.117                    24659058.961
 111062713.365 8  86542521.257 7  21134552.516                    21134560.840
 106542648.212 8  83020381.459 8  20274388.711                    20274397.215
 11  8 13  2 27  0.0000000  0  9G10G30G29G26G25G02G04G12G05
 120176724.339 7  93644323.91444  22868855.523                    22868864.824
 112669600.953 8  87794504.41846  21440297.211                    21440306.441
 121210584.781 7  94449911.772 6  23065621.055                    23065631.477
 128128634.615 6  99840618.92343  24382087.070                    24382097.340
 113772109.394 8  88653721.483 7  21650131.531                    21650143.020
 112256855.538 8  87472996.73046  21361748.242                    21361754.492
 129663075.84816 101036291.71753  24674043.953                    24674054.121
 111109771.361 8  86579189.819 7  21143507.102                    21143515.289
 106548014.850 8  83024563.285 8  20275410.375                    20275418.445
 11  8 13  2 27 30.0000000  0  8G10G30G29G26G25G02G12G05
 120273049.031 6  93719382.12344  22887185.414                    22887194.383
 112680251.192 8  87802803.33746  21442323.953                    21442332.676
 121127534.045 7  94385196.995 7  23049817.461                    23049827.695
 128032954.397 6  99766062.97543  24363879.625                    24363890.188
 113753821.857 8  88639471.507 7  21646651.375                    21646662.406
 112292730.019 8  87500950.85846  21368574.523                    21368580.742
 111157333.614 8  86616251.296 7  21152557.969                    21152565.953
 106553945.416 8  83029184.536 8  20276538.695                    20276546.859
 11  8 13  2 28  0.0000000  0  8G10G30G29G26G25G02G12G05
 120369639.083 7  93794647.08744  22905565.633                    22905575.145
 112691500.119 8  87811568.76645  21444464.367                    21444473.563
 121044512.045 7  94320504.613 6  23034018.609                    23034028.539
 127937219.669 6  99691464.53443  24345661.609                    24345672.203
 113736113.154 8  88625672.569 7  21643281.586                    21643292.563
 112328709.327 8  87528986.68246  21375421.422                    21375427.602
 111205398.190 8  86653704.175 7  21161704.391                    21161712.434
 106560438.879 8  83034244.405 8  20277774.477                    20277782.109
 11  8 13  2 28 30.0000000  0  8G10G30G29G26G25G02G12G05
 120466490.917 7  93870116.01244  22923996.180                    22924005.184
 112703345.947 8  87820799.28845  21446718.305                    21446727.688
 120961520.028 7  94255835.601 6  23018225.813                    23018235.297
 127841433.003 6  99616825.61943  24327434.055                    24327444.082
 113718982.980 8  88612324.438 7  21640021.984                    21640032.684
 112364792.340 8  87557103.32746  21382287.219                    21382294.063
 111253962.920 8  86691546.836 7  21170946.086                    21170953.898
 106567493.145 8  83039741.255 8  20279116.648                    20279124.781
 11  8 13  2 29  0.0000000  0  8G10G30G29G26G25G02G12G05
 120563602.518 7  93945787.38044  22942476.055                    22942484.816
 112715788.756 8  87830495.01045  21449086.023                    21449095.234
 120878559.958 7  94191191.479 6  23002439.000                    23002448.359
 127745598.111 6  99542149.12643  24309197.227                    24309207.332
 113702432.465 8  88599427.982 7  21636872.344                    21636883.082
 112400979.425 8  87585301.06046  21389173.648                    21389180.469
 111303026.068 8  86729777.889 7  21180282.070                    21180290.617
 106575108.918 8  83045675.649 8  20280565.805                    20280574.273
 11  8 13  2 29 30.0000000  0  8G10G30G29G26G25G02G12G05
 120660970.987 6  94021658.89844  22961004.469                    22961013.746
 112728827.182 8  87840654.87545  21451567.430                    21451576.504
 120795633.247 7  94126573.368 6  22986658.273                    22986668.113
 127649717.980 6  99467437.36443  24290951.813                    24290961.691
 113686461.928 8  88586983.455 7  21633832.961                    21633844.449
 112437270.030 8  87613579.46846  21396080.117                    21396086.008
 111352585.225 8  86768395.449 7  21189713.055                    21189721.457
 106583285.036 8  83052046.676 8  20282121.766                    20282129.852
 11  8 13  2 30  0.0000000  0  8G10G30G29G26G25G02G12G05
 120758593.246 7  94097728.18144  22979580.773                    22979590.539
 112742460.142 8  87851278.01646  21454161.844                    21454170.758
 120712741.226 7  94061982.272 7  22970885.359                    22970894.156
 127553795.803 6  99392692.84043  24272698.273                    24272708.156
 113671071.415 8  88574990.892 7  21630904.461                    21630915.602
 112473663.520 8  87641938.05846  21403005.219                    21403011.398
 111402638.585 8  86807398.099 7  21199237.953                    21199245.938
 106592019.992 8  83058853.166 8  20283784.047                    20283791.930
 11  8 13  2 30 30.0000000  0  8G10G30G29G26G25G02G12G05
 120856466.319 7  94173992.93344  22998205.945                    22998214.613
 112756686.438 8  87862363.47245  21456869.016                    21456877.918
 120629885.441 7  93997419.406 6  22955117.445                    22955126.691
 127457834.708 6  99317918.02843  24254437.773                    24254447.840
 113656261.181 8  88563450.491 7  21628086.234                    21628097.348
 112510159.451 8  87670376.46546  21409949.758                    21409956.188
 111453184.178 8  86846784.288 7  21208856.586                    21208864.496
 106601312.970 8  83066094.465 8  20285552.289                    20285560.496
 11  8 13  2 31  0.0000000  0  8G10G30G29G26G25G02G12G05
 120954587.737 6  94250451.18443  23016877.711                    23016887.020
 112771505.313 8  87873910.63045  21459688.680                    21459697.539
 120547067.764 7  93932886.242 6  22939357.555                    22939367.086
 127361838.219 6  99243115.60643  24236169.883                    24236180.215
 113642031.954 8  88552362.828 7  21625378.414                    21625389.609
 112546758.003 8  87698894.83746  21416914.617                    21416921.188
 111504220.350 8  86886552.734 7  21218568.172                    21218576.461
 106611163.405 8  83073770.154 8  20287426.914                    20287434.766
 11  8 13  2 31 30.0000000  0  8G10G30G29G26G25G02G12G05
 121052954.368 6  94327100.50144  23035596.063                    23035605.480
 112786915.534 8  87885918.62346  21462621.414                    21462630.117
 120464289.822 7  93868384.041 6  22923606.297                    22923614.656
 127265809.042 6  99168287.75043  24217896.273                    24217906.543
 113628383.644 8  88541727.822 7  21622781.203                    21622792.105
 112583458.258 8  87727492.47046  21423898.000                    21423904.707
 111555744.419 8  86926701.354 7  21228372.875                    21228381.137
 106621570.191 8  83081879.361 8  20289407.391                    20289415.398
 11  8 13  2 32  0.0000000  0  8G10G30G29G26G25G02G12G05
 121151563.062 6  94403938.41644  23054361.836                    23054369.945
 112802915.851 8  87898386.47446  21465666.250                    21465674.629
 120381552.908 7  93803913.790 6  22907861.250                    22907870.551
 127169750.323 6  99093436.85943  24199617.492                    24199627.000
 113615316.254 8  88531545.470 7  21620294.508                    21620305.738
 112620259.702 8  87756168.94546  21430901.188                    21430907.746
 111607753.865 8  86967228.197 7  21238270.234                    21238278.625
 106632531.807 8  83090420.896 8  20291493.070                    20291501.070
 11  8 13  2 32 30.0000000  0  8G10G30G29G26G25G02G12G05
 121250411.310 6  94480963.04043  23073171.203                    23073180.469
 112819505.237 8  87911313.29846  21468822.758                    21468831.375
 120298858.895 7  93739476.980 6  22892125.039                    22892133.852
 127073665.630 6  99018565.68943  24181332.602                    24181343.059
 113602830.425 8  88521816.290 7  21617918.125                    21617929.297
 112657162.230 8  87784924.18346  21437923.711                    21437929.875
 111660247.593 8  87008132.405 7  21248259.078                    21248267.125
 106644047.713 8  83099394.343 8  20293684.430                    20293692.605
 11  8 13  2 33  0.0000000  0  8G10G30G29G26G25G02G12G05
 121349496.254 7  94558172.06044  23092026.852                    23092035.242
 112836682.433 8  87924698.15445  21472091.492                    21472100.508
 120216209.239 7  93675074.716 6  22876397.227                    22876406.336
 126977558.282 7  98943676.88043  24163043.922                    24163054.020
 113590926.193 8  88512540.294 7  21615653.234                    21615664.465
 112694165.455 8  87813757.90646  21444964.906                    21444971.707
 111713223.152 8  87049412.056 7  21258340.250                    21258348.164
 106656116.872 8  83108798.890 8  20295981.086                    20295989.102
 11  8 13  2 33 30.0000000  0  8G10G30G29G26G25G02G12G05
 121448814.967 6  94635563.27844  23110926.516                    23110935.227
 112854446.240 8  87938540.12045  21475471.797                    21475481.000
 120133605.589 7  93610708.323 6  22860678.070                    22860687.426
 126881431.239 7  98868772.75443  24144751.914                    24144761.305
 113579603.591 8  88503717.513 7  21613498.703                    21613509.480
 112731268.752 8  87842669.59446  21452025.828                    21452032.363
 111766678.233 8  87091065.371 7  21268512.359                    21268520.613
 106668737.978 8  83118633.546 8  20298382.695                    20298390.820
 11  8 13  2 34  0.0000000  0  8G10G30G29G26G25G02G12G05
 121548364.580 6  94713134.36144  23129870.297                    23129879.395
 112872795.346 8  87952838.16845  21478963.766                    21478972.273
 120051049.674 7  93546379.102 6  22844967.641                    22844977.516
 126785287.786 6  98793855.79243  24126456.273                    24126465.965
 113568862.813 8  88495348.101 7  21611454.625                    21611465.340
 112768471.951 8  87871659.13546  21459105.133                    21459110.824
 111820610.693 8  87133090.709 7  21278775.422                    21278783.180
 106681909.974 8  83128897.455 8  20300889.328                    20300897.605
 11  8 13  2 34 30.0000000  0  8G10G30G29G26G25G02G12G05
 121648142.128 6  94790883.07244  23148857.422                    23148866.422
 112891728.591 8  87967591.37545  21482566.289                    21482575.367
 119968543.011 7  93482088.260 7  22829267.344                    22829277.352
 126689131.353 6  98718928.74543  24108158.266                    24108167.320
 113558703.934 8  88487432.120 7  21609521.484                    21609531.789
 112805774.716 8  87900726.25546  21466203.398                    21466209.637
 111875018.397 8  87175486.382 7  21289128.430                    21289136.875
 106695631.926 8  83139589.922 8  20303500.602                    20303508.688
 11  8 13  2 35  0.0000000  0  8G10G30G29G26G25G02G12G05
 121748144.855 6  94868807.25644  23167886.922                    23167896.461
 112911244.562 8  87982798.65645  21486280.258                    21486289.031
 119886087.472 7  93417837.256 7  22813576.898                    22813586.379
 126592965.032 6  98643994.00843  24089858.227                    24089867.855
 113549127.028 8  88479969.625 7  21607699.117                    21607710.258
 112843176.758 8  87929870.72546  21473320.625                    21473327.027
 111929899.399 8  87218250.864 7  21299572.094                    21299580.207
 106709902.465 8  83150709.858 8  20306216.023                    20306224.383
 11  8 13  2 35 30.0000000  0  8G10G30G29G26G25G02G12G05
 121848370.059 6  94946904.79044  23186959.000                    23186968.633
 112931341.972 7  87998459.01245  21490104.578                    21490113.555
 119803684.532 7  93353627.238 7  22797896.117                    22797905.723
 126496792.133 6  98569054.08243  24071556.375                    24071566.590
 113540132.092 8  88472960.616 7  21605987.125                    21605997.918
 112880677.422 8  87959092.04146  21480457.094                    21480463.273
 111985250.671 8  87261381.771 7  21310105.250                    21310113.203
 106724720.578 8  83162256.463 8  20309035.992                    20309043.758
 11  8 13  2 36  0.0000000  0  8G10G30G29G26G25G02G12G05
 121948814.835 6  95025173.42544  23206073.188                    23206082.414
 112952019.539 8  88014571.43245  21494039.117                    21494047.777
 119721336.020 7  93289459.639 7  22782225.484                    22782234.988
 126400615.948 6  98494111.63343  24053255.188                    24053265.164
 113531719.218 8  88466405.159 7  21604386.508                    21604397.566
 112918276.675 8  87988390.17746  21487611.766                    21487618.168
 112041070.466 8  87304877.762 7  21320727.172                    21320735.547
 106740084.862 8  83174228.669 8  20311959.727                    20311967.359
 11  8 13  2 36 30.0000000  0  8G10G30G29G26G25G02G12G05
 122049476.347 7  95103610.94444  23225228.758                    23225238.406
 112973275.611 8  88031134.63945  21498084.164                    21498093.000
 119639043.475 7  93225335.666 7  22766565.664                    22766575.793
 126304439.674 6  98419169.14543  24034953.750                    24034963.297
 113523888.099 8  88460303.023 7  21602895.852                    21602907.102
 112955973.743 8  88017764.52346  21494785.398                    21494791.797
 112097356.390 8  87348736.939 7  21331438.117                    21331446.609
 106755994.078 8  83186625.503 8  20314987.016                    20314994.996
 11  8 13  2 37  0.0000000  0  8G10G30G29G26G25G02G12G05
 122150351.923 7  95182215.27443  23244424.773                    23244434.320
 112995109.115 8  88048147.77845  21502239.063                    21502247.719
 119556808.678 7  93161256.716 7  22750916.477                    22750926.137
 126208266.843 6  98344229.33743  24016652.898                    24016662.309
 113516639.091 8  88454654.471 7  21601516.625                    21601527.469
 112993768.770 8  88047215.21646  21501977.680                    21501983.957
 112154106.616 8  87392957.911 7  21342237.227                    21342245.578
 106772447.347 8  83199446.259 8  20318117.734                    20318126.066
 11  8 13  2 37 30.0000000  0  8G10G30G29G26G25G02G12G05
 122251438.618 7  95260984.11443  23263661.289                    23263670.316
 113017518.527 8  88065609.68446  21506503.430                    21506512.164
 119474633.403 7  93097224.134 7  22735279.805                    22735288.992
 126112100.465 6  98269294.53043  23998352.703                    23998362.316
 113509971.888 8  88449459.282 7  21600247.805                    21600258.938
 113031661.402 8  88076741.94446  21509188.250                    21509194.477
 112211318.409 8  87437538.551 7  21353124.148                    21353132.215
 106789443.150 8  83212689.771 8  20321351.930                    20321360.277
 11  8 13  2 38  0.0000000  0  8G10G30G29G26G25G02G12G05
 122352733.417 7  95339915.14043  23282936.445                    23282945.426
 113040502.203 7  88083519.06846  21510876.938                    21510885.820
 119392519.053 7  93033239.034 6  22719653.305                    22719662.566
 126015944.180 6  98194367.65143  23980054.359                    23980064.215
 113503886.427 8  88444717.389 7  21599089.906                    21599100.754
 113069651.087 8  88106344.31346  21516417.641                    21516423.484
 112268989.442 8  87482477.031 7  21364098.813                    21364106.797
 106806980.221 8  83226355.049 8  20324689.234                    20324697.191
 11  8 13  2 38 30.0000000  0  8G10G30G29G26G25G02G12G05
 122454233.646 7  95419006.21243  23302251.156                    23302260.211
 113064058.810 7  88101874.90445  21515359.289                    21515368.027
 119310467.425 7  92969302.810 7  22704039.594                    22704048.926
 125919801.226 6  98119451.19943  23961759.063                    23961769.109
 113498382.533 8  88440428.679 7  21598042.742                    21598053.426
 113107737.507 8  88136022.04746  21523665.141                    21523671.375
 112327117.428 7  87527771.601 7  21375160.266                    21375168.465
 106825057.285 8  83240441.106 8  20328128.781                    20328137.121
 11  8 13  2 39  0.0000000  0  8G10G30G29G26G25G02G12G05
 122555936.632 7  95498255.30544  23321604.320                    23321613.973
 113088186.991 8  88120676.09946  21519951.234                    21519959.773
 119228480.497 7  92905416.994 6  22688438.641                    22688447.379
 125823674.846 6  98044547.58243  23943466.961                    23943476.152
 113493460.263 8  88436593.170 7  21597105.938                    21597116.484
 113145920.698 8  88165775.19346  21530931.109                    21530936.855
 112385700.425 8  87573420.706 7  21386307.898                    21386316.066
 106843673.096 8  83254946.956 8  20331671.375                    20331679.395
 11  8 13  2 39 30.0000000  0  8G10G30G29G26G25G02G12G05
 122657839.355 7  95577660.04943  23340995.797                    23341004.902
 113112884.898 8  88139921.24645  21524650.711                    21524659.660
 119146559.890 7  92841582.853 7  22672848.992                    22672858.621
 125727568.382 6  97969659.52043  23925177.820                    23925187.543
 113489119.199 8  88433210.567 7  21596279.523                    21596290.539
 113184200.208 8  88195603.39945  21538215.703                    21538221.656
 112444735.524 8  87619422.125 7  21397542.273                    21397549.957
 106862826.130 8  83269871.429 8  20335316.281                    20335324.258
 11  8 13  2 40  0.0000000  0  8G10G30G29G26G25G02G12G05
 122759939.095 7  95657218.27044  23360425.188                    23360434.547
 113138151.076 7  88159609.20146  21529459.188                    21529467.793
 119064707.319 7  92777801.714 7  22657272.633                    22657282.027
 125631485.162 6  97894789.56544  23906893.594                    23906904.223
 113485359.195 8  88430280.730 7  21595564.094                    21595574.828
 113222575.410 8  88225506.16146  21545517.914                    21545524.098
 112504220.603 8  87665774.173 7  21408861.570                    21408869.484
 106882514.925 8  83285213.372 8  20339062.938                    20339070.574
 11  8 13  2 40 30.0000000  0  8G10G30G29G26G25G02G12G05
 122862233.102 7  95736927.89443  23379890.695                    23379900.348
 113163984.030 8  88179738.80245  21534374.516                    21534383.402
 118982924.678 7  92714075.060 7  22641710.156                    22641719.234
 125535428.687 6  97819940.47744  23888615.164                    23888625.230
 113482180.043 8  88427803.512 7  21594959.242                    21594970.074
 113261046.392 8  88255483.54646  21552838.977                    21552845.402
 112564153.147 7  87712474.887 7  21420266.086                    21420274.098
 106902738.537 8  83300972.056 8  20342911.414                    20342919.273
 11  8 13  2 41  0.0000000  0  8G10G30G29G26G25G02G12G05
 122964718.611 7  95816786.72643  23399393.578                    23399402.387
 113190382.225 7  88200308.84145  21539398.242                    21539406.859
 118901213.636 7  92650404.200 7  22626161.055                    22626169.910
 125439402.191 6  97745114.67443  23870341.258                    23870352.141
 113479581.604 8  88425778.789 7  21594464.703                    21594475.781
 113299613.214 8  88285535.61845  21560177.453                    21560184.227
 112624531.039 8  87759522.617 7  21431756.164                    21431763.984
 106923495.472 8  83317146.318 8  20346861.281                    20346869.223
 11  8 13  2 41 30.0000000  0  8G10G30G29G26G25G02G12G05
 123067392.850 7  95896792.63143  23418931.773                    23418941.027
 113217344.048 7  88221318.07645  21544528.195                    21544537.723
 118819576.117 7  92586790.625 7  22610626.039                    22610634.875
 125343409.388 6  97670315.19244  23852075.203                    23852084.629
 113477563.587 8  88424206.347 7  21594080.641                    21594091.363
 113338275.300 8  88315661.91145  21567534.727                    21567541.660
 112685351.743 8  87806915.369 7  21443329.570                    21443337.473
 106944784.461 8  83333735.152 8  20350912.195                    20350920.559
 11  8 13  2 42  0.0000000  0  8G10G30G29G26G25G02G12G05
 123170253.191 6  95976943.54043  23438505.203                    23438514.809
 113244867.909 7  88242765.26245  21549766.305                    21549775.250
 118738013.847 7  92523235.673 7  22595105.070                    22595113.570
 125247453.329 6  97595544.25243  23833814.703                    23833824.559
 113476125.748 8  88423085.989 7  21593806.922                    21593817.785
 113377032.432 8  88345862.27746  21574910.055                    21574916.734
 112746612.872 7  87854651.306 7  21454987.273                    21454995.500
 106966603.916 8  83350737.341 8  20355064.555                    20355072.469
 11  8 13  2 42 30.0000000  0  8G10G30G29G26G25G02G12G05
 123273296.550 6  96057237.05243  23458114.188                    23458122.781
 113272951.729 7  88264648.79045  21555110.148                    21555119.141
 118656528.447 7  92459740.630 7  22579598.422                    22579607.504
 125151537.276 7  97520804.51644  23815562.906                    23815572.563
 113475267.383 8  88422417.170 7  21593643.414                    21593654.531
 113415884.029 8  88376136.25645  21582303.133                    21582309.473
 112808311.641 7  87902728.249 7  21466728.273                    21466735.988
 106988952.100 8  83368151.531 8  20359316.867                    20359324.895
 11  8 13  2 43  0.0000000  0  8G10G30G29G26G25G02G12G05
 123376520.519 7  96137671.26143  23477756.750                    23477765.918
 113301594.009 7  88286967.45145  21560561.094                    21560569.367
 118575121.758 7  92396306.910 7  22564107.734                    22564115.836
 125055665.122 7  97446098.99244  23797318.984                    23797329.027
 113474988.376 8  88422199.796 7  21593590.469                    21593601.434
 113454830.228 8  88406483.95046  21589714.758                    21589720.773
 112870445.806 7  87951144.452 7  21478551.727                    21478559.730
 107011827.884 8  83385976.836 8  20363670.297                    20363677.926
 11  8 13  2 43 30.0000000  0  8G10G30G29G26G25G02G12G05
 123479922.210 6  96218244.01143  23497433.836                    23497442.566
 113330793.066 7  88309719.98246  21566117.375                    21566125.969
 118493795.636 7  92332935.970 7  22548631.383                    22548640.668
 124959839.930 7  97371430.06344  23779084.352                    23779093.711
 113475288.252 8  88422433.493 7  21593647.383                    21593658.367
 113493870.613 8  88436905.04445  21597143.406                    21597149.820
 112933012.682 7  87999897.837 7  21490457.906                    21490466.086
 107035229.546 8  83404211.912 8  20368123.406                    20368131.477
 11  8 13  2 44  0.0000000  0  8G10G30G29G26G25G02G12G05
 123583498.601 7  96298952.89743  23517142.750                    23517152.434
 113360547.029 7  88332904.90145  21571779.125                    21571788.070
 118412552.062 7  92269629.358 7  22533171.438                    22533180.289
 124864065.209 7  97296800.47544  23760858.477                    23760868.402
 113476166.624 8  88423117.970 7  21593814.398                    21593825.477
 113533005.055 8  88467399.41145  21604590.664                    21604596.762
 112996010.163 7  88048986.766 7  21502446.055                    21502454.074
 107059155.663 8  83422855.662 8  20372676.617                    20372684.207
 11  8 13  2 44 30.0000000  0  8G10G30G29G26G25G02G12G05
 123687246.913 7  96379795.75944  23536886.148                    23536895.125
 113390854.220 7  88356520.91645  21577546.344                    21577555.457
 118331392.996 7  92206388.566 7  22517726.633                    22517736.164
 124768344.349 7  97222212.82544  23742643.844                    23742652.996
 113477622.981 8  88424252.816 7  21594091.742                    21594102.664
 113572233.233 8  88497966.81345  21612055.734                    21612062.246
 113059435.279 7  88098408.914 7  21514515.203                    21514523.273
 107083604.692 8  83441906.875 8  20377328.859                    20377336.754
 11  8 13  2 45  0.0000000  0  8G10G30G29G26G25G02G12G05
 123791164.805 7  96460770.72943  23556660.953                    23556670.215
 113421713.045 7  88380566.76745  21583418.813                    21583427.508
 118250319.759 7  92143214.669 7  22502300.023                    22502307.992
 124672680.891 7  97147669.95044  23724439.375                    23724448.980
 113479657.134 8  88425837.898 7  21594478.711                    21594489.504
 113611554.911 8  88528607.08845  21619538.047                    21619544.457
 113123286.429 7  88148163.058 7  21526666.227                    21526673.988
 107108575.144 8  83461364.389 8  20382080.281                    20382088.461
 11  8 13  2 45 30.0000000  0  9G10G30G29G26G15G25G02G12G05
 123895249.618 7  96541875.78544  23576467.383                    23576476.473
 113453121.650 7  88405041.02545  21589395.336                    21589403.848
 118169334.491 7  92080109.308 7  22486888.727                    22486897.281
 124577078.495 6  97073174.59443  23706246.766                    23706256.449
 129491653.25816 100902645.82015  24641449.258                    24641458.824
 113482268.572 8  88427872.807 7  21594975.859                    21594986.473
 113650970.268 8  88559320.35545  21627038.875                    21627045.293
 113187560.414 7  88198246.670 7  21538897.047                    21538904.945
 107134065.892 8  83481227.322 8  20386931.266                    20386939.172
 11  8 13  2 46  0.0000000  0  9G10G30G29G26G15G25G02G12G05
 123999498.557 7  96623108.74643  23596305.430                    23596314.734
 113485077.926 7  88429942.04945  21595476.875                    21595485.496
 118088439.147 7  92017074.034 7  22471494.594                    22471503.934
 124481540.143 6  96998729.17244  23688066.203                    23688075.434
 129397752.473 6 100829476.474 5  24623580.789                    24623590.652
 113485456.543 8  88430356.967 7  21595582.203                    21595593.078
 113690478.953 8  88590106.35745  21634557.281                    21634563.590
 113252254.633 8  88248657.749 7  21551207.977                    21551215.828
 107160074.759 8  83501493.976 8  20391880.664                    20391888.695
 11  8 13  2 46 30.0000000  0  9G10G30G29G26G15G25G02G12G05
 124103908.816 7  96704467.39343  23616174.070                    23616183.141
 113517580.352 7  88455268.63045  21601661.766                    21601670.906
 118007635.827 7  91954110.488 7  22456117.695                    22456126.535
 124386069.890 6  96924336.78643  23669898.711                    23669908.555
 129303724.707 6 100756208.180 6  24605687.297                    24605696.969
 113489220.760 8  88433290.134 7  21596298.953                    21596309.332
 113730080.621 8  88620964.82745  21642092.922                    21642099.332
 113317366.782 7  88299394.510 7  21563598.266                    21563606.070
 107186599.979 8  83522162.995 8  20396927.977                    20396936.000
 11  8 13  2 47  0.0000000  0  9G10G30G29G26G15G25G02G12G05
 124208477.797 6  96785949.72743  23636072.914                    23636081.934
 113550627.099 7  88481019.36045  21607949.766                    21607958.789
 117926926.195 7  91891219.935 7  22440759.398                    22440768.324
 124290671.170 6  96850000.12643  23651744.813                    23651754.809
 129209572.566 6 100682842.991 6  24587771.008                    24587780.137
 113493560.702 8  88436671.916 7  21597124.273                    21597135.270
 113769775.645 8  88651896.03945  21649646.602                    21649652.535
 113382894.300 7  88350454.916 7  21576067.492                    21576075.703
 107213640.995 8  83543233.930 8  20402073.805                    20402081.887
 11  8 13  2 47 30.0000000  0  9G10G30G29G26G15G25G02G12G05
 124313202.634 7  96867553.52643  23656001.727                    23656010.512
 113584215.811 7  88507192.39345  21614342.164                    21614350.578
 117846312.116 7  91828403.849 7  22425419.016                    22425427.840
 124195346.810 6  96775721.47144  23633605.313                    23633615.184
 129115298.233 6 100609382.582 6  24569830.531                    24569840.254
 113498475.460 8  88440501.630 7  21598059.703                    21598070.418
 113809563.298 8  88682899.42145  21657217.898                    21657224.066
 113448834.116 7  88401836.598 7  21588615.656                    21588623.672
 107241195.540 8  83564705.018 8  20407317.406                    20407325.426
 11  8 13  2 48  0.0000000  0  9G10G30G29G26G15G25G02G12G05
 124418080.277 6  96949276.38743  23675959.086                    23675968.039
 113618344.499 7  88533786.19245  21620835.914                    21620845.234
 117765795.136 7  91765663.424 7  22410097.055                    22410106.031
 124100100.609 7  96701503.72743  23615480.719                    23615490.504
 129020904.025 6 100535828.759 6  24551867.805                    24551877.457
 113503964.197 8  88444778.582 7  21599104.203                    21599115.016
 113849443.120 7  88713974.62845  21664806.992                    21664813.230
 113515183.732 7  88453537.612 7  21601241.500                    21601249.605
 107269261.390 8  83586574.534 8  20412658.281                    20412665.977
 11  8 13  2 48 30.0000000  0  9G10G30G29G26G15G25G02G12G05
 124523108.189 6  97031116.28643  23695944.930                    23695954.625
 113653011.295 7  88560799.29945  21627433.125                    21627441.996
 117685377.340 7  91703000.281 7  22394794.227                    22394803.109
 124004936.126 6  96627349.64943  23597371.688                    23597381.160
 128926392.775 6 100462183.764 6  24533882.281                    24533892.355
 113510026.478 8  88449502.457 7  21600257.930                    21600268.629
 113889415.356 8  88745121.85245  21672413.422                    21672419.348
 113581940.803 7  88505556.123 7  21613944.883                    21613952.773
 107297837.195 8  83608841.417 8  20418095.820                    20418103.734
 11  8 13  2 49  0.0000000  0  9G10G30G29G26G15G25G02G12G05
 124628283.809 6  97113071.31443  23715958.594                    23715968.262
 113688214.327 7  88588230.25245  21634131.836                    21634140.875
 117605060.765 7  91640416.021 7  22379510.297                    22379519.270
 123909856.569 7  96553261.75743  23579277.789                    23579287.961
 128831766.791 6 100388449.352 6  24515875.516                    24515886.359
 113516661.578 8  88454672.684 7  21601520.266                    21601531.012
 113929479.557 7  88776340.73145  21680037.055                    21680043.602
 113649102.507 7  88557889.907 7  21626725.766                    21626733.590
 107326921.382 8  83631504.434 8  20423630.117                    20423637.969
 11  8 13  2 49 30.0000000  0  9G10G30G29G26G15G25G02G12G05
 124733604.483 6  97195139.35443  23736001.109                    23736010.066
 113723951.590 7  88616077.49945  21640932.531                    21640941.621
 117524847.435 7  91577912.213 7  22364246.359                    22364255.094
 123814865.868 7  96479243.08543  23561201.727                    23561211.750
 128737028.683 6 100314627.565 6  24497847.883                    24497857.859
 113523868.965 8  88460288.858 7  21602891.563                    21602902.824
 113969635.908 7  88807631.41145  21687678.492                    21687685.078
 113716666.219 7  88610536.960 7  21639582.484                    21639590.352
 107356512.338 8  83654562.341 8  20429261.422                    20429268.961
 11  8 13  2 50  0.0000000  0  9G10G30G29G26G15G25G02G12G05
 124839067.527 6  97277318.31543  23756070.016                    23756078.777
 113760221.053 7  88644339.43445  21647834.086                    21647843.008
 117444739.044 7  91515490.157 7  22349002.141                    22349010.973
 123719967.408 7  96405296.33844  23543143.703                    23543153.215
 128642181.128 6 100240720.500 6  24479799.398                    24479808.730
 113531647.771 8  88466350.279 7  21604372.422                    21604382.809
 114009884.106 7  88838993.65645  21695337.828                    21695343.914
 113784629.349 8  88663495.253 7  21652515.125                    21652523.168
 107386608.341 8  83678013.788 8  20434988.500                    20434995.852
 11  8 13  2 50 30.0000000  0  9G10G30G29G26G15G25G02G12G05
 124944670.437 6  97359606.27143  23776165.906                    23776174.871
 113797020.696 7  88673014.50945  21654837.266                    21654846.035
 117364737.599 7  91453151.456 7  22333778.375                    22333786.922
 123625164.551 7  96331424.04044  23525103.461                    23525112.531
 128547226.574 6 100166730.058 6  24461729.773                    24461740.379
 113539997.337 8  88472856.450 7  21605960.883                    21605971.773
 114050224.002 7  88870427.36246  21703014.563                    21703020.375
 113852989.198 8  88716762.673 7  21665523.688                    21665531.520
 107417207.654 8  83701857.434 8  20440811.109                    20440819.055
 11  8 13  2 51  0.0000000  0  9G10G30G29G26G15G25G02G12G05
 125050410.235 6  97442000.88343  23796287.336                    23796296.250
 113834348.292 7  88702100.96645  21661940.273                    21661949.254
 117284844.821 7  91390897.416 7  22318574.883                    22318583.383
 123530460.834 7  96257629.01244  23507081.031                    23507090.750
 128452167.700 6 100092658.295 6  24443640.609                    24443650.508
 113548916.629 8  88479806.583 7  21607658.156                    21607668.953
 114090655.604 7  88901932.51745  21710708.234                    21710714.281
 113921743.302 7  88770337.299 7  21678606.938                    21678614.895
 107448307.991 8  83726091.472 8  20446729.648                    20446737.430
 11  8 13  2 51 30.0000000  0  9G10G30G29G26G15G25G02G12G05
 125156284.446 6  97524500.26643  23816434.305                    23816443.773
 113872201.923 7  88731597.32145  21669143.719                    21669152.559
 117205063.031 7  91328729.871 7  22303392.828                    22303401.316
 123435860.043 7  96183914.20444  23489079.617                    23489089.230
 128357006.938 7 100018507.152 6  24425531.539                    24425541.969
 113558405.129 8  88487200.241 7  21609463.719                    21609474.559
 114131178.658 8  88933508.93145  21718419.203                    21718425.094
 113990888.576 8  88824216.722 7  21691765.258                    21691772.984
 107479908.100 8  83750714.955 8  20452742.859                    20452750.957
 11  8 13  2 52  0.0000000  0  9G10G30G29G26G15G25G02G12G05
 125262290.432 7  97607102.33543  23836607.039                    23836615.910
 113910579.529 7  88761501.96545  21676446.578                    21676455.070
 117125393.991 7  91266650.163 7  22288232.852                    22288241.648
 123341365.410 7  96110282.08744  23471097.594                    23471107.414
 128261747.067 7  99944278.805 6  24407404.820                    24407413.996
 113568462.021 8  88495036.808 7  21611377.383                    21611388.160
 114171793.267 7  88965156.69145  21726147.703                    21726154.273
 114060422.630 8  88878399.119 7  21704996.836                    21705005.188
 107512006.330 8  83775726.576 8  20458851.063                    20458858.871
 11  8 13  2 52 30.0000000  0  9G10G30G29G26G15G25G02G12G05
 125368425.689 6  97689805.12343  23856804.102                    23856813.117
 113949478.943 7  88791813.22345  21683848.977                    21683857.359
 117045839.836 7  91204659.981 7  22273093.844                    22273102.344
 123246980.726 7  96036735.62344  23453136.688                    23453146.285
 128166390.725 6  99869975.242 6  24389258.852                    24389268.586
 113579086.307 8  88503315.509 7  21613399.320                    21613410.063
 114212499.092 8  88996875.53345  21733893.867                    21733899.980
 114130342.766 8  88932882.352 7  21718302.477                    21718310.020
 107544600.926 8  83801124.976 8  20465053.813                    20465061.109
 11  8 13  2 53  0.0000000  0  9G10G30G29G26G15G25G02G12G05
 125474687.888 6  97772606.79243  23877024.453                    23877033.707
 113988898.366 7  88822529.67645  21691350.203                    21691358.934
 116966402.894 7  91142761.142 7  22257977.648                    22257985.840
 123152710.017 7  95963277.99244  23435197.859                    23435207.273
 128070940.717 6  99795598.707 6  24371095.805                    24371104.652
 113590277.609 8  88512036.020 7  21615529.047                    21615539.672
 114253296.528 8  89028665.74745  21741657.570                    21741663.625
 114200646.411 7  88987664.435 7  21731680.820                    21731688.617
 107577690.128 8  83826908.797 8  20471349.789                    20471357.910
 11  8 13  2 53 30.0000000  0  9G10G30G29G26G15G25G02G12G05
 125581074.165 6  97855505.16443  23897269.367                    23897278.410
 114028835.669 7  88853649.67245  21698950.016                    21698958.559
 116887085.390 7  91080955.354 7  22242884.016                    22242892.281
 123058556.522 7  95889911.69644  23417280.727                    23417290.367
 127975399.589 6  99721151.180 5  24352914.445                    24352923.836
 113602034.821 8  88521197.507 7  21617766.477                    21617776.590
 114294185.431 7  89060527.24145  21749438.648                    21749444.633
 114271331.044 8  89042743.372 7  21745131.906                    21745139.484
 107611272.046 8  83853076.537 8  20477740.586                    20477748.285
 11  8 13  2 54  0.0000000  0  9G10G30G29G26G15G25G02G12G05
 125687581.633 6  97938497.99443  23917537.141                    23917546.414
 114069287.790 8  88885170.82445  21706647.352                    21706656.172
 116807888.015 7  91019243.162 7  22227813.055                    22227821.469
 122964523.354 7  95816639.17844  23399387.273                    23399396.254
 127879769.370 6  99646634.231 5  24334716.883                    24334725.688
 113614356.352 8  88530798.724 7  21620110.820                    21620121.199
 114335165.063 8  89092459.42645  21757236.336                    21757242.949
 114342393.117 8  89098116.428 7  21758654.211                    21758661.734
 107645343.852 8  83879626.026 8  20484224.102                    20484231.453
 11  8 13  2 54 30.0000000  0  9G10G30G29G26G15G25G02G12G05
 125794207.983 6  98021583.45743  23937826.867                    23937836.879
 114110253.214 7  88917091.95845  21714443.305                    21714451.453
 116728813.612 7  90957626.801 7  22212765.625                    22212774.141
 122870614.333 7  95743463.39444  23381517.109                    23381526.188
 127784053.099 6  99572050.223 5  24316501.758                    24316511.000
 113627241.886 8  88540839.430 7  21622562.844                    21622573.641
 114376235.915 7  89124462.69445  21765051.969                    21765058.160
 114413830.526 8  89153781.968 7  21772248.359                    21772256.332
 107679905.145 8  83906556.924 8  20490800.750                    20490808.336
 11  8 13  2 55  0.0000000  0  9G10G30G29G26G15G25G02G12G05
 125900950.293 6  98104759.24143  23958139.875                    23958149.141
 114151729.420 8  88949411.11545  21722335.766                    21722344.883
 116649863.903 7  90896107.607 7  22197741.680                    22197750.512
 122776833.105 7  95670387.17544  23363670.320                    23363679.703
 127688253.290 6  99497401.090 5  24298271.703                    24298280.980
 113640690.106 8  88551318.586 7  21625122.086                    21625132.887
 114417397.590 7  89156536.74845  21772884.977                    21772891.004
 114485640.100 8  89209737.500 7  21785913.422                    21785920.973
 107714953.166 8  83933867.096 8  20497469.875                    20497478.004
 11  8 13  2 55 30.0000000  0  9G10G30G29G26G15G25G02G12G05
 126007805.779 6  98188023.21543  23978474.414                    23978482.742
 114193714.120 7  88982126.48545  21730325.336                    21730333.934
 116571041.032 7  90834687.245 7  22182742.289                    22182750.828
 122683183.130 6  95597413.24544  23345849.734                    23345858.988
 127592372.648 6  99422689.021 5  24280025.469                    24280034.922
 113654699.964 8  88562235.382 7  21627787.992                    21627798.820
 114458649.928 7  89188681.43645  21780734.570                    21780740.934
 114557819.018 8  89265980.836 7  21799648.297                    21799655.965
 107750486.062 8  83961555.077 8  20504231.906                    20504239.438
 11  8 13  2 56  0.0000000  0  9G10G30G29G26G15G25G02G12G05
 126114772.181 6  98271373.66043  23998829.352                    23998837.508
 114236204.972 7  89015236.25745  21738410.633                    21738419.328
 116492346.812 7  90773367.122 7  22167767.609                    22167775.781
 122589667.871 6  95524544.28544  23328053.844                    23328063.426
 127496413.767 6  99347915.991 5  24261765.633                    24261774.930
 113669270.339 7  88573588.945 7  21630560.758                    21630571.348
 114499992.579 7  89220896.50545  21788602.406                    21788608.379
 114630364.480 8  89322509.804 7  21813453.594                    21813461.461
 107786501.869 8  83989619.356 8  20511085.453                    20511093.262
 11  8 13  2 56 30.0000000  0  9G10G30G29G26G15G25G02G12G05
 126221847.098 6  98354808.65143  24019204.867                    24019213.668
 114279199.831 7  89048738.76445  21746592.531                    21746601.676
 116413783.641 7  90712149.126 7  22152816.656                    22152825.773
 122496291.104 7  95451783.25044  23310284.305                    23310294.547
 127400379.316 6  99273084.072 6  24243490.781                    24243499.445
 113684400.357 8  88585378.585 7  21633439.664                    21633450.559
 114541426.309 7  89253182.54545  21796487.000                    21796492.855
 114703273.985 7  89379322.436 7  21827327.945                    21827335.508
 107822999.056 8  84018058.742 8  20518030.664                    20518038.523
 11  8 13  2 57  0.0000000  0  9G10G30G29G26G15G25G02G12G05
 126329027.894 6  98438326.11943  24039600.547                    24039609.496
 114322696.377 7  89082632.18445  21754869.844                    21754878.211
 116335353.470 7  90651034.757 7  22137892.008                    22137900.586
 122403056.325 6  95379132.80544  23292543.438                    23292552.789
 127304271.745 6  99198195.171 6  24225201.531                    24225211.309
 113700088.861 8  88597603.417 7  21636424.961                    21636435.406
 114582950.701 7  89285539.22545  21804388.445                    21804394.723
 114776544.386 7  89436416.284 7  21841270.367                    21841278.195
 107859975.405 8  84046871.489 8  20525066.734                    20525074.969
 11  8 13  2 57 30.0000000  0  9G10G30G29G26G15G25G02G12G05
 126436312.011 6  98521924.17543  24060015.766                    24060024.680
 114366692.406 8  89116914.82745  21763241.977                    21763250.480
 116257058.311 7  90590025.597 7  22122993.297                    22123002.012
 122309967.123 7  95306595.74944  23274828.211                    23274837.672
 127208094.009 6  99123251.607 6  24206899.867                    24206909.316
 113716334.969 8  88610262.741 7  21639516.688                    21639527.012
 114624565.760 7  89317966.54945  21812307.453                    21812313.672
 114850173.131 7  89493789.349 7  21855281.930                    21855289.234
 107897429.201 8  84076056.277 8  20532194.195                    20532202.273
 11  8 13  2 58  0.0000000  0  9G10G30G29G26G15G25G02G12G05
 126543696.371 6  98605600.30343  24080450.836                    24080459.305
 114411185.202 7  89151584.54645  21771708.719                    21771717.445
 116178900.012 7  90529123.076 7  22108119.977                    22108128.473
 122217026.936 6  95234174.75044  23257143.094                    23257152.336
 127111848.613 7  99048255.299 6  24188584.758                    24188594.547
 113733137.051 8  88623355.281 7  21642713.867                    21642724.395
 114666271.085 7  89350464.20545  21820243.391                    21820250.238
 114924156.948 7  89551439.098 7  21869360.148                    21869368.090
 107935357.681 8  84105610.937 8  20539411.859                    20539419.789
 11  8 13  2 58 30.0000000  0  9G10G30G29G26G15G25G02G12G05
 126651178.946 6  98689352.96943  24100903.742                    24100912.086
 114456172.823 7  89186639.85145  21780269.359                    21780278.023
 116100880.635 7  90468328.807 7  22093273.469                    22093281.938
 122124240.004 6  95161873.23944  23239485.445                    23239495.902
 127015538.733 6  98973208.762 6  24170257.547                    24170267.773
 113750494.427 8  88636880.515 7  21646017.234                    21646027.648
 114708067.457 7  89383032.81045  21828197.453                    21828202.973
 114998493.647 7  89609363.806 7  21883505.938                    21883513.902
 107973759.756 8  84135534.645 8  20546719.414                    20546727.109
 11  8 13  2 59  0.0000000  0  9G10G30G29G26G15G25G02G12G05
 126758757.273 6  98773180.24943  24121375.141                    24121384.613
 114501652.824 7  89222078.82045  21788924.023                    21788932.668
 116023002.607 7  90407644.666 7  22078453.852                    22078462.820
 122031609.651 6  95089693.73243  23221858.492                    23221868.148
 126919166.888 7  98898113.899 6  24151918.438                    24151928.348
 113768405.835 8  88650837.472 7  21649425.547                    21649436.246
 114749954.178 7  89415671.82245  21836168.172                    21836174.109
 115073180.670 7  89667561.500 7  21897718.539                    21897726.305
 108012633.446 8  84165825.837 8  20554116.859                    20554124.883
 11  8 13  2 59 30.0000000  0  9G10G30G29G26G15G25G02G12G05
 126866428.580 6  98857079.95443  24141864.234                    24141873.605
 114547622.429 7  89257899.30545  21797672.000                    21797680.262
 115945267.867 7  90347072.196 7  22063661.258                    22063670.117
 121939139.276 7  95017638.90544  23204262.555                    23204270.984
 126822735.379 7  98822972.537 6  24133568.328                    24133577.613
 113786869.634 8  88665224.870 7  21652938.953                    21652949.512
 114791931.112 8  89448381.12545  21844156.398                    21844162.563
 115148214.359 7  89726029.316 7  21911996.852                    21912004.613
 108051976.229 8  84196482.565 8  20561603.336                    20561611.086
 11  8 13  3  0  0.0000000  0  9G10G30G29G26G15G25G02G12G05
 126974190.792 6  98941050.50243  24162370.305                    24162380.113
 114594079.695 7  89294099.78545  21806512.148                    21806520.645
 115867678.589 7  90286613.062 7  22048896.375                    22048904.984
 121846832.940 7  94945711.95944  23186697.086                    23186706.371
 126726247.267 7  98747787.031 6  24115207.242                    24115216.586
 113805885.177 8  88680042.183 7  21656557.625                    21656568.266
 114833998.851 8  89481161.17945  21852161.281                    21852167.281
 115223591.865 7  89784765.043 7  21926340.492                    21926348.301
 108091786.736 8  84227503.744 8  20569179.195                    20569186.941
 11  8 13  3  0 30.0000000  0  9G10G30G29G26G15G25G02G12G05
 127082041.059 6  99025089.65743  24182894.016                    24182903.648
 114641021.926 8  89330678.16845  21815445.094                    21815453.867
 115790236.678 7  90226268.771 7  22034159.672                    22034168.582
 121754693.958 7  94873915.42144  23169163.484                    23169172.766
 126629705.242 7  98672559.561 6  24096835.773                    24096845.309
 113825450.819 8  88695288.148 7  21660280.563                    21660291.348
 114876157.212 7  89514011.86045  21860183.547                    21860189.777
 115299310.447 7  89843766.554 7  21940749.305                    21940756.883
 108132062.509 7  84258887.470 8  20576843.367                    20576851.297
 11  8 13  3  1  0.0000000  0  9G10G30G29G26G15G25G02G12G05
 127189976.787 6  99109195.43343  24203433.828                    24203442.582
 114688446.623 7  89367632.48945  21824469.563                    21824478.656
 115712944.278 7  90166040.985 7  22019451.477                    22019460.285
 121662726.075 7  94802252.26044  23151662.375                    23151671.898
 126533111.805 6  98597292.039 6  24078454.758                    24078464.570
 113845565.326 8  88710961.802 7  21664108.266                    21664119.227
 114918405.920 7  89546932.92245  21868223.625                    21868229.738
 115375367.358 7  89903031.681 7  21955222.469                    21955230.094
 108172801.471 7  84290632.114 8  20584595.797                    20584603.566
 11  8 13  3  1 30.0000000  0  9G10G30G29G26G15G25G02G12G05
 127297995.487 6  99193365.88743  24223989.211                    24223997.758
 114736351.257 7  89404960.79045  21833585.281                    21833594.484
 115635803.506 7  90105931.347 7  22004772.227                    22004780.691
 121570932.733 7  94730725.07944  23134195.164                    23134204.094
 126436470.062 7  98521986.870 6  24060064.641                    24060073.758
 113866227.360 8  88727062.101 7  21668040.500                    21668050.918
 114960745.113 8  89579924.50645  21876280.055                    21876286.320
 115451759.677 7  89962558.169 7  21969759.313                    21969767.348
 108214001.447 8  84322735.994 8  20592435.969                    20592443.676
 11  8 13  3  2  0.0000000  0  9G10G30G29G26G15G25G02G12G05
 127406094.970 6  99277599.25043  24244559.008                    24244568.383
 114784733.580 7  89442661.30845  21842792.469                    21842801.148
 115558816.494 7  90045941.521 7  21990122.148                    21990130.242
 121479317.816 7  94659336.89744  23116760.852                    23116769.781
 126339782.492 6  98446645.985 6  24041665.148                    24041674.496
 113887435.669 8  88743588.069 7  21672075.969                    21672086.617
 115003174.831 8  89612986.59945  21884354.641                    21884360.625
 115528484.582 8  90022343.799 7  21984360.023                    21984367.117
 108255660.501 8  84355197.614 8  20600363.531                    20600370.969
 11  8 13  3  2 30.0000000  0  9G10G30G29G26G15G25G02G12G05
 127514272.563 6  99361893.46543  24265144.969                    24265154.152
 114833590.884 7  89480731.95145  21852089.633                    21852098.383
 115481985.236 7  89986073.058 7  21975501.445                    21975509.855
 121387884.698 7  94588090.40044  23099361.938                    23099370.766
 126243051.960 6  98371271.604 6  24023257.391                    24023267.355
 113909188.814 8  88760538.582 7  21676215.234                    21676226.164
 115045695.065 8  89646119.23045  21892445.766                    21892451.953
 115605539.104 8  90082386.297 7  21999022.883                    21999030.613
 108297776.482 8  84388015.263 8  20608377.492                    20608384.996
 11  8 13  3  3  0.0000000  0  9G10G30G29G26G15G25G02G12G05
 127622525.900 6  99446246.68043  24285744.703                    24285753.680
 114882920.871 7  89519170.91845  21861476.938                    21861485.363
 115405312.071 8  89926327.788 7  21960910.336                    21960919.055
 121296637.264 7  94516988.55544  23081998.352                    23082007.391
 126146281.338 6  98295866.017 6  24004842.602                    24004852.297
 113931485.562 8  88777912.685 7  21680458.344                    21680469.023
 115088305.946 8  89679322.47645  21900554.227                    21900560.953
 115682920.680 8  90142683.640 7  22013747.891                    22013755.613
 108340347.434 8  84421187.435 8  20616478.570                    20616486.363
 11  8 13  3  3 30.0000000  0  9G10G30G29G26G15G25G02G12G05
 127730852.741 6  99530657.21543  24306358.117                    24306367.625
 114932720.606 7  89557975.91245  21870952.891                    21870961.758
 115328799.102 7  89866707.331 7  21946351.000                    21946359.141
 121205578.779 7  94446033.89244  23064669.805                    23064679.332
 126049473.292 6  98220431.258 6  23986420.055                    23986429.555
 113954324.316 8  88795709.144 7  21684804.125                    21684815.270
 115131007.488 7  89712596.40645  21908680.266                    21908686.469
 115760625.748 7  90203233.050 7  22028534.672                    22028542.559
 108383371.296 8  84454712.529 8  20624666.070                    20624674.051
 11  8 13  3  4  0.0000000  0  9G10G30G29G26G15G25G02G12G05
 127839250.629 6  99615123.15043  24326985.914                    24326994.953
 114982988.180 7  89597145.46345  21880518.633                    21880527.637
 115252448.621 7  89807213.507 7  21931821.516                    21931830.180
 121114713.715 7  94375230.00044  23047379.188                    23047388.602
 125952630.753 6  98144969.631 6  23967992.195                    23968001.309
 113977704.080 8  88813927.156 7  21689253.680                    21689263.887
 115173800.014 8  89745941.24045  21916823.352                    21916829.750
 115838651.889 7  90264032.641 7  22043382.484                    22043390.375
 108426846.248 8  84488589.119 8  20632938.953                    20632946.699
 11  8 13  3  4 30.0000000  0  9G10G30G29G26G15G25G02G12G05
 127947716.642 6  99699642.11443  24347626.758                    24347635.609
 115033720.185 7  89636676.90345  21890172.594                    21890181.453
 115176262.423 8  89747847.684 7  21917323.930                    21917332.445
 121024044.799 7  94304578.97144  23030125.219                    23030134.172
 125855756.267 6  98069483.098 6  23949557.984                    23949566.031
 114001622.685 8  88832565.045 7  21693805.281                    21693815.309
 115216682.976 7  89779356.53345  21924984.141                    21924989.867
 115916995.554 8  90325079.675 7  22058290.836                    22058298.789
 108470769.391 8  84522814.957 8  20641297.070                    20641305.059
 11  8 13  3  5  0.0000000  0  9G10G30G29G26G15G25G02G12G05
 128056248.971 6  99784212.77642  24368279.234                    24368287.992
 115084914.831 7  89676568.84745  21899915.055                    21899923.680
 115100242.942 8  89688611.783 7  21902858.305                    21902866.434
 120933576.565 7  94234084.30244  23012909.672                    23012918.832
 125758852.906 6  97993974.089 6  23931117.703                    23931126.559
 114026079.319 8  88851622.187 7  21698459.000                    21698469.684
 115259656.915 7  89812842.70945  21933161.352                    21933167.750
 115995654.458 8  90386372.329 7  22073259.078                    22073267.027
 108515139.342 7  84557388.949 8  20649740.516                    20649748.105
 11  8 13  3  5 30.0000000  0 10G10G30G29G26G15G25G21G02G12G05
 128164844.662 6  99868832.81342  24388943.781                    24388952.621
 115136569.135 7  89716818.96045  21909744.617                    21909752.914
 115024392.238 7  89629507.395 7  21888424.305                    21888432.281
 120843312.246 7  94163748.54344  22995732.797                    22995742.004
 125661923.485 6  97918444.748 6  23912672.250                    23912681.301
 114051072.227 8  88871097.198 7  21703214.594                    21703225.375
 132321086.78116 103107454.84653  25179884.086                    25179894.336
 115302721.822 7  89846399.75345  21941356.391                    21941362.672
 116074625.962 7  90447908.585 7  22088286.586                    22088294.676
 108559953.598 8  84592309.152 8  20658268.516                    20658276.145
 11  8 13  3  6  0.0000000  0 10G10G30G29G26G15G25G21G02G12G05
 128273501.620 6  99953500.62043  24409621.547                    24409629.813
 115188680.630 7  89757425.33445  21919660.711                    21919669.082
 114948712.696 7  89570536.367 7  21874022.555                    21874030.934
 120753255.492 7  94093574.54744  22978595.844                    22978604.680
 125564970.899 6  97842897.346 6  23894222.617                    23894231.918
 114076599.940 8  88890988.932 7  21708072.547                    21708083.156
 132263515.774 6 103062594.38943  25168929.500                    25168938.652
 115345877.741 8  89880027.75445  21949568.781                    21949574.859
 116153906.168 7  90509685.388 7  22103373.008                    22103381.270
 108605210.071 8  84627573.936 8  20666880.398                    20666888.051
 11  8 13  3  6 30.0000000  0 10G10G30G29G26G15G25G21G02G12G05
 128382217.797 6 100038214.54143  24430309.352                    24430317.965
 115241247.083 7  89798386.21845  21929663.531                    21929672.621
 114873206.732 8  89511700.608 7  21859654.445                    21859662.719
 120663410.467 7  94023565.52644  22961498.859                    22961507.836
 125467998.301 7  97767334.324 6  23875770.148                    23875778.379
 114102661.366 8  88911296.544 7  21713032.117                    21713042.203
 132205956.850 6 103017743.30543  25157976.555                    25157985.270
 115389125.084 8  89913726.97745  21957798.578                    21957804.895
 116233493.245 7  90571701.316 7  22118518.180                    22118525.938
 108650907.325 8  84663182.191 8  20675576.219                    20675584.293
 11  8 13  3  7  0.0000000  0 10G10G30G29G26G15G25G21G02G12G05
 128490990.492 6 100122972.53843  24451007.766                    24451015.914
 115294265.172 7  89839699.02345  21939752.969                    21939761.461
 114797875.904 7  89453001.316 7  21845319.063                    21845327.539
 120573780.594 7  93953724.16644  22944442.313                    22944451.367
 125371007.863 7  97691757.414 6  23857313.250                    23857321.688
 114129254.364 8  88932018.368 7  21718092.641                    21718103.121
 132148409.056 6 102972900.94643  25147025.383                    25147034.672
 115432463.511 7  89947497.19045  21966045.508                    21966051.707
 116313383.545 7  90633953.514 7  22133720.813                    22133728.504
 108697042.394 8  84699131.600 7  20684355.617                    20684363.324
 11  8 13  3  7 30.0000000  0 10G10G30G29G26G15G25G21G02G12G05
 128599817.055 6 100207772.51642  24471716.641                    24471725.793
 115347732.390 7  89881361.79945  21949927.047                    21949935.922
 114722722.757 7  89394440.474 7  21831018.055                    21831026.203
 120484369.234 7  93884053.03944  22927428.297                    22927437.047
 125274002.471 6  97616168.857 6  23838853.406                    23838862.406
 114156377.339 8  88953153.172 7  21723253.781                    21723264.160
 132090872.067 6 102928067.04943  25136076.578                    25136085.863
 115475893.139 7  89981338.48045  21974309.750                    21974316.254
 116393574.176 7  90696439.738 7  22148980.672                    22148988.617
 108743613.075 8  84735420.456 8  20693217.602                    20693225.402
 11  8 13  3  8  0.0000000  0 10G10G30G29G26G15G25G21G02G12G05
 128708695.060 6 100292612.55742  24492435.789                    24492444.816
 115401646.030 7  89923372.43645  21960186.648                    21960195.398
 114647749.159 7  89336019.529 7  21816750.813                    21816759.645
 120395180.178 7  93814555.17444  22910455.898                    22910464.789
 125176985.243 7  97540571.068 6  23820391.320                    23820400.648
 114184028.725 8  88974699.720 7  21728515.242                    21728526.012
 132033345.293 6 102883241.06142  25125129.086                    25125138.363
 115519413.956 8  90015250.79145  21982591.758                    21982598.309
 116474061.999 7  90759157.545 7  22164296.953                    22164304.777
 108790617.107 8  84772046.985 8  20702162.016                    20702169.715
 11  8 13  3  8 30.0000000  0 10G10G30G29G26G15G25G21G02G12G05
 128817622.480 6 100377491.06543  24513163.773                    24513173.566
 115456003.309 7  89965728.76145  21970530.547                    21970538.758
 114572957.501 8  89277740.359 7  21802519.047                    21802526.836
 120306216.999 7  93745233.26044  22893526.867                    22893535.816
 125079958.778 7  97464966.092 6  23801928.313                    23801937.258
 114212206.828 8  88996656.686 7  21733877.813                    21733888.082
 131975827.879 6 102838422.32543  25114184.250                    25114193.496
 115563025.993 7  90049234.19545  21990890.477                    21990896.664
 116554843.940 7  90822104.525 7  22179669.164                    22179676.711
 108838052.026 8  84809009.273 7  20711188.813                    20711196.531
 11  8 13  3  9  0.0000000  0 10G10G30G29G26G15G25G21G02G12G05
 128926597.165 6 100462406.43643  24533900.773                    24533910.254
 115510801.600 7  90008428.73645  21980958.313                    21980967.008
 114498350.042 7  89219604.725 7  21788321.398                    21788329.402
 120217483.410 7  93676090.27944  22876640.859                    22876650.477
 124982925.836 7  97389356.079 6  23783463.453                    23783472.355
 114240910.010 8  89019022.798 7  21739339.984                    21739350.418
 131918319.683 6 102793610.85343  25103239.789                    25103249.980
 115606729.463 7  90083288.84845  21999207.398                    21999213.391
 116635917.434 7  90885278.679 7  22195097.305                    22195104.855
 108885916.194 8  84846306.041 7  20720297.133                    20720304.598
 11  8 13  3  9 30.0000000  0 10G10G30G29G26G15G25G21G02G12G05
 129035616.530 6 100547356.58443  24554646.766                    24554656.164
 115566038.209 7  90051470.25845  21991469.391                    21991478.184
 114423929.040 7  89161614.368 7  21774159.484                    21774167.992
 120128983.291 7  93607129.21044  22859800.539                    22859808.820
 124885889.681 7  97313743.554 6  23764997.914                    23765007.145
 114270136.734 8  89041796.878 7  21744901.305                    21744911.676
 131860820.195 6 102748806.13343  25092297.734                    25092308.496
 115650524.604 8  90117414.94345  22007541.422                    22007547.125
 116717279.294 7  90948677.552 7  22210579.398                    22210587.426
 108934207.652 8  84883935.756 7  20729486.523                    20729494.227
 11  8 13  3 10  0.0000000  0 10G10G30G29G26G15G25G21G02G12G05
 129144678.324 6 100632339.81242  24575399.859                    24575409.820
 115621710.440 7  90094851.21545  22002063.609                    22002072.047
 114349696.435 7  89103770.832 7  21760033.141                    21760041.934
 120040720.076 7  93538352.73444  22843003.945                    22843013.305
 124788852.941 6  97238130.584 6  23746532.477                    23746541.605
 114299885.171 8  89064977.492 7  21750562.344                    21750572.586
 131803328.778 6 102704007.66242  25081358.328                    25081367.793
 115694411.397 7  90151612.45445  22015892.523                    22015898.836
 116798926.491 7  91012298.754 7  22226116.281                    22226124.242
 108982923.642 8  84921896.285 8  20738757.117                    20738764.645
 11  8 13  3 10 30.0000000  0  9G30G29G26G15G25G21G02G12G05
 115677815.934 7  90138569.78745  22012739.844                    22012748.738
 114275655.244 7  89046076.446 7  21745943.500                    21745951.789
 119952698.246 7  93469764.32944  22826254.203                    22826262.992
 124691819.153 6  97162519.917 6  23728067.461                    23728076.738
 114330154.140 8  89088563.696 7  21756322.305                    21756332.953
 131745845.061 6 102659215.23742  25070418.664                    25070428.551
 115738390.497 7  90185881.89845  22024261.461                    22024267.422
 116880856.558 7  91076140.365 7  22241707.609                    22241715.020
 109032062.376 8  84960186.219 7  20748107.391                    20748115.195
 11  8 13  3 11  0.0000000  0  9G30G29G26G15G25G21G02G12G05
 115734351.618 7  90182623.56645  22023498.375                    22023506.801
 114201807.148 7  88988532.521 7  21731890.953                    21731899.324
 119864920.969 7  93401366.44145  22809550.820                    22809559.230
 124594790.701 6  97086913.414 6  23709603.250                    23709612.395
 114360941.486 8  89112553.845 7  21762180.984                    21762191.629
 131688368.410 6 102614428.28443  25059481.875                    25059490.949
 115782461.885 7  90220223.23345  22032647.945                    22032653.938
 116963066.014 7  91140199.684 7  22257351.289                    22257359.199
 109081621.273 8  84998803.552 8  20757538.242                    20757546.250
 11  8 13  3 11 30.0000000  0  9G30G29G26G15G25G21G02G12G05
 115791314.410 7  90227010.15445  22034338.453                    22034346.637
 114128154.014 7  88931140.503 7  21717875.313                    21717883.078
 119777391.494 7  93333161.66444  22792894.609                    22792903.703
 124497770.305 6  97011313.171 6  23691140.609                    23691150.004
 114392245.142 8  89136946.293 7  21768137.594                    21768148.422
 131630897.879 6 102569646.14642  25048545.586                    25048555.168
 115826625.332 7  90254636.30645  22041051.609                    22041057.984
 117045551.439 7  91204474.050 7  22273047.727                    22273055.609
 109131597.763 8  85037746.288 8  20767048.516                    20767056.273
 11  8 13  3 12  0.0000000  0  9G30G29G26G15G25G21G02G12G05
 115848701.508 7  90271727.37745  22045258.656                    22045267.102
 114054698.389 7  88873902.405 7  21703896.844                    21703905.168
 119690113.748 7  93265153.03744  22776285.938                    22776294.719
 124400760.737 6  96935721.384 6  23672680.320                    23672689.742
 114424063.413 8  89161739.754 7  21774192.734                    21774203.383
 131573433.033 6 102524868.43442  25037610.953                    25037620.332
 115870880.886 7  90289121.17445  22049473.555                    22049479.840
 117128310.130 7  91268961.349 7  22288796.336                    22288804.387
 109181989.808 8  85077012.832 7  20776637.922                    20776645.625
 11  8 13  3 12 30.0000000  0  9G30G29G26G15G25G21G02G12G05
 115906510.248 7  90316773.14645  22056259.289                    22056267.707
 113981442.485 7  88816819.927 7  21689957.164                    21689965.020
 119603091.249 7  93197343.30044  22759726.133                    22759735.129
 124303765.175 6  96860140.514 6  23654223.008                    23654231.703
 114456394.509 8  89186932.825 7  21780345.172                    21780356.000
 131515973.709 6 102480095.04842  25026675.039                    25026685.422
 115915228.605 7  90323677.84045  22057912.742                    22057918.957
 117211339.295 7  91333659.408 7  22304596.250                    22304604.105
 109232795.138 8  85116601.409 7  20786306.078                    20786313.348
 11  8 13  3 13  0.0000000  0  9G30G29G26G15G25G21G02G12G05
 115964737.665 7  90362145.15145  22067339.219                    22067348.211
 113908388.182 8  88759894.540 7  21676055.109                    21676063.496
 119516327.878 7  93129735.46844  22743215.578                    22743224.438
 124206786.395 6  96784572.697 6  23635768.195                    23635777.273
 114489236.515 8  89212523.999 7  21786595.070                    21786605.066
 131458518.869 6 102435325.16142  25015742.328                    25015751.848
 115959668.532 7  90358306.35245  22066369.047                    22066375.547
 117294635.592 7  91398565.600 7  22320446.680                    22320454.801
 109284011.215 8  85156510.056 8  20796051.773                    20796059.723
 11  8 13  3 13 30.0000000  0  9G30G29G26G15G25G21G02G12G05
 116023381.259 7  90407841.45845  22078499.266                    22078507.848
 113835538.360 8  88703128.481 7  21662191.938                    21662200.066
 119429827.405 7  93062332.54644  22726754.992                    22726763.758
 124109827.387 7  96709020.285 6  23617317.336                    23617326.137
 114522587.851 8  89238512.061 7  21792941.273                    21792951.922
 131401068.181 6 102390558.49643  25004810.445                    25004819.430
 116004201.293 7  90393007.21545  22074843.531                    22074849.410
 117378196.157 7  91463677.739 7  22336348.109                    22336355.871
 109335636.103 8  85196737.252 7  20805875.391                    20805883.629
 11  8 13  3 14  0.0000000  0  9G30G29G26G15G25G21G02G12G05
 116082437.806 7  90453859.55045  22089737.328                    22089745.582
 113762894.838 8  88646523.180 7  21648368.336                    21648376.941
 119343593.364 7  92995137.25144  22710344.523                    22710354.102
 124012890.877 6  96633485.371 6  23598871.047                    23598879.785
 114556446.368 8  89264895.322 7  21799384.133                    21799394.953
 131343620.990 6 102345794.60343  24993877.969                    24993887.188
 116048826.907 7  90427780.43945  22083335.273                    22083341.414
 117462017.784 7  91528993.299 7  22352298.820                    22352306.223
 109387667.262 8  85237281.019 8  20815776.930                    20815784.910
